Time,TemperatureF,DewpointF,PressureIn,WindDirection,WindDirectionDegrees,WindSpeedMPH,WindSpeedGustMPH,Humidity,HourlyPrecipIn,Conditions,Clouds,dailyrainin,SolarRadiationWatts/m^2,SoftwareType,DateUTC
2013-11-11 00:00:00,49.4,27.3,30.15,NNW,347,0.0,0.0,42,0.00,,,0.00,0.00,VWS V14.01,2013-11-11 05:00:00,
2013-11-11 00:01:00,49.2,27.1,30.15,NNW,347,0.0,0.0,42,0.00,,,0.00,0.00,VWS V14.01,2013-11-11 05:01:00,
2013-11-11 00:02:00,48.8,27.3,30.15,North,0,0.0,0.0,43,0.00,,,0.00,0.00,VWS V14.01,2013-11-11 05:02:00,
2013-11-11 00:03:00,48.8,27.3,30.15,North,355,0.0,3.0,43,0.00,,,0.00,0.00,VWS V14.01,2013-11-11 05:03:00,
2013-11-11 00:04:00,48.6,27.1,30.15,North,355,0.0,0.0,43,0.00,,,0.00,0.00,VWS V14.01,2013-11-11 05:04:00,
2013-11-11 00:05:00,48.6,27.1,30.15,North,355,0.0,0.0,43,0.00,,,0.00,0.00,VWS V14.01,2013-11-11 05:05:00,
2013-11-11 00:06:00,48.5,27.0,30.15,North,353,0.0,4.0,43,0.00,,,0.00,0.00,VWS V14.01,2013-11-11 05:06:00,
2013-11-11 00:07:00,48.3,27.4,30.15,North,353,0.0,0.0,44,0.00,,,0.00,0.00,VWS V14.01,2013-11-11 05:07:00,
2013-11-11 00:08:00,48.9,27.4,30.15,NNE,17,0.0,0.0,43,0.00,,,0.00,0.00,VWS V14.01,2013-11-11 05:08:00,
2013-11-11 00:09:00,48.2,27.3,30.15,North,353,0.0,0.0,44,0.00,,,0.00,0.00,VWS V14.01,2013-11-11 05:09:00,
2013-11-11 00:10:00,48.2,27.3,30.15,North,353,0.0,3.0,44,0.00,,,0.00,0.00,VWS V14.01,2013-11-11 05:10:00,
2013-11-11 00:11:00,48.0,27.1,30.15,North,353,0.0,0.0,44,0.00,,,0.00,0.00,VWS V14.01,2013-11-11 05:11:00,
2013-11-11 00:12:00,48.0,27.1,30.15,North,353,0.0,0.0,44,0.00,,,0.00,0.00,VWS V14.01,2013-11-11 05:12:00,
2013-11-11 00:13:00,48.3,27.4,30.15,North,353,0.0,0.0,44,0.00,,,0.00,0.00,VWS V14.01,2013-11-11 05:13:00,
2013-11-11 00:14:00,47.9,27.0,30.15,North,353,0.0,1.0,44,0.00,,,0.00,0.00,VWS V14.01,2013-11-11 05:14:00,
2013-11-11 00:15:00,47.9,27.6,30.16,North,353,0.0,0.0,45,0.00,,,0.00,0.00,VWS V14.01,2013-11-11 05:15:00,
2013-11-11 00:16:00,47.7,27.4,30.16,North,353,0.0,1.0,45,0.00,,,0.00,0.00,VWS V14.01,2013-11-11 05:16:00,
2013-11-11 00:17:00,47.7,27.4,30.16,North,358,3.0,4.0,45,0.00,,,0.00,0.00,VWS V14.01,2013-11-11 05:17:00,
2013-11-11 00:18:00,48.0,27.1,30.15,North,353,0.0,0.0,44,0.00,,,0.00,0.00,VWS V14.01,2013-11-11 05:18:00,
2013-11-11 00:19:00,47.7,28.0,30.16,North,5,0.0,6.0,46,0.00,,,0.00,0.00,VWS V14.01,2013-11-11 05:19:00,
2013-11-11 00:20:00,47.7,28.0,30.16,North,1,0.0,3.0,46,0.00,,,0.00,0.00,VWS V14.01,2013-11-11 05:20:00,
2013-11-11 00:21:00,47.6,27.9,30.16,North,0,0.0,2.0,46,0.00,,,0.00,0.00,VWS V14.01,2013-11-11 05:21:00,
2013-11-11 00:22:00,47.6,27.9,30.16,North,0,3.0,3.0,46,0.00,,,0.00,0.00,VWS V14.01,2013-11-11 05:22:00,
2013-11-11 00:23:00,47.7,27.4,30.16,North,358,3.0,4.0,45,0.00,,,0.00,0.00,VWS V14.01,2013-11-11 05:23:00,
2013-11-11 00:24:00,47.6,27.3,30.16,NNW,333,0.0,0.0,45,0.00,,,0.00,0.00,VWS V14.01,2013-11-11 05:24:00,
2013-11-11 00:25:00,47.6,27.3,30.16,North,0,2.0,4.0,45,0.00,,,0.00,0.00,VWS V14.01,2013-11-11 05:25:00,
2013-11-11 00:26:00,47.6,27.3,30.16,North,0,0.0,2.0,45,0.00,,,0.00,0.00,VWS V14.01,2013-11-11 05:26:00,
2013-11-11 00:27:00,47.6,27.3,30.16,North,1,0.0,0.0,45,0.00,,,0.00,0.00,VWS V14.01,2013-11-11 05:27:00,
2013-11-11 00:28:00,47.6,27.9,30.16,North,0,3.0,3.0,46,0.00,,,0.00,0.00,VWS V14.01,2013-11-11 05:28:00,
2013-11-11 00:29:00,47.7,26.9,30.16,North,0,3.0,5.0,44,0.00,,,0.00,0.00,VWS V14.01,2013-11-11 05:29:00,
2013-11-11 00:30:00,47.7,27.4,30.16,North,358,0.0,3.0,45,0.00,,,0.00,0.00,VWS V14.01,2013-11-11 05:30:00,
2013-11-11 00:31:00,47.7,26.9,30.16,North,358,0.0,0.0,44,0.00,,,0.00,0.00,VWS V14.01,2013-11-11 05:31:00,
2013-11-11 00:32:00,47.7,27.4,30.16,North,0,3.0,4.0,45,0.00,,,0.00,0.00,VWS V14.01,2013-11-11 05:32:00,
2013-11-11 00:33:00,47.6,27.3,30.16,North,1,0.0,0.0,45,0.00,,,0.00,0.00,VWS V14.01,2013-11-11 05:33:00,
2013-11-11 00:34:00,47.7,27.4,30.16,North,0,0.0,0.0,45,0.00,,,0.00,0.00,VWS V14.01,2013-11-11 05:34:00,
2013-11-11 00:35:00,47.7,27.4,30.16,North,0,0.0,0.0,45,0.00,,,0.00,0.00,VWS V14.01,2013-11-11 05:35:00,
2013-11-11 00:36:00,47.7,27.4,30.16,North,0,1.0,1.0,45,0.00,,,0.00,0.00,VWS V14.01,2013-11-11 05:36:00,
2013-11-11 00:37:00,47.7,27.4,30.16,North,358,0.0,4.0,45,0.00,,,0.00,0.00,VWS V14.01,2013-11-11 05:37:00,
2013-11-11 00:38:00,47.7,27.4,30.16,North,0,2.0,4.0,45,0.00,,,0.00,0.00,VWS V14.01,2013-11-11 05:38:00,
2013-11-11 00:39:00,47.7,27.4,30.16,North,358,0.0,0.0,45,0.00,,,0.00,0.00,VWS V14.01,2013-11-11 05:39:00,
2013-11-11 00:40:00,47.7,27.4,30.16,North,358,0.0,0.0,45,0.00,,,0.00,0.00,VWS V14.01,2013-11-11 05:40:00,
2013-11-11 00:41:00,47.7,28.0,30.16,North,358,0.0,0.0,46,0.00,,,0.00,0.00,VWS V14.01,2013-11-11 05:41:00,
2013-11-11 00:42:00,47.6,27.9,30.16,North,358,0.0,0.0,46,0.00,,,0.00,0.00,VWS V14.01,2013-11-11 05:42:00,
2013-11-11 00:43:00,47.7,27.4,30.16,North,358,1.0,4.0,45,0.00,,,0.00,0.00,VWS V14.01,2013-11-11 05:43:00,
2013-11-11 00:44:00,47.6,28.4,30.16,North,0,0.0,1.0,47,0.00,,,0.00,0.00,VWS V14.01,2013-11-11 05:44:00,
2013-11-11 00:45:00,47.4,28.2,30.16,NNE,13,0.0,3.0,47,0.00,,,0.00,0.00,VWS V14.01,2013-11-11 05:45:00,
2013-11-11 00:46:00,47.4,28.2,30.16,North,0,0.0,4.0,47,0.00,,,0.00,0.00,VWS V14.01,2013-11-11 05:46:00,
2013-11-11 00:47:00,47.3,27.6,30.16,North,0,0.0,0.0,46,0.00,,,0.00,0.00,VWS V14.01,2013-11-11 05:47:00,
2013-11-11 00:48:00,47.6,27.9,30.16,North,358,0.0,0.0,46,0.00,,,0.00,0.00,VWS V14.01,2013-11-11 05:48:00,
2013-11-11 00:49:00,47.1,27.4,30.16,North,353,0.0,2.0,46,0.00,,,0.00,0.00,VWS V14.01,2013-11-11 05:49:00,
2013-11-11 00:50:00,47.1,27.9,30.16,North,353,0.0,0.0,47,0.00,,,0.00,0.00,VWS V14.01,2013-11-11 05:50:00,
2013-11-11 00:51:00,47.1,27.9,30.16,North,350,0.0,0.0,47,0.00,,,0.00,0.00,VWS V14.01,2013-11-11 05:51:00,
2013-11-11 00:52:00,47.0,27.8,30.16,NW,322,0.0,3.0,47,0.00,,,0.00,0.00,VWS V14.01,2013-11-11 05:52:00,
2013-11-11 00:53:00,47.3,27.6,30.16,North,0,0.0,0.0,46,0.00,,,0.00,0.00,VWS V14.01,2013-11-11 05:53:00,
2013-11-11 00:54:00,47.0,27.3,30.16,NW,322,0.0,0.0,46,0.00,,,0.00,0.00,VWS V14.01,2013-11-11 05:54:00,
2013-11-11 00:55:00,47.0,27.3,30.16,NW,322,0.0,0.0,46,0.00,,,0.00,0.00,VWS V14.01,2013-11-11 05:55:00,
2013-11-11 00:56:00,47.0,27.8,30.16,NW,322,0.0,0.0,47,0.00,,,0.00,0.00,VWS V14.01,2013-11-11 05:56:00,
2013-11-11 00:57:00,47.0,27.8,30.16,NW,322,0.0,2.0,47,0.00,,,0.00,0.00,VWS V14.01,2013-11-11 05:57:00,
2013-11-11 00:58:00,47.0,27.8,30.16,NW,323,0.0,3.0,47,0.00,,,0.00,0.00,VWS V14.01,2013-11-11 05:58:00,
2013-11-11 00:59:00,46.8,27.6,30.16,NW,322,0.0,0.0,47,0.00,,,0.00,0.00,VWS V14.01,2013-11-11 05:59:00,
2013-11-11 01:00:00,46.8,27.6,30.16,NW,322,0.0,2.0,47,0.00,,,0.00,0.00,VWS V14.01,2013-11-11 06:00:00,
2013-11-11 01:01:00,46.8,27.6,30.16,NNW,336,2.0,2.0,47,0.00,,,0.00,0.00,VWS V14.01,2013-11-11 06:01:00,
2013-11-11 01:02:00,46.8,27.6,30.16,North,357,0.0,5.0,47,0.00,,,0.00,0.00,VWS V14.01,2013-11-11 06:02:00,
2013-11-11 01:03:00,47.0,27.8,30.16,NW,322,0.0,2.0,47,0.00,,,0.00,0.00,VWS V14.01,2013-11-11 06:03:00,
2013-11-11 01:04:00,46.7,27.6,30.16,North,357,0.0,0.0,47,0.00,,,0.00,0.00,VWS V14.01,2013-11-11 06:04:00,
2013-11-11 01:05:00,46.7,28.1,30.16,North,357,0.0,0.0,48,0.00,,,0.00,0.00,VWS V14.01,2013-11-11 06:05:00,
2013-11-11 01:06:00,46.5,27.4,30.16,North,357,0.0,0.0,47,0.00,,,0.00,0.00,VWS V14.01,2013-11-11 06:06:00,
2013-11-11 01:07:00,46.5,27.9,30.16,North,357,0.0,0.0,48,0.00,,,0.00,0.00,VWS V14.01,2013-11-11 06:07:00,
2013-11-11 01:08:00,46.8,27.6,30.16,North,357,0.0,5.0,47,0.00,,,0.00,0.00,VWS V14.01,2013-11-11 06:08:00,
2013-11-11 01:09:00,46.4,27.8,30.16,North,357,0.0,2.0,48,0.00,,,0.00,0.00,VWS V14.01,2013-11-11 06:09:00,
2013-11-11 01:10:00,46.4,27.8,30.16,North,357,2.0,2.0,48,0.00,,,0.00,0.00,VWS V14.01,2013-11-11 06:10:00,
2013-11-11 01:11:00,46.4,28.3,30.16,North,357,0.0,2.0,49,0.00,,,0.00,0.00,VWS V14.01,2013-11-11 06:11:00,
2013-11-11 01:12:00,46.2,28.1,30.16,North,0,0.0,3.0,49,0.00,,,0.00,0.00,VWS V14.01,2013-11-11 06:12:00,
2013-11-11 01:13:00,46.5,27.9,30.16,North,357,0.0,0.0,48,0.00,,,0.00,0.00,VWS V14.01,2013-11-11 06:13:00,
2013-11-11 01:14:00,46.2,28.1,30.16,North,354,0.0,0.0,49,0.00,,,0.00,0.00,VWS V14.01,2013-11-11 06:14:00,
2013-11-11 01:15:00,46.1,28.0,30.17,North,354,0.0,0.0,49,0.00,,,0.00,0.00,VWS V14.01,2013-11-11 06:15:00,
2013-11-11 01:16:00,46.1,28.5,30.17,North,354,0.0,0.0,50,0.00,,,0.00,0.00,VWS V14.01,2013-11-11 06:16:00,
2013-11-11 01:17:00,46.0,28.4,30.17,North,354,0.0,1.0,50,0.00,,,0.00,0.00,VWS V14.01,2013-11-11 06:17:00,
2013-11-11 01:18:00,46.4,28.3,30.16,North,0,0.0,3.0,49,0.00,,,0.00,0.00,VWS V14.01,2013-11-11 06:18:00,
2013-11-11 01:19:00,45.8,27.7,30.17,North,354,0.0,0.0,49,0.00,,,0.00,0.00,VWS V14.01,2013-11-11 06:19:00,
2013-11-11 01:20:00,45.8,28.2,30.17,North,354,0.0,0.0,50,0.00,,,0.00,0.00,VWS V14.01,2013-11-11 06:20:00,
2013-11-11 01:21:00,45.8,28.2,30.17,North,354,0.0,1.0,50,0.00,,,0.00,0.00,VWS V14.01,2013-11-11 06:21:00,
2013-11-11 01:22:00,45.7,27.6,30.17,North,354,0.0,0.0,49,0.00,,,0.00,0.00,VWS V14.01,2013-11-11 06:22:00,
2013-11-11 01:23:00,46.1,28.5,30.17,North,354,0.0,1.0,50,0.00,,,0.00,0.00,VWS V14.01,2013-11-11 06:23:00,
2013-11-11 01:24:00,45.7,28.1,30.17,North,354,0.0,0.0,50,0.00,,,0.00,0.00,VWS V14.01,2013-11-11 06:24:00,
2013-11-11 01:25:00,45.5,28.0,30.17,North,354,0.0,0.0,50,0.00,,,0.00,0.00,VWS V14.01,2013-11-11 06:25:00,
2013-11-11 01:26:00,45.5,28.4,30.17,North,354,0.0,0.0,51,0.00,,,0.00,0.00,VWS V14.01,2013-11-11 06:26:00,
2013-11-11 01:27:00,45.4,28.4,30.17,North,354,0.0,0.0,51,0.00,,,0.00,0.00,VWS V14.01,2013-11-11 06:27:00,
2013-11-11 01:28:00,45.7,27.6,30.17,North,354,0.0,0.0,49,0.00,,,0.00,0.00,VWS V14.01,2013-11-11 06:28:00,
2013-11-11 01:29:00,45.2,28.2,30.17,North,354,2.0,3.0,51,0.00,,,0.00,0.00,VWS V14.01,2013-11-11 06:29:00,
2013-11-11 01:30:00,45.1,28.1,30.17,North,354,0.0,2.0,51,0.00,,,0.00,0.00,VWS V14.01,2013-11-11 06:30:00,
2013-11-11 01:31:00,45.1,28.5,30.17,North,354,0.0,0.0,52,0.00,,,0.00,0.00,VWS V14.01,2013-11-11 06:31:00,
2013-11-11 01:32:00,44.9,28.4,30.17,North,354,0.0,2.0,52,0.00,,,0.00,0.00,VWS V14.01,2013-11-11 06:32:00,
2013-11-11 01:33:00,45.4,28.4,30.17,North,354,0.0,0.0,51,0.00,,,0.00,0.00,VWS V14.01,2013-11-11 06:33:00,
2013-11-11 01:34:00,44.8,28.7,30.17,North,354,0.0,0.0,53,0.00,,,0.00,0.00,VWS V14.01,2013-11-11 06:34:00,
2013-11-11 01:35:00,44.6,28.5,30.17,North,354,0.0,0.0,53,0.00,,,0.00,0.00,VWS V14.01,2013-11-11 06:35:00,
2013-11-11 01:36:00,44.5,28.9,30.17,North,354,0.0,0.0,54,0.00,,,0.00,0.00,VWS V14.01,2013-11-11 06:36:00,
2013-11-11 01:37:00,44.3,28.7,30.17,North,354,0.0,0.0,54,0.00,,,0.00,0.00,VWS V14.01,2013-11-11 06:37:00,
2013-11-11 01:38:00,44.9,28.4,30.17,North,354,0.0,2.0,52,0.00,,,0.00,0.00,VWS V14.01,2013-11-11 06:38:00,
2013-11-11 01:39:00,44.1,28.5,30.17,North,354,0.0,0.0,54,0.00,,,0.00,0.00,VWS V14.01,2013-11-11 06:39:00,
2013-11-11 01:40:00,44.1,28.5,30.17,North,354,0.0,0.0,54,0.00,,,0.00,0.00,VWS V14.01,2013-11-11 06:40:00,
2013-11-11 01:41:00,43.9,28.4,30.17,North,354,0.0,0.0,54,0.00,,,0.00,0.00,VWS V14.01,2013-11-11 06:41:00,
2013-11-11 01:42:00,43.9,28.4,30.17,North,354,0.0,0.0,54,0.00,,,0.00,0.00,VWS V14.01,2013-11-11 06:42:00,
2013-11-11 01:43:00,44.3,28.7,30.17,North,354,0.0,0.0,54,0.00,,,0.00,0.00,VWS V14.01,2013-11-11 06:43:00,
2013-11-11 01:44:00,43.6,28.1,30.17,North,354,0.0,0.0,54,0.00,,,0.00,0.00,VWS V14.01,2013-11-11 06:44:00,
2013-11-11 01:45:00,43.6,28.1,30.17,North,354,0.0,0.0,54,0.00,,,0.00,0.00,VWS V14.01,2013-11-11 06:45:00,
2013-11-11 01:46:00,43.5,28.0,30.17,North,354,0.0,0.0,54,0.00,,,0.00,0.00,VWS V14.01,2013-11-11 06:46:00,
2013-11-11 01:47:00,43.5,28.0,30.17,North,354,0.0,0.0,54,0.00,,,0.00,0.00,VWS V14.01,2013-11-11 06:47:00,
2013-11-11 01:48:00,43.9,28.4,30.17,North,354,0.0,0.0,54,0.00,,,0.00,0.00,VWS V14.01,2013-11-11 06:48:00,
2013-11-11 01:49:00,43.3,27.8,30.17,North,354,0.0,0.0,54,0.00,,,0.00,0.00,VWS V14.01,2013-11-11 06:49:00,
2013-11-11 01:50:00,43.3,27.8,30.17,North,354,0.0,0.0,54,0.00,,,0.00,0.00,VWS V14.01,2013-11-11 06:50:00,
2013-11-11 01:51:00,43.2,28.1,30.17,North,354,0.0,0.0,55,0.00,,,0.00,0.00,VWS V14.01,2013-11-11 06:51:00,
2013-11-11 01:52:00,43.1,28.0,30.17,North,354,0.0,0.0,55,0.00,,,0.00,0.00,VWS V14.01,2013-11-11 06:52:00,
2013-11-11 01:53:00,43.5,28.0,30.17,North,354,0.0,0.0,54,0.00,,,0.00,0.00,VWS V14.01,2013-11-11 06:53:00,
2013-11-11 01:54:00,42.9,28.7,30.17,North,354,0.0,0.0,57,0.00,,,0.00,0.00,VWS V14.01,2013-11-11 06:54:00,
2013-11-11 01:55:00,42.9,29.2,30.17,North,354,0.0,0.0,58,0.00,,,0.00,0.00,VWS V14.01,2013-11-11 06:55:00,
2013-11-11 01:56:00,42.8,29.1,30.17,North,354,0.0,0.0,58,0.00,,,0.00,0.00,VWS V14.01,2013-11-11 06:56:00,
2013-11-11 01:57:00,42.8,29.5,30.17,North,354,0.0,0.0,59,0.00,,,0.00,0.00,VWS V14.01,2013-11-11 06:57:00,
2013-11-11 01:58:00,43.2,28.1,30.17,North,354,0.0,0.0,55,0.00,,,0.00,0.00,VWS V14.01,2013-11-11 06:58:00,
2013-11-11 01:59:00,42.5,30.0,30.17,North,354,0.0,3.0,61,0.00,,,0.00,0.00,VWS V14.01,2013-11-11 06:59:00,
2013-11-11 02:00:00,42.5,30.8,30.17,North,354,0.0,0.0,63,0.00,,,0.00,0.00,VWS V14.01,2013-11-11 07:00:00,
2013-11-11 02:01:00,42.3,30.6,30.17,North,354,2.0,2.0,63,0.00,,,0.00,0.00,VWS V14.01,2013-11-11 07:01:00,
2013-11-11 02:02:00,42.3,30.6,30.17,North,354,0.0,2.0,63,0.00,,,0.00,0.00,VWS V14.01,2013-11-11 07:02:00,
2013-11-11 02:03:00,42.8,29.5,30.17,North,354,0.0,0.0,59,0.00,,,0.00,0.00,VWS V14.01,2013-11-11 07:03:00,
2013-11-11 02:04:00,42.2,30.1,30.17,North,354,0.0,0.0,62,0.00,,,0.00,0.00,VWS V14.01,2013-11-11 07:04:00,
2013-11-11 02:05:00,42.1,30.0,30.17,North,354,0.0,0.0,62,0.00,,,0.00,0.00,VWS V14.01,2013-11-11 07:05:00,
2013-11-11 02:06:00,42.1,30.0,30.17,North,354,0.0,0.0,62,0.00,,,0.00,0.00,VWS V14.01,2013-11-11 07:06:00,
2013-11-11 02:07:00,41.9,29.5,30.17,North,354,0.0,0.0,61,0.00,,,0.00,0.00,VWS V14.01,2013-11-11 07:07:00,
2013-11-11 02:08:00,42.3,30.6,30.17,North,354,0.0,2.0,63,0.00,,,0.00,0.00,VWS V14.01,2013-11-11 07:08:00,
2013-11-11 02:09:00,41.9,29.5,30.17,North,354,0.0,0.0,61,0.00,,,0.00,0.00,VWS V14.01,2013-11-11 07:09:00,
2013-11-11 02:10:00,41.8,29.8,30.17,North,354,0.0,0.0,62,0.00,,,0.00,0.00,VWS V14.01,2013-11-11 07:10:00,
2013-11-11 02:11:00,41.8,29.8,30.17,North,354,0.0,0.0,62,0.00,,,0.00,0.00,VWS V14.01,2013-11-11 07:11:00,
2013-11-11 02:12:00,41.8,29.8,30.17,North,354,0.0,0.0,62,0.00,,,0.00,0.00,VWS V14.01,2013-11-11 07:12:00,
2013-11-11 02:13:00,41.9,29.5,30.17,North,354,0.0,0.0,61,0.00,,,0.00,0.00,VWS V14.01,2013-11-11 07:13:00,
2013-11-11 02:14:00,41.6,30.3,30.17,North,354,0.0,0.0,64,0.00,,,0.00,0.00,VWS V14.01,2013-11-11 07:14:00,
2013-11-11 02:15:00,41.5,30.2,30.18,North,354,0.0,0.0,64,0.00,,,0.00,0.00,VWS V14.01,2013-11-11 07:15:00,
2013-11-11 02:16:00,41.5,30.2,30.18,North,354,0.0,0.0,64,0.00,,,0.00,0.00,VWS V14.01,2013-11-11 07:16:00,
2013-11-11 02:17:00,41.5,30.6,30.18,North,354,0.0,0.0,65,0.00,,,0.00,0.00,VWS V14.01,2013-11-11 07:17:00,
2013-11-11 02:18:00,41.8,29.8,30.17,North,354,0.0,0.0,62,0.00,,,0.00,0.00,VWS V14.01,2013-11-11 07:18:00,
2013-11-11 02:19:00,41.3,30.8,30.18,North,354,0.0,0.0,66,0.00,,,0.00,0.00,VWS V14.01,2013-11-11 07:19:00,
2013-11-11 02:20:00,41.2,31.1,30.18,North,354,0.0,0.0,67,0.00,,,0.00,0.00,VWS V14.01,2013-11-11 07:20:00,
2013-11-11 02:21:00,41.2,31.1,30.18,North,354,0.0,0.0,67,0.00,,,0.00,0.00,VWS V14.01,2013-11-11 07:21:00,
2013-11-11 02:22:00,41.1,31.4,30.18,North,354,0.0,0.0,68,0.00,,,0.00,0.00,VWS V14.01,2013-11-11 07:22:00,
2013-11-11 02:23:00,41.5,30.6,30.18,North,354,0.0,0.0,65,0.00,,,0.00,0.00,VWS V14.01,2013-11-11 07:23:00,
2013-11-11 02:24:00,40.9,31.2,30.18,North,354,0.0,0.0,68,0.00,,,0.00,0.00,VWS V14.01,2013-11-11 07:24:00,
2013-11-11 02:25:00,40.9,31.2,30.18,North,354,0.0,0.0,68,0.00,,,0.00,0.00,VWS V14.01,2013-11-11 07:25:00,
2013-11-11 02:26:00,40.8,31.1,30.18,North,354,0.0,0.0,68,0.00,,,0.00,0.00,VWS V14.01,2013-11-11 07:26:00,
2013-11-11 02:27:00,40.8,31.1,30.18,North,354,0.0,0.0,68,0.00,,,0.00,0.00,VWS V14.01,2013-11-11 07:27:00,
2013-11-11 02:28:00,41.2,31.1,30.18,North,354,0.0,0.0,67,0.00,,,0.00,0.00,VWS V14.01,2013-11-11 07:28:00,
2013-11-11 02:29:00,40.5,30.8,30.18,North,354,0.0,0.0,68,0.00,,,0.00,0.00,VWS V14.01,2013-11-11 07:29:00,
2013-11-11 02:30:00,40.5,31.1,30.18,North,354,0.0,0.0,69,0.00,,,0.00,0.00,VWS V14.01,2013-11-11 07:30:00,
2013-11-11 02:31:00,40.3,31.0,30.18,North,354,0.0,0.0,69,0.00,,,0.00,0.00,VWS V14.01,2013-11-11 07:31:00,
2013-11-11 02:32:00,40.3,31.3,30.18,North,354,0.0,0.0,70,0.00,,,0.00,0.00,VWS V14.01,2013-11-11 07:32:00,
2013-11-11 02:33:00,40.8,31.1,30.18,North,354,0.0,0.0,68,0.00,,,0.00,0.00,VWS V14.01,2013-11-11 07:33:00,
2013-11-11 02:34:00,40.2,31.2,30.18,North,354,0.0,0.0,70,0.00,,,0.00,0.00,VWS V14.01,2013-11-11 07:34:00,
2013-11-11 02:35:00,40.1,31.1,30.18,North,354,0.0,0.0,70,0.00,,,0.00,0.00,VWS V14.01,2013-11-11 07:35:00,
2013-11-11 02:36:00,40.1,31.5,30.18,North,354,0.0,0.0,71,0.00,,,0.00,0.00,VWS V14.01,2013-11-11 07:36:00,
2013-11-11 02:37:00,40.1,31.5,30.18,North,354,0.0,0.0,71,0.00,,,0.00,0.00,VWS V14.01,2013-11-11 07:37:00,
2013-11-11 02:38:00,40.3,31.3,30.18,North,354,0.0,0.0,70,0.00,,,0.00,0.00,VWS V14.01,2013-11-11 07:38:00,
2013-11-11 02:39:00,39.8,31.2,30.18,North,354,0.0,0.0,71,0.00,,,0.00,0.00,VWS V14.01,2013-11-11 07:39:00,
2013-11-11 02:40:00,39.6,31.0,30.18,North,354,0.0,0.0,71,0.00,,,0.00,0.00,VWS V14.01,2013-11-11 07:40:00,
2013-11-11 02:41:00,39.5,30.9,30.18,North,354,2.0,2.0,71,0.00,,,0.00,0.00,VWS V14.01,2013-11-11 07:41:00,
2013-11-11 02:42:00,39.5,30.9,30.18,North,354,1.0,2.0,71,0.00,,,0.00,0.00,VWS V14.01,2013-11-11 07:42:00,
2013-11-11 02:43:00,40.1,31.5,30.18,North,354,0.0,0.0,71,0.00,,,0.00,0.00,VWS V14.01,2013-11-11 07:43:00,
2013-11-11 02:44:00,39.3,31.0,30.18,North,354,0.0,0.0,72,0.00,,,0.00,0.00,VWS V14.01,2013-11-11 07:44:00,
2013-11-11 02:45:00,39.2,31.0,30.19,North,354,0.0,0.0,72,0.00,,,0.00,0.00,VWS V14.01,2013-11-11 07:45:00,
2013-11-11 02:46:00,39.2,31.3,30.19,North,354,0.0,0.0,73,0.00,,,0.00,0.00,VWS V14.01,2013-11-11 07:46:00,
2013-11-11 02:47:00,39.2,31.3,30.19,North,354,0.0,0.0,73,0.00,,,0.00,0.00,VWS V14.01,2013-11-11 07:47:00,
2013-11-11 02:48:00,39.5,30.9,30.18,North,354,2.0,2.0,71,0.00,,,0.00,0.00,VWS V14.01,2013-11-11 07:48:00,
2013-11-11 02:49:00,39.1,31.2,30.19,North,354,0.0,0.0,73,0.00,,,0.00,0.00,VWS V14.01,2013-11-11 07:49:00,
2013-11-11 02:50:00,39.1,31.2,30.19,North,354,0.0,0.0,73,0.00,,,0.00,0.00,VWS V14.01,2013-11-11 07:50:00,
2013-11-11 02:51:00,38.9,31.3,30.19,North,354,0.0,0.0,74,0.00,,,0.00,0.00,VWS V14.01,2013-11-11 07:51:00,
2013-11-11 02:52:00,38.9,31.3,30.19,North,354,0.0,0.0,74,0.00,,,0.00,0.00,VWS V14.01,2013-11-11 07:52:00,
2013-11-11 02:53:00,39.2,31.3,30.19,North,354,0.0,0.0,73,0.00,,,0.00,0.00,VWS V14.01,2013-11-11 07:53:00,
2013-11-11 02:54:00,38.8,31.2,30.19,North,354,0.0,0.0,74,0.00,,,0.00,0.00,VWS V14.01,2013-11-11 07:54:00,
2013-11-11 02:55:00,38.8,31.2,30.19,North,354,0.0,0.0,74,0.00,,,0.00,0.00,VWS V14.01,2013-11-11 07:55:00,
2013-11-11 02:56:00,38.8,31.2,30.19,North,354,0.0,0.0,74,0.00,,,0.00,0.00,VWS V14.01,2013-11-11 07:56:00,
2013-11-11 02:57:00,38.6,31.0,30.19,North,354,0.0,0.0,74,0.00,,,0.00,0.00,VWS V14.01,2013-11-11 07:57:00,
2013-11-11 02:58:00,38.9,31.3,30.19,North,354,0.0,0.0,74,0.00,,,0.00,0.00,VWS V14.01,2013-11-11 07:58:00,
2013-11-11 02:59:00,38.5,30.6,30.19,North,354,0.0,0.0,73,0.00,,,0.00,0.00,VWS V14.01,2013-11-11 07:59:00,
2013-11-11 03:00:00,38.5,30.6,30.19,North,354,0.0,0.0,73,0.00,,,0.00,0.00,VWS V14.01,2013-11-11 08:00:00,
2013-11-11 03:01:00,38.3,30.4,30.19,North,354,0.0,0.0,73,0.00,,,0.00,0.00,VWS V14.01,2013-11-11 08:01:00,
2013-11-11 03:02:00,38.3,30.4,30.19,North,354,0.0,0.0,73,0.00,,,0.00,0.00,VWS V14.01,2013-11-11 08:02:00,
2013-11-11 03:03:00,38.6,31.0,30.19,North,354,0.0,0.0,74,0.00,,,0.00,0.00,VWS V14.01,2013-11-11 08:03:00,
2013-11-11 03:04:00,38.2,30.3,30.19,North,354,0.0,0.0,73,0.00,,,0.00,0.00,VWS V14.01,2013-11-11 08:04:00,
2013-11-11 03:05:00,38.0,30.1,30.19,North,354,0.0,0.0,73,0.00,,,0.00,0.00,VWS V14.01,2013-11-11 08:05:00,
2013-11-11 03:06:00,38.0,30.1,30.19,North,354,0.0,0.0,73,0.00,,,0.00,0.00,VWS V14.01,2013-11-11 08:06:00,
2013-11-11 03:07:00,38.0,30.1,30.19,North,354,0.0,0.0,73,0.00,,,0.00,0.00,VWS V14.01,2013-11-11 08:07:00,
2013-11-11 03:08:00,38.3,30.4,30.19,North,354,0.0,0.0,73,0.00,,,0.00,0.00,VWS V14.01,2013-11-11 08:08:00,
2013-11-11 03:09:00,37.9,30.0,30.19,North,354,0.0,0.0,73,0.00,,,0.00,0.00,VWS V14.01,2013-11-11 08:09:00,
2013-11-11 03:10:00,37.8,29.9,30.19,North,354,0.0,0.0,73,0.00,,,0.00,0.00,VWS V14.01,2013-11-11 08:10:00,
2013-11-11 03:11:00,37.6,29.7,30.19,North,354,0.0,0.0,73,0.00,,,0.00,0.00,VWS V14.01,2013-11-11 08:11:00,
2013-11-11 03:12:00,37.6,29.7,30.19,North,354,0.0,0.0,73,0.00,,,0.00,0.00,VWS V14.01,2013-11-11 08:12:00,
2013-11-11 03:13:00,38.0,30.1,30.19,North,354,0.0,0.0,73,0.00,,,0.00,0.00,VWS V14.01,2013-11-11 08:13:00,
2013-11-11 03:14:00,37.5,29.6,30.19,North,354,0.0,0.0,73,0.00,,,0.00,0.00,VWS V14.01,2013-11-11 08:14:00,
2013-11-11 03:15:00,37.3,29.5,30.19,North,354,0.0,0.0,73,0.00,,,0.00,0.00,VWS V14.01,2013-11-11 08:15:00,
2013-11-11 03:16:00,37.3,29.5,30.19,North,354,0.0,0.0,73,0.00,,,0.00,0.00,VWS V14.01,2013-11-11 08:16:00,
2013-11-11 03:17:00,37.2,29.4,30.19,North,354,0.0,0.0,73,0.00,,,0.00,0.00,VWS V14.01,2013-11-11 08:17:00,
2013-11-11 03:18:00,37.6,29.7,30.19,North,354,0.0,0.0,73,0.00,,,0.00,0.00,VWS V14.01,2013-11-11 08:18:00,
2013-11-11 03:19:00,37.0,29.5,30.19,North,354,0.0,0.0,74,0.00,,,0.00,0.00,VWS V14.01,2013-11-11 08:19:00,
2013-11-11 03:20:00,37.0,29.5,30.19,North,354,0.0,0.0,74,0.00,,,0.00,0.00,VWS V14.01,2013-11-11 08:20:00,
2013-11-11 03:21:00,36.9,29.4,30.19,North,354,0.0,0.0,74,0.00,,,0.00,0.00,VWS V14.01,2013-11-11 08:21:00,
2013-11-11 03:22:00,36.9,29.4,30.19,North,354,0.0,0.0,74,0.00,,,0.00,0.00,VWS V14.01,2013-11-11 08:22:00,
2013-11-11 03:23:00,37.2,29.4,30.19,North,354,0.0,0.0,73,0.00,,,0.00,0.00,VWS V14.01,2013-11-11 08:23:00,
2013-11-11 03:24:00,36.8,29.6,30.19,North,354,0.0,0.0,75,0.00,,,0.00,0.00,VWS V14.01,2013-11-11 08:24:00,
2013-11-11 03:25:00,36.8,29.6,30.19,North,354,0.0,0.0,75,0.00,,,0.00,0.00,VWS V14.01,2013-11-11 08:25:00,
2013-11-11 03:26:00,36.6,29.4,30.19,North,354,0.0,0.0,75,0.00,,,0.00,0.00,VWS V14.01,2013-11-11 08:26:00,
2013-11-11 03:27:00,36.6,29.4,30.19,North,354,0.0,0.0,75,0.00,,,0.00,0.00,VWS V14.01,2013-11-11 08:27:00,
2013-11-11 03:28:00,36.9,29.4,30.19,North,354,0.0,0.0,74,0.00,,,0.00,0.00,VWS V14.01,2013-11-11 08:28:00,
2013-11-11 03:29:00,36.5,29.3,30.19,North,354,0.0,0.0,75,0.00,,,0.00,0.00,VWS V14.01,2013-11-11 08:29:00,
2013-11-11 03:30:00,36.5,29.3,30.20,North,354,0.0,0.0,75,0.00,,,0.00,0.00,VWS V14.01,2013-11-11 08:30:00,
2013-11-11 03:31:00,36.3,29.1,30.20,North,354,0.0,0.0,75,0.00,,,0.00,0.00,VWS V14.01,2013-11-11 08:31:00,
2013-11-11 03:32:00,36.6,29.4,30.19,North,354,0.0,0.0,75,0.00,,,0.00,0.00,VWS V14.01,2013-11-11 08:32:00,
2013-11-11 03:33:00,36.3,29.1,30.20,North,354,0.0,0.0,75,0.00,,,0.00,0.00,VWS V14.01,2013-11-11 08:33:00,
2013-11-11 03:34:00,36.2,29.0,30.20,North,354,0.0,0.0,75,0.00,,,0.00,0.00,VWS V14.01,2013-11-11 08:34:00,
2013-11-11 03:35:00,36.2,29.0,30.20,North,354,0.0,0.0,75,0.00,,,0.00,0.00,VWS V14.01,2013-11-11 08:35:00,
2013-11-11 03:36:00,36.0,28.9,30.20,North,354,0.0,0.0,75,0.00,,,0.00,0.00,VWS V14.01,2013-11-11 08:36:00,
2013-11-11 03:37:00,36.3,29.1,30.19,North,354,0.0,0.0,75,0.00,,,0.00,0.00,VWS V14.01,2013-11-11 08:37:00,
2013-11-11 03:38:00,36.0,29.2,30.20,North,354,0.0,0.0,76,0.00,,,0.00,0.00,VWS V14.01,2013-11-11 08:38:00,
2013-11-11 03:39:00,35.9,29.1,30.20,North,354,0.0,0.0,76,0.00,,,0.00,0.00,VWS V14.01,2013-11-11 08:39:00,
2013-11-11 03:40:00,35.9,29.1,30.20,North,354,0.0,0.0,76,0.00,,,0.00,0.00,VWS V14.01,2013-11-11 08:40:00,
2013-11-11 03:41:00,35.8,29.0,30.20,North,354,0.0,0.0,76,0.00,,,0.00,0.00,VWS V14.01,2013-11-11 08:41:00,
2013-11-11 03:42:00,36.0,28.9,30.19,North,354,0.0,0.0,75,0.00,,,0.00,0.00,VWS V14.01,2013-11-11 08:42:00,
2013-11-11 03:43:00,35.8,29.3,30.20,North,354,0.0,0.0,77,0.00,,,0.00,0.00,VWS V14.01,2013-11-11 08:43:00,
2013-11-11 03:44:00,35.8,29.3,30.20,North,354,0.0,0.0,77,0.00,,,0.00,0.00,VWS V14.01,2013-11-11 08:44:00,
2013-11-11 03:45:00,35.6,29.1,30.19,North,354,0.0,0.0,77,0.00,,,0.00,0.00,VWS V14.01,2013-11-11 08:45:00,
2013-11-11 03:46:00,35.6,29.1,30.19,North,354,0.0,0.0,77,0.00,,,0.00,0.00,VWS V14.01,2013-11-11 08:46:00,
2013-11-11 03:47:00,35.8,29.0,30.19,North,354,0.0,0.0,76,0.00,,,0.00,0.00,VWS V14.01,2013-11-11 08:47:00,
2013-11-11 03:48:00,35.6,29.1,30.19,North,354,0.0,0.0,77,0.00,,,0.00,0.00,VWS V14.01,2013-11-11 08:48:00,
2013-11-11 03:49:00,35.5,29.0,30.19,North,354,0.0,0.0,77,0.00,,,0.00,0.00,VWS V14.01,2013-11-11 08:49:00,
2013-11-11 03:50:00,35.5,29.0,30.19,North,354,0.0,0.0,77,0.00,,,0.00,0.00,VWS V14.01,2013-11-11 08:50:00,
2013-11-11 03:51:00,35.5,29.0,30.19,North,354,0.0,0.0,77,0.00,,,0.00,0.00,VWS V14.01,2013-11-11 08:51:00,
2013-11-11 03:52:00,35.6,29.1,30.19,North,354,0.0,0.0,77,0.00,,,0.00,0.00,VWS V14.01,2013-11-11 08:52:00,
2013-11-11 03:53:00,35.3,29.1,30.19,North,354,0.0,0.0,78,0.00,,,0.00,0.00,VWS V14.01,2013-11-11 08:53:00,
2013-11-11 03:54:00,35.3,29.1,30.19,North,354,0.0,0.0,78,0.00,,,0.00,0.00,VWS V14.01,2013-11-11 08:54:00,
2013-11-11 03:55:00,35.3,29.1,30.19,North,354,0.0,0.0,78,0.00,,,0.00,0.00,VWS V14.01,2013-11-11 08:55:00,
2013-11-11 03:56:00,35.3,29.1,30.19,North,354,0.0,0.0,78,0.00,,,0.00,0.00,VWS V14.01,2013-11-11 08:56:00,
2013-11-11 03:57:00,35.5,29.3,30.19,North,354,0.0,0.0,78,0.00,,,0.00,0.00,VWS V14.01,2013-11-11 08:57:00,
2013-11-11 03:58:00,35.2,29.0,30.19,North,354,0.0,0.0,78,0.00,,,0.00,0.00,VWS V14.01,2013-11-11 08:58:00,
2013-11-11 03:59:00,35.2,29.0,30.19,North,354,0.0,0.0,78,0.00,,,0.00,0.00,VWS V14.01,2013-11-11 08:59:00,
2013-11-11 04:00:00,35.0,28.9,30.20,North,354,0.0,0.0,78,0.00,,,0.00,0.00,VWS V14.01,2013-11-11 09:00:00,
2013-11-11 04:01:00,35.0,28.9,30.20,North,354,0.0,0.0,78,0.00,,,0.00,0.00,VWS V14.01,2013-11-11 09:01:00,
2013-11-11 04:02:00,35.2,29.0,30.19,North,354,0.0,0.0,78,0.00,,,0.00,0.00,VWS V14.01,2013-11-11 09:02:00,
2013-11-11 04:03:00,35.0,29.2,30.20,North,354,0.0,0.0,79,0.00,,,0.00,0.00,VWS V14.01,2013-11-11 09:03:00,
2013-11-11 04:04:00,35.0,29.2,30.20,North,354,0.0,0.0,79,0.00,,,0.00,0.00,VWS V14.01,2013-11-11 09:04:00,
2013-11-11 04:05:00,34.9,29.1,30.20,North,354,0.0,0.0,79,0.00,,,0.00,0.00,VWS V14.01,2013-11-11 09:05:00,
2013-11-11 04:06:00,34.9,29.4,30.20,North,354,0.0,0.0,80,0.00,,,0.00,0.00,VWS V14.01,2013-11-11 09:06:00,
2013-11-11 04:07:00,35.0,28.9,30.20,North,354,0.0,0.0,78,0.00,,,0.00,0.00,VWS V14.01,2013-11-11 09:07:00,
2013-11-11 04:08:00,34.9,29.4,30.20,North,354,0.0,0.0,80,0.00,,,0.00,0.00,VWS V14.01,2013-11-11 09:08:00,
2013-11-11 04:09:00,34.9,29.4,30.20,North,354,0.0,0.0,80,0.00,,,0.00,0.00,VWS V14.01,2013-11-11 09:09:00,
2013-11-11 04:10:00,34.7,29.2,30.20,North,354,0.0,0.0,80,0.00,,,0.00,0.00,VWS V14.01,2013-11-11 09:10:00,
2013-11-11 04:11:00,34.7,29.2,30.20,North,354,0.0,0.0,80,0.00,,,0.00,0.00,VWS V14.01,2013-11-11 09:11:00,
2013-11-11 04:12:00,34.9,29.4,30.20,North,354,0.0,0.0,80,0.00,,,0.00,0.00,VWS V14.01,2013-11-11 09:12:00,
2013-11-11 04:13:00,34.7,29.2,30.20,North,354,0.0,0.0,80,0.00,,,0.00,0.00,VWS V14.01,2013-11-11 09:13:00,
2013-11-11 04:14:00,34.6,29.1,30.20,North,354,0.0,0.0,80,0.00,,,0.00,0.00,VWS V14.01,2013-11-11 09:14:00,
2013-11-11 04:15:00,34.6,29.1,30.20,North,354,0.0,0.0,80,0.00,,,0.00,0.00,VWS V14.01,2013-11-11 09:15:00,
2013-11-11 04:16:00,34.6,29.1,30.20,North,354,0.0,0.0,80,0.00,,,0.00,0.00,VWS V14.01,2013-11-11 09:16:00,
2013-11-11 04:17:00,34.7,29.2,30.20,North,354,0.0,0.0,80,0.00,,,0.00,0.00,VWS V14.01,2013-11-11 09:17:00,
2013-11-11 04:18:00,34.4,28.9,30.20,North,354,0.0,0.0,80,0.00,,,0.00,0.00,VWS V14.01,2013-11-11 09:18:00,
2013-11-11 04:19:00,34.4,28.9,30.20,North,354,0.0,0.0,80,0.00,,,0.00,0.00,VWS V14.01,2013-11-11 09:19:00,
2013-11-11 04:20:00,34.4,28.9,30.20,North,354,0.0,0.0,80,0.00,,,0.00,0.00,VWS V14.01,2013-11-11 09:20:00,
2013-11-11 04:21:00,34.3,28.8,30.20,North,354,0.0,0.0,80,0.00,,,0.00,0.00,VWS V14.01,2013-11-11 09:21:00,
2013-11-11 04:22:00,34.6,29.1,30.20,North,354,0.0,0.0,80,0.00,,,0.00,0.00,VWS V14.01,2013-11-11 09:22:00,
2013-11-11 04:23:00,34.3,28.8,30.20,North,354,0.0,0.0,80,0.00,,,0.00,0.00,VWS V14.01,2013-11-11 09:23:00,
2013-11-11 04:24:00,34.1,28.6,30.20,North,354,0.0,0.0,80,0.00,,,0.00,0.00,VWS V14.01,2013-11-11 09:24:00,
2013-11-11 04:25:00,34.1,28.6,30.20,North,354,0.0,0.0,80,0.00,,,0.00,0.00,VWS V14.01,2013-11-11 09:25:00,
2013-11-11 04:26:00,34.1,28.6,30.20,North,354,0.0,0.0,80,0.00,,,0.00,0.00,VWS V14.01,2013-11-11 09:26:00,
2013-11-11 04:27:00,34.3,28.8,30.20,North,354,0.0,0.0,80,0.00,,,0.00,0.00,VWS V14.01,2013-11-11 09:27:00,
2013-11-11 04:28:00,34.0,28.5,30.20,North,354,0.0,0.0,80,0.00,,,0.00,0.00,VWS V14.01,2013-11-11 09:28:00,
2013-11-11 04:29:00,34.0,28.5,30.20,North,354,0.0,0.0,80,0.00,,,0.00,0.00,VWS V14.01,2013-11-11 09:29:00,
2013-11-11 04:30:00,34.0,28.5,30.21,North,354,0.0,0.0,80,0.00,,,0.00,0.00,VWS V14.01,2013-11-11 09:30:00,
2013-11-11 04:31:00,34.0,28.5,30.21,North,354,0.0,0.0,80,0.00,,,0.00,0.00,VWS V14.01,2013-11-11 09:31:00,
2013-11-11 04:32:00,34.1,28.6,30.20,North,354,0.0,0.0,80,0.00,,,0.00,0.00,VWS V14.01,2013-11-11 09:32:00,
2013-11-11 04:33:00,33.8,28.3,30.21,North,354,0.0,0.0,80,0.00,,,0.00,0.00,VWS V14.01,2013-11-11 09:33:00,
2013-11-11 04:34:00,33.8,28.6,30.21,North,354,0.0,0.0,81,0.00,,,0.00,0.00,VWS V14.01,2013-11-11 09:34:00,
2013-11-11 04:35:00,33.7,28.5,30.21,North,354,0.0,0.0,81,0.00,,,0.00,0.00,VWS V14.01,2013-11-11 09:35:00,
2013-11-11 04:36:00,33.7,28.5,30.21,North,354,0.0,0.0,81,0.00,,,0.00,0.00,VWS V14.01,2013-11-11 09:36:00,
2013-11-11 04:37:00,33.8,28.3,30.21,North,354,0.0,0.0,80,0.00,,,0.00,0.00,VWS V14.01,2013-11-11 09:37:00,
2013-11-11 04:38:00,33.7,28.5,30.21,North,354,0.0,0.0,81,0.00,,,0.00,0.00,VWS V14.01,2013-11-11 09:38:00,
2013-11-11 04:39:00,33.7,28.5,30.21,North,354,0.0,0.0,81,0.00,,,0.00,0.00,VWS V14.01,2013-11-11 09:39:00,
2013-11-11 04:40:00,33.7,28.8,30.21,North,354,0.0,0.0,82,0.00,,,0.00,0.00,VWS V14.01,2013-11-11 09:40:00,
2013-11-11 04:41:00,33.7,28.8,30.21,North,354,0.0,0.0,82,0.00,,,0.00,0.00,VWS V14.01,2013-11-11 09:41:00,
2013-11-11 04:42:00,33.7,28.5,30.21,North,354,0.0,0.0,81,0.00,,,0.00,0.00,VWS V14.01,2013-11-11 09:42:00,
2013-11-11 04:43:00,33.7,29.1,30.21,North,354,0.0,0.0,83,0.00,,,0.00,0.00,VWS V14.01,2013-11-11 09:43:00,
2013-11-11 04:44:00,33.7,29.1,30.21,North,354,0.0,0.0,83,0.00,,,0.00,0.00,VWS V14.01,2013-11-11 09:44:00,
2013-11-11 04:45:00,33.5,28.9,30.21,North,354,0.0,0.0,83,0.00,,,0.00,0.00,VWS V14.01,2013-11-11 09:45:00,
2013-11-11 04:46:00,33.5,28.9,30.21,North,354,0.0,0.0,83,0.00,,,0.00,0.00,VWS V14.01,2013-11-11 09:46:00,
2013-11-11 04:47:00,33.7,28.8,30.21,North,354,0.0,0.0,82,0.00,,,0.00,0.00,VWS V14.01,2013-11-11 09:47:00,
2013-11-11 04:48:00,33.5,28.9,30.21,North,354,0.0,0.0,83,0.00,,,0.00,0.00,VWS V14.01,2013-11-11 09:48:00,
2013-11-11 04:49:00,33.5,28.9,30.21,North,354,0.0,0.0,83,0.00,,,0.00,0.00,VWS V14.01,2013-11-11 09:49:00,
2013-11-11 04:50:00,33.5,28.9,30.21,North,354,0.0,0.0,83,0.00,,,0.00,0.00,VWS V14.01,2013-11-11 09:50:00,
2013-11-11 04:51:00,33.5,29.2,30.21,North,354,0.0,0.0,84,0.00,,,0.00,0.00,VWS V14.01,2013-11-11 09:51:00,
2013-11-11 04:52:00,33.5,28.9,30.21,North,354,0.0,0.0,83,0.00,,,0.00,0.00,VWS V14.01,2013-11-11 09:52:00,
2013-11-11 04:53:00,33.5,29.2,30.21,North,354,0.0,0.0,84,0.00,,,0.00,0.00,VWS V14.01,2013-11-11 09:53:00,
2013-11-11 04:54:00,33.5,29.2,30.21,North,354,0.0,0.0,84,0.00,,,0.00,0.00,VWS V14.01,2013-11-11 09:54:00,
2013-11-11 04:55:00,33.5,29.2,30.21,North,354,0.0,0.0,84,0.00,,,0.00,0.00,VWS V14.01,2013-11-11 09:55:00,
2013-11-11 04:56:00,33.4,29.1,30.21,North,354,0.0,0.0,84,0.00,,,0.00,0.00,VWS V14.01,2013-11-11 09:56:00,
2013-11-11 04:57:00,33.5,29.2,30.21,North,354,0.0,0.0,84,0.00,,,0.00,0.00,VWS V14.01,2013-11-11 09:57:00,
2013-11-11 04:58:00,33.4,29.4,30.21,North,354,0.0,0.0,85,0.00,,,0.00,0.00,VWS V14.01,2013-11-11 09:58:00,
2013-11-11 04:59:00,33.4,29.4,30.21,North,354,0.0,0.0,85,0.00,,,0.00,0.00,VWS V14.01,2013-11-11 09:59:00,
2013-11-11 05:00:00,33.4,29.4,30.22,North,354,0.0,0.0,85,0.00,,,0.00,0.00,VWS V14.01,2013-11-11 10:00:00,
2013-11-11 05:01:00,33.4,29.4,30.22,North,354,0.0,0.0,85,0.00,,,0.00,0.00,VWS V14.01,2013-11-11 10:01:00,
2013-11-11 05:02:00,33.4,29.1,30.21,North,354,0.0,0.0,84,0.00,,,0.00,0.00,VWS V14.01,2013-11-11 10:02:00,
2013-11-11 05:03:00,33.4,29.4,30.22,North,354,0.0,0.0,85,0.00,,,0.00,0.00,VWS V14.01,2013-11-11 10:03:00,
2013-11-11 05:04:00,33.4,29.4,30.22,North,354,0.0,0.0,85,0.00,,,0.00,0.00,VWS V14.01,2013-11-11 10:04:00,
2013-11-11 05:05:00,33.4,29.4,30.22,North,354,0.0,0.0,85,0.00,,,0.00,0.00,VWS V14.01,2013-11-11 10:05:00,
2013-11-11 05:06:00,33.4,29.4,30.22,North,354,0.0,0.0,85,0.00,,,0.00,0.00,VWS V14.01,2013-11-11 10:06:00,
2013-11-11 05:07:00,33.4,29.4,30.22,North,354,0.0,0.0,85,0.00,,,0.00,0.00,VWS V14.01,2013-11-11 10:07:00,
2013-11-11 05:08:00,33.4,29.7,30.22,North,354,0.0,0.0,86,0.00,,,0.00,0.00,VWS V14.01,2013-11-11 10:08:00,
2013-11-11 05:09:00,33.4,29.7,30.22,North,354,0.0,0.0,86,0.00,,,0.00,0.00,VWS V14.01,2013-11-11 10:09:00,
2013-11-11 05:10:00,33.4,29.7,30.22,North,354,0.0,0.0,86,0.00,,,0.00,0.00,VWS V14.01,2013-11-11 10:10:00,
2013-11-11 05:11:00,33.2,29.5,30.22,North,354,0.0,0.0,86,0.00,,,0.00,0.00,VWS V14.01,2013-11-11 10:11:00,
2013-11-11 05:12:00,33.4,29.4,30.22,North,354,0.0,0.0,85,0.00,,,0.00,0.00,VWS V14.01,2013-11-11 10:12:00,
2013-11-11 05:13:00,33.2,29.5,30.22,North,354,0.0,0.0,86,0.00,,,0.00,0.00,VWS V14.01,2013-11-11 10:13:00,
2013-11-11 05:14:00,33.2,29.5,30.22,North,354,0.0,0.0,86,0.00,,,0.00,0.00,VWS V14.01,2013-11-11 10:14:00,
2013-11-11 05:15:00,33.2,29.5,30.22,North,354,0.0,0.0,86,0.00,,,0.00,0.00,VWS V14.01,2013-11-11 10:15:00,
2013-11-11 05:16:00,33.1,29.4,30.22,North,354,0.0,0.0,86,0.00,,,0.00,0.00,VWS V14.01,2013-11-11 10:16:00,
2013-11-11 05:17:00,33.2,29.5,30.22,North,354,0.0,0.0,86,0.00,,,0.00,0.00,VWS V14.01,2013-11-11 10:17:00,
2013-11-11 05:18:00,33.1,29.4,30.22,North,354,0.0,0.0,86,0.00,,,0.00,0.00,VWS V14.01,2013-11-11 10:18:00,
2013-11-11 05:19:00,33.1,29.4,30.22,North,354,0.0,0.0,86,0.00,,,0.00,0.00,VWS V14.01,2013-11-11 10:19:00,
2013-11-11 05:20:00,33.1,29.4,30.22,North,354,0.0,0.0,86,0.00,,,0.00,0.00,VWS V14.01,2013-11-11 10:20:00,
2013-11-11 05:21:00,32.9,29.2,30.22,North,354,0.0,0.0,86,0.00,,,0.00,0.00,VWS V14.01,2013-11-11 10:21:00,
2013-11-11 05:22:00,33.1,29.4,30.22,North,354,0.0,0.0,86,0.00,,,0.00,0.00,VWS V14.01,2013-11-11 10:22:00,
2013-11-11 05:23:00,32.9,29.2,30.22,North,354,0.0,0.0,86,0.00,,,0.00,0.00,VWS V14.01,2013-11-11 10:23:00,
2013-11-11 05:24:00,32.8,29.1,30.22,North,354,0.0,0.0,86,0.00,,,0.00,0.00,VWS V14.01,2013-11-11 10:24:00,
2013-11-11 05:25:00,32.8,29.1,30.22,North,354,0.0,0.0,86,0.00,,,0.00,0.00,VWS V14.01,2013-11-11 10:25:00,
2013-11-11 05:26:00,32.8,29.1,30.22,North,354,0.0,0.0,86,0.00,,,0.00,0.00,VWS V14.01,2013-11-11 10:26:00,
2013-11-11 05:27:00,32.9,29.2,30.22,North,354,0.0,0.0,86,0.00,,,0.00,0.00,VWS V14.01,2013-11-11 10:27:00,
2013-11-11 05:28:00,32.7,29.0,30.22,North,354,0.0,0.0,86,0.00,,,0.00,0.00,VWS V14.01,2013-11-11 10:28:00,
2013-11-11 05:29:00,32.7,29.0,30.22,North,354,0.0,0.0,86,0.00,,,0.00,0.00,VWS V14.01,2013-11-11 10:29:00,
2013-11-11 05:30:00,32.5,28.8,30.22,North,354,0.0,0.0,86,0.00,,,0.00,0.00,VWS V14.01,2013-11-11 10:30:00,
2013-11-11 05:31:00,32.5,28.8,30.22,North,354,0.0,0.0,86,0.00,,,0.00,0.00,VWS V14.01,2013-11-11 10:31:00,
2013-11-11 05:32:00,32.8,29.1,30.22,North,354,0.0,0.0,86,0.00,,,0.00,0.00,VWS V14.01,2013-11-11 10:32:00,
2013-11-11 05:33:00,32.5,28.8,30.22,North,354,0.0,0.0,86,0.00,,,0.00,0.00,VWS V14.01,2013-11-11 10:33:00,
2013-11-11 05:34:00,32.4,28.4,30.22,North,354,0.0,0.0,85,0.00,,,0.00,0.00,VWS V14.01,2013-11-11 10:34:00,
2013-11-11 05:35:00,32.4,28.4,30.22,North,354,0.0,0.0,85,0.00,,,0.00,0.00,VWS V14.01,2013-11-11 10:35:00,
2013-11-11 05:36:00,32.4,28.7,30.22,North,354,0.0,0.0,86,0.00,,,0.00,0.00,VWS V14.01,2013-11-11 10:36:00,
2013-11-11 05:37:00,32.5,28.8,30.22,North,354,0.0,0.0,86,0.00,,,0.00,0.00,VWS V14.01,2013-11-11 10:37:00,
2013-11-11 05:38:00,32.2,28.5,30.22,North,354,0.0,0.0,86,0.00,,,0.00,0.00,VWS V14.01,2013-11-11 10:38:00,
2013-11-11 05:39:00,32.2,28.2,30.22,North,354,0.0,0.0,85,0.00,,,0.00,0.00,VWS V14.01,2013-11-11 10:39:00,
2013-11-11 05:40:00,32.1,28.1,30.22,North,354,0.0,0.0,85,0.00,,,0.00,0.00,VWS V14.01,2013-11-11 10:40:00,
2013-11-11 05:41:00,32.1,28.1,30.22,North,354,0.0,0.0,85,0.00,,,0.00,0.00,VWS V14.01,2013-11-11 10:41:00,
2013-11-11 05:42:00,32.2,28.2,30.22,North,354,0.0,0.0,85,0.00,,,0.00,0.00,VWS V14.01,2013-11-11 10:42:00,
2013-11-11 05:43:00,31.9,28.2,30.22,North,354,0.0,0.0,86,0.00,,,0.00,0.00,VWS V14.01,2013-11-11 10:43:00,
2013-11-11 05:44:00,31.9,27.9,30.22,North,354,0.0,0.0,85,0.00,,,0.00,0.00,VWS V14.01,2013-11-11 10:44:00,
2013-11-11 05:45:00,31.9,28.2,30.22,North,354,0.0,0.0,86,0.00,,,0.00,0.00,VWS V14.01,2013-11-11 10:45:00,
2013-11-11 05:46:00,31.8,28.1,30.22,North,354,0.0,0.0,86,0.00,,,0.00,0.00,VWS V14.01,2013-11-11 10:46:00,
2013-11-11 05:47:00,32.1,28.1,30.22,North,354,0.0,0.0,85,0.00,,,0.00,0.00,VWS V14.01,2013-11-11 10:47:00,
2013-11-11 05:48:00,31.8,28.1,30.22,North,354,0.0,0.0,86,0.00,,,0.00,0.00,VWS V14.01,2013-11-11 10:48:00,
2013-11-11 05:49:00,31.8,28.1,30.22,North,354,0.0,0.0,86,0.00,,,0.00,0.00,VWS V14.01,2013-11-11 10:49:00,
2013-11-11 05:50:00,31.6,27.9,30.22,North,354,0.0,0.0,86,0.00,,,0.00,0.00,VWS V14.01,2013-11-11 10:50:00,
2013-11-11 05:51:00,31.6,27.9,30.22,North,354,0.0,0.0,86,0.00,,,0.00,0.00,VWS V14.01,2013-11-11 10:51:00,
2013-11-11 05:52:00,31.8,28.1,30.22,North,354,0.0,0.0,86,0.00,,,0.00,0.00,VWS V14.01,2013-11-11 10:52:00,
2013-11-11 05:53:00,31.6,27.9,30.22,North,354,0.0,0.0,86,0.00,,,0.00,0.00,VWS V14.01,2013-11-11 10:53:00,
2013-11-11 05:54:00,31.5,27.8,30.22,North,354,0.0,0.0,86,0.00,,,0.00,0.00,VWS V14.01,2013-11-11 10:54:00,
2013-11-11 05:55:00,31.5,27.8,30.22,North,354,0.0,0.0,86,0.00,,,0.00,0.00,VWS V14.01,2013-11-11 10:55:00,
2013-11-11 05:56:00,31.5,27.8,30.22,North,354,0.0,0.0,86,0.00,,,0.00,0.00,VWS V14.01,2013-11-11 10:56:00,
2013-11-11 05:57:00,31.6,27.9,30.22,North,354,0.0,0.0,86,0.00,,,0.00,0.00,VWS V14.01,2013-11-11 10:57:00,
2013-11-11 05:58:00,31.5,27.8,30.22,North,354,0.0,0.0,86,0.00,,,0.00,0.00,VWS V14.01,2013-11-11 10:58:00,
2013-11-11 05:59:00,31.5,27.8,30.22,North,354,0.0,0.0,86,0.00,,,0.00,0.00,VWS V14.01,2013-11-11 10:59:00,
2013-11-11 06:00:00,31.5,27.8,30.22,North,354,0.0,0.0,86,0.00,,,0.00,0.00,VWS V14.01,2013-11-11 11:00:00,
2013-11-11 06:01:00,31.5,27.8,30.22,North,354,0.0,0.0,86,0.00,,,0.00,0.00,VWS V14.01,2013-11-11 11:01:00,
2013-11-11 06:02:00,31.5,27.8,30.22,North,354,0.0,0.0,86,0.00,,,0.00,0.00,VWS V14.01,2013-11-11 11:02:00,
2013-11-11 06:03:00,31.5,28.1,30.22,North,354,0.0,0.0,87,0.00,,,0.00,0.00,VWS V14.01,2013-11-11 11:03:00,
2013-11-11 06:04:00,31.5,28.1,30.22,North,354,0.0,0.0,87,0.00,,,0.00,0.00,VWS V14.01,2013-11-11 11:04:00,
2013-11-11 06:05:00,31.5,28.1,30.22,North,354,0.0,0.0,87,0.00,,,0.00,0.00,VWS V14.01,2013-11-11 11:05:00,
2013-11-11 06:06:00,31.5,28.1,30.22,North,354,0.0,0.0,87,0.00,,,0.00,0.00,VWS V14.01,2013-11-11 11:06:00,
2013-11-11 06:07:00,31.5,27.8,30.22,North,354,0.0,0.0,86,0.00,,,0.00,0.00,VWS V14.01,2013-11-11 11:07:00,
2013-11-11 06:08:00,31.3,27.9,30.22,North,354,0.0,0.0,87,0.00,,,0.00,0.00,VWS V14.01,2013-11-11 11:08:00,
2013-11-11 06:09:00,31.3,27.9,30.22,North,354,0.0,0.0,87,0.00,,,0.00,0.00,VWS V14.01,2013-11-11 11:09:00,
2013-11-11 06:10:00,31.3,27.9,30.22,North,354,0.0,0.0,87,0.00,,,0.00,0.00,VWS V14.01,2013-11-11 11:10:00,
2013-11-11 06:11:00,31.3,27.9,30.22,North,354,0.0,0.0,87,0.00,,,0.00,0.00,VWS V14.01,2013-11-11 11:11:00,
2013-11-11 06:12:00,31.5,28.1,30.22,North,354,0.0,0.0,87,0.00,,,0.00,0.00,VWS V14.01,2013-11-11 11:12:00,
2013-11-11 06:13:00,31.3,27.9,30.22,North,354,0.0,0.0,87,0.00,,,0.00,0.00,VWS V14.01,2013-11-11 11:13:00,
2013-11-11 06:14:00,31.3,27.9,30.22,North,354,0.0,0.0,87,0.00,,,0.00,0.00,VWS V14.01,2013-11-11 11:14:00,
2013-11-11 06:15:00,31.2,27.8,30.23,North,354,0.0,0.0,87,0.00,,,0.00,0.00,VWS V14.01,2013-11-11 11:15:00,
2013-11-11 06:16:00,31.2,27.8,30.23,North,354,0.0,0.0,87,0.00,,,0.00,0.00,VWS V14.01,2013-11-11 11:16:00,
2013-11-11 06:17:00,31.3,27.9,30.22,North,354,0.0,0.0,87,0.00,,,0.00,0.00,VWS V14.01,2013-11-11 11:17:00,
2013-11-11 06:18:00,31.2,27.8,30.23,North,354,0.0,0.0,87,0.00,,,0.00,0.00,VWS V14.01,2013-11-11 11:18:00,
2013-11-11 06:19:00,31.2,27.8,30.23,North,354,0.0,0.0,87,0.00,,,0.00,0.00,VWS V14.01,2013-11-11 11:19:00,
2013-11-11 06:20:00,31.0,27.6,30.23,North,354,0.0,0.0,87,0.00,,,0.00,0.00,VWS V14.01,2013-11-11 11:20:00,
2013-11-11 06:21:00,31.0,27.6,30.23,North,354,0.0,0.0,87,0.00,,,0.00,0.00,VWS V14.01,2013-11-11 11:21:00,
2013-11-11 06:22:00,31.2,27.8,30.23,North,354,0.0,0.0,87,0.00,,,0.00,0.00,VWS V14.01,2013-11-11 11:22:00,
2013-11-11 06:23:00,31.0,27.6,30.23,North,354,0.0,0.0,87,0.00,,,0.00,0.00,VWS V14.01,2013-11-11 11:23:00,
2013-11-11 06:24:00,30.9,27.5,30.23,North,354,0.0,0.0,87,0.00,,,0.00,0.00,VWS V14.01,2013-11-11 11:24:00,
2013-11-11 06:25:00,30.9,27.5,30.23,North,354,0.0,0.0,87,0.00,,,0.00,0.00,VWS V14.01,2013-11-11 11:25:00,
2013-11-11 06:26:00,30.9,27.5,30.23,North,354,0.0,0.0,87,0.00,,,0.00,0.00,VWS V14.01,2013-11-11 11:26:00,
2013-11-11 06:27:00,31.0,27.6,30.23,North,354,0.0,0.0,87,0.00,,,0.00,0.00,VWS V14.01,2013-11-11 11:27:00,
2013-11-11 06:28:00,30.9,27.5,30.23,North,354,0.0,0.0,87,0.00,,,0.00,0.00,VWS V14.01,2013-11-11 11:28:00,
2013-11-11 06:29:00,30.9,27.5,30.23,North,354,0.0,0.0,87,0.00,,,0.00,0.00,VWS V14.01,2013-11-11 11:29:00,
2013-11-11 06:30:00,30.7,27.3,30.23,North,354,0.0,0.0,87,0.00,,,0.00,0.00,VWS V14.01,2013-11-11 11:30:00,
2013-11-11 06:31:00,30.7,27.3,30.23,North,354,0.0,0.0,87,0.00,,,0.00,0.00,VWS V14.01,2013-11-11 11:31:00,
2013-11-11 06:32:00,30.9,27.5,30.23,North,354,0.0,0.0,87,0.00,,,0.00,0.00,VWS V14.01,2013-11-11 11:32:00,
2013-11-11 06:33:00,30.7,27.6,30.23,North,354,0.0,0.0,88,0.00,,,0.00,0.00,VWS V14.01,2013-11-11 11:33:00,
2013-11-11 06:34:00,30.7,27.6,30.23,North,354,0.0,0.0,88,0.00,,,0.00,0.00,VWS V14.01,2013-11-11 11:34:00,
2013-11-11 06:35:00,30.7,27.6,30.23,North,354,0.0,0.0,88,0.00,,,0.00,0.00,VWS V14.01,2013-11-11 11:35:00,
2013-11-11 06:36:00,30.7,27.6,30.23,North,354,0.0,0.0,88,0.00,,,0.00,0.00,VWS V14.01,2013-11-11 11:36:00,
2013-11-11 06:37:00,30.7,27.3,30.23,North,354,0.0,0.0,87,0.00,,,0.00,0.00,VWS V14.01,2013-11-11 11:37:00,
2013-11-11 06:38:00,30.7,27.6,30.23,North,354,0.0,0.0,88,0.00,,,0.00,0.00,VWS V14.01,2013-11-11 11:38:00,
2013-11-11 06:39:00,30.7,27.6,30.23,North,354,0.0,0.0,88,0.00,,,0.00,0.00,VWS V14.01,2013-11-11 11:39:00,
2013-11-11 06:40:00,30.7,27.6,30.23,North,354,0.0,0.0,88,0.00,,,0.00,0.00,VWS V14.01,2013-11-11 11:40:00,
2013-11-11 06:41:00,30.7,27.6,30.23,North,354,0.0,0.0,88,0.00,,,0.00,5.00,VWS V14.01,2013-11-11 11:41:00,
2013-11-11 06:42:00,30.7,27.6,30.23,North,354,0.0,0.0,88,0.00,,,0.00,0.00,VWS V14.01,2013-11-11 11:42:00,
2013-11-11 06:43:00,30.7,27.6,30.23,North,354,0.0,0.0,88,0.00,,,0.00,5.00,VWS V14.01,2013-11-11 11:43:00,
2013-11-11 06:44:00,30.7,27.6,30.23,North,354,0.0,0.0,88,0.00,,,0.00,5.00,VWS V14.01,2013-11-11 11:44:00,
2013-11-11 06:45:00,30.7,27.6,30.24,North,354,0.0,0.0,88,0.00,,,0.00,5.00,VWS V14.01,2013-11-11 11:45:00,
2013-11-11 06:46:00,30.7,27.6,30.24,North,354,0.0,0.0,88,0.00,,,0.00,5.00,VWS V14.01,2013-11-11 11:46:00,
2013-11-11 06:47:00,30.7,27.6,30.23,North,354,0.0,0.0,88,0.00,,,0.00,5.00,VWS V14.01,2013-11-11 11:47:00,
2013-11-11 06:48:00,30.7,27.6,30.24,North,354,0.0,0.0,88,0.00,,,0.00,7.00,VWS V14.01,2013-11-11 11:48:00,
2013-11-11 06:49:00,30.7,27.6,30.24,North,354,0.0,0.0,88,0.00,,,0.00,7.00,VWS V14.01,2013-11-11 11:49:00,
2013-11-11 06:50:00,30.6,27.5,30.24,North,354,0.0,0.0,88,0.00,,,0.00,7.00,VWS V14.01,2013-11-11 11:50:00,
2013-11-11 06:51:00,30.6,27.5,30.24,North,354,0.0,0.0,88,0.00,,,0.00,9.00,VWS V14.01,2013-11-11 11:51:00,
2013-11-11 06:52:00,30.7,27.6,30.24,North,354,0.0,0.0,88,0.00,,,0.00,5.00,VWS V14.01,2013-11-11 11:52:00,
2013-11-11 06:53:00,30.6,27.5,30.24,North,354,0.0,0.0,88,0.00,,,0.00,9.00,VWS V14.01,2013-11-11 11:53:00,
2013-11-11 06:54:00,30.6,27.5,30.24,North,354,0.0,0.0,88,0.00,,,0.00,9.00,VWS V14.01,2013-11-11 11:54:00,
2013-11-11 06:55:00,30.6,27.5,30.24,North,354,0.0,0.0,88,0.00,,,0.00,9.00,VWS V14.01,2013-11-11 11:55:00,
2013-11-11 06:56:00,30.6,27.5,30.24,North,354,0.0,0.0,88,0.00,,,0.00,11.00,VWS V14.01,2013-11-11 11:56:00,
2013-11-11 06:57:00,30.6,27.5,30.24,North,354,0.0,0.0,88,0.00,,,0.00,9.00,VWS V14.01,2013-11-11 11:57:00,
2013-11-11 06:58:00,30.6,27.5,30.24,North,354,0.0,0.0,88,0.00,,,0.00,11.00,VWS V14.01,2013-11-11 11:58:00,
2013-11-11 06:59:00,30.6,27.5,30.24,North,354,0.0,0.0,88,0.00,,,0.00,11.00,VWS V14.01,2013-11-11 11:59:00,
2013-11-11 07:00:00,30.4,27.3,30.24,North,354,0.0,0.0,88,0.00,,,0.00,11.00,VWS V14.01,2013-11-11 12:00:00,
2013-11-11 07:01:00,30.4,27.3,30.24,North,354,0.0,0.0,88,0.00,,,0.00,11.00,VWS V14.01,2013-11-11 12:01:00,
2013-11-11 07:02:00,30.6,27.5,30.24,North,354,0.0,0.0,88,0.00,,,0.00,11.00,VWS V14.01,2013-11-11 12:02:00,
2013-11-11 07:03:00,30.4,27.3,30.24,North,354,0.0,0.0,88,0.00,,,0.00,12.00,VWS V14.01,2013-11-11 12:03:00,
2013-11-11 07:04:00,30.4,27.3,30.24,North,354,0.0,0.0,88,0.00,,,0.00,12.00,VWS V14.01,2013-11-11 12:04:00,
2013-11-11 07:05:00,30.4,27.5,30.24,North,354,0.0,0.0,89,0.00,,,0.00,12.00,VWS V14.01,2013-11-11 12:05:00,
2013-11-11 07:06:00,30.4,27.5,30.24,North,354,0.0,0.0,89,0.00,,,0.00,12.00,VWS V14.01,2013-11-11 12:06:00,
2013-11-11 07:07:00,30.4,27.3,30.24,North,354,0.0,0.0,88,0.00,,,0.00,12.00,VWS V14.01,2013-11-11 12:07:00,
2013-11-11 07:08:00,30.4,27.3,30.24,North,354,0.0,0.0,88,0.00,,,0.00,14.00,VWS V14.01,2013-11-11 12:08:00,
2013-11-11 07:09:00,30.4,27.3,30.24,North,354,0.0,0.0,88,0.00,,,0.00,14.00,VWS V14.01,2013-11-11 12:09:00,
2013-11-11 07:10:00,30.4,27.3,30.24,North,354,0.0,0.0,88,0.00,,,0.00,14.00,VWS V14.01,2013-11-11 12:10:00,
2013-11-11 07:11:00,30.4,27.3,30.24,North,354,0.0,0.0,88,0.00,,,0.00,16.00,VWS V14.01,2013-11-11 12:11:00,
2013-11-11 07:12:00,30.4,27.5,30.24,North,354,0.0,0.0,89,0.00,,,0.00,14.00,VWS V14.01,2013-11-11 12:12:00,
2013-11-11 07:13:00,30.3,27.2,30.24,North,354,0.0,0.0,88,0.00,,,0.00,16.00,VWS V14.01,2013-11-11 12:13:00,
2013-11-11 07:14:00,30.3,27.2,30.24,North,354,0.0,0.0,88,0.00,,,0.00,18.00,VWS V14.01,2013-11-11 12:14:00,
2013-11-11 07:15:00,30.4,27.5,30.25,North,354,0.0,0.0,89,0.00,,,0.00,18.00,VWS V14.01,2013-11-11 12:15:00,
2013-11-11 07:16:00,30.4,27.5,30.25,North,354,0.0,0.0,89,0.00,,,0.00,19.00,VWS V14.01,2013-11-11 12:16:00,
2013-11-11 07:17:00,30.4,27.3,30.24,North,354,0.0,0.0,88,0.00,,,0.00,16.00,VWS V14.01,2013-11-11 12:17:00,
2013-11-11 07:18:00,30.6,27.8,30.25,North,354,0.0,0.0,89,0.00,,,0.00,19.00,VWS V14.01,2013-11-11 12:18:00,
2013-11-11 07:19:00,30.7,27.9,30.25,North,354,0.0,0.0,89,0.00,,,0.00,19.00,VWS V14.01,2013-11-11 12:19:00,
2013-11-11 07:20:00,30.7,27.9,30.25,North,354,0.0,0.0,89,0.00,,,0.00,19.00,VWS V14.01,2013-11-11 12:20:00,
2013-11-11 07:21:00,30.7,27.9,30.25,North,354,0.0,0.0,89,0.00,,,0.00,19.00,VWS V14.01,2013-11-11 12:21:00,
2013-11-11 07:22:00,30.4,27.5,30.25,North,354,0.0,0.0,89,0.00,,,0.00,19.00,VWS V14.01,2013-11-11 12:22:00,
2013-11-11 07:23:00,30.9,28.0,30.25,North,354,0.0,0.0,89,0.00,,,0.00,19.00,VWS V14.01,2013-11-11 12:23:00,
2013-11-11 07:24:00,30.9,28.0,30.25,North,354,0.0,0.0,89,0.00,,,0.00,21.00,VWS V14.01,2013-11-11 12:24:00,
2013-11-11 07:25:00,30.9,28.3,30.25,North,354,0.0,0.0,90,0.00,,,0.00,21.00,VWS V14.01,2013-11-11 12:25:00,
2013-11-11 07:26:00,30.9,28.3,30.25,North,354,0.0,0.0,90,0.00,,,0.00,21.00,VWS V14.01,2013-11-11 12:26:00,
2013-11-11 07:27:00,30.7,27.9,30.25,North,354,0.0,0.0,89,0.00,,,0.00,19.00,VWS V14.01,2013-11-11 12:27:00,
2013-11-11 07:28:00,31.0,28.4,30.25,North,354,0.0,0.0,90,0.00,,,0.00,21.00,VWS V14.01,2013-11-11 12:28:00,
2013-11-11 07:29:00,31.2,28.6,30.25,North,354,0.0,0.0,90,0.00,,,0.00,21.00,VWS V14.01,2013-11-11 12:29:00,
2013-11-11 07:30:00,31.3,28.7,30.26,North,354,0.0,0.0,90,0.00,,,0.00,21.00,VWS V14.01,2013-11-11 12:30:00,
2013-11-11 07:31:00,31.5,28.9,30.26,North,354,0.0,0.0,90,0.00,,,0.00,21.00,VWS V14.01,2013-11-11 12:31:00,
2013-11-11 07:32:00,30.9,28.3,30.25,North,354,0.0,0.0,90,0.00,,,0.00,21.00,VWS V14.01,2013-11-11 12:32:00,
2013-11-11 07:33:00,31.8,29.5,30.26,North,354,0.0,0.0,91,0.00,,,0.00,23.00,VWS V14.01,2013-11-11 12:33:00,
2013-11-11 07:34:00,31.9,29.6,30.26,North,354,0.0,0.0,91,0.00,,,0.00,23.00,VWS V14.01,2013-11-11 12:34:00,
2013-11-11 07:35:00,31.9,29.6,30.26,North,354,0.0,0.0,91,0.00,,,0.00,23.00,VWS V14.01,2013-11-11 12:35:00,
2013-11-11 07:36:00,32.1,29.8,30.26,North,354,0.0,0.0,91,0.00,,,0.00,23.00,VWS V14.01,2013-11-11 12:36:00,
2013-11-11 07:37:00,31.5,28.9,30.26,North,354,0.0,0.0,90,0.00,,,0.00,21.00,VWS V14.01,2013-11-11 12:37:00,
2013-11-11 07:38:00,32.4,30.1,30.26,North,354,0.0,0.0,91,0.00,,,0.00,23.00,VWS V14.01,2013-11-11 12:38:00,
2013-11-11 07:39:00,32.4,30.1,30.26,North,354,0.0,0.0,91,0.00,,,0.00,23.00,VWS V14.01,2013-11-11 12:39:00,
2013-11-11 07:40:00,32.5,30.2,30.26,North,354,0.0,0.0,91,0.00,,,0.00,23.00,VWS V14.01,2013-11-11 12:40:00,
2013-11-11 07:41:00,32.5,30.2,30.26,North,354,0.0,0.0,91,0.00,,,0.00,23.00,VWS V14.01,2013-11-11 12:41:00,
2013-11-11 07:42:00,32.1,29.8,30.26,North,354,0.0,0.0,91,0.00,,,0.00,23.00,VWS V14.01,2013-11-11 12:42:00,
2013-11-11 07:43:00,32.8,30.5,30.26,North,354,0.0,0.0,91,0.00,,,0.00,23.00,VWS V14.01,2013-11-11 12:43:00,
2013-11-11 07:44:00,32.8,30.5,30.26,North,354,0.0,0.0,91,0.00,,,0.00,25.00,VWS V14.01,2013-11-11 12:44:00,
2013-11-11 07:45:00,32.9,30.6,30.26,North,354,0.0,0.0,91,0.00,,,0.00,25.00,VWS V14.01,2013-11-11 12:45:00,
2013-11-11 07:46:00,32.9,30.8,30.26,North,354,0.0,0.0,92,0.00,,,0.00,25.00,VWS V14.01,2013-11-11 12:46:00,
2013-11-11 07:47:00,32.5,30.2,30.26,North,354,0.0,0.0,91,0.00,,,0.00,23.00,VWS V14.01,2013-11-11 12:47:00,
2013-11-11 07:48:00,33.2,31.1,30.26,North,354,0.0,0.0,92,0.00,,,0.00,25.00,VWS V14.01,2013-11-11 12:48:00,
2013-11-11 07:49:00,33.4,31.3,30.26,North,354,0.0,0.0,92,0.00,,,0.00,25.00,VWS V14.01,2013-11-11 12:49:00,
2013-11-11 07:50:00,33.4,31.3,30.26,North,354,0.0,0.0,92,0.00,,,0.00,25.00,VWS V14.01,2013-11-11 12:50:00,
2013-11-11 07:51:00,33.5,31.4,30.26,North,354,0.0,0.0,92,0.00,,,0.00,25.00,VWS V14.01,2013-11-11 12:51:00,
2013-11-11 07:52:00,33.1,31.0,30.26,North,354,0.0,0.0,92,0.00,,,0.00,25.00,VWS V14.01,2013-11-11 12:52:00,
2013-11-11 07:53:00,33.5,31.4,30.26,North,354,0.0,0.0,92,0.00,,,0.00,25.00,VWS V14.01,2013-11-11 12:53:00,
2013-11-11 07:54:00,33.8,31.7,30.26,North,354,0.0,0.0,92,0.00,,,0.00,25.00,VWS V14.01,2013-11-11 12:54:00,
2013-11-11 07:55:00,34.0,31.9,30.26,North,354,0.0,0.0,92,0.00,,,0.00,25.00,VWS V14.01,2013-11-11 12:55:00,
2013-11-11 07:56:00,34.1,32.0,30.26,North,354,0.0,0.0,92,0.00,,,0.00,25.00,VWS V14.01,2013-11-11 12:56:00,
2013-11-11 07:57:00,33.5,31.4,30.26,North,354,0.0,0.0,92,0.00,,,0.00,25.00,VWS V14.01,2013-11-11 12:57:00,
2013-11-11 07:58:00,34.1,32.0,30.26,North,354,0.0,0.0,92,0.00,,,0.00,25.00,VWS V14.01,2013-11-11 12:58:00,
2013-11-11 07:59:00,34.3,32.2,30.26,North,354,0.0,0.0,92,0.00,,,0.00,25.00,VWS V14.01,2013-11-11 12:59:00,
2013-11-11 08:00:00,34.3,32.2,30.26,North,354,0.0,0.0,92,0.00,,,0.00,26.00,VWS V14.01,2013-11-11 13:00:00,
2013-11-11 08:01:00,34.4,32.3,30.26,North,354,0.0,0.0,92,0.00,,,0.00,26.00,VWS V14.01,2013-11-11 13:01:00,
2013-11-11 08:02:00,34.1,32.0,30.26,North,354,0.0,0.0,92,0.00,,,0.00,25.00,VWS V14.01,2013-11-11 13:02:00,
2013-11-11 08:03:00,34.6,32.5,30.26,North,354,0.0,0.0,92,0.00,,,0.00,26.00,VWS V14.01,2013-11-11 13:03:00,
2013-11-11 08:04:00,34.7,32.6,30.26,North,354,0.0,0.0,92,0.00,,,0.00,26.00,VWS V14.01,2013-11-11 13:04:00,
2013-11-11 08:05:00,34.7,32.6,30.26,North,354,0.0,0.0,92,0.00,,,0.00,26.00,VWS V14.01,2013-11-11 13:05:00,
2013-11-11 08:06:00,34.9,32.8,30.26,North,354,0.0,0.0,92,0.00,,,0.00,26.00,VWS V14.01,2013-11-11 13:06:00,
2013-11-11 08:07:00,34.4,32.3,30.26,North,354,0.0,0.0,92,0.00,,,0.00,26.00,VWS V14.01,2013-11-11 13:07:00,
2013-11-11 08:08:00,35.0,32.9,30.26,North,354,0.0,0.0,92,0.00,,,0.00,26.00,VWS V14.01,2013-11-11 13:08:00,
2013-11-11 08:09:00,35.2,33.4,30.26,North,354,0.0,0.0,93,0.00,,,0.00,62.00,VWS V14.01,2013-11-11 13:09:00,
2013-11-11 08:10:00,35.3,33.5,30.26,North,354,0.0,0.0,93,0.00,,,0.00,149.00,VWS V14.01,2013-11-11 13:10:00,
2013-11-11 08:11:00,35.3,33.5,30.26,North,354,0.0,0.0,93,0.00,,,0.00,225.00,VWS V14.01,2013-11-11 13:11:00,
2013-11-11 08:12:00,34.9,32.8,30.26,North,354,0.0,0.0,92,0.00,,,0.00,26.00,VWS V14.01,2013-11-11 13:12:00,
2013-11-11 08:13:00,35.6,33.8,30.26,North,354,0.0,0.0,93,0.00,,,0.00,237.00,VWS V14.01,2013-11-11 13:13:00,
2013-11-11 08:14:00,35.9,34.1,30.26,North,354,0.0,0.0,93,0.00,,,0.00,241.00,VWS V14.01,2013-11-11 13:14:00,
2013-11-11 08:15:00,36.0,34.2,30.26,North,354,0.0,0.0,93,0.00,,,0.00,243.00,VWS V14.01,2013-11-11 13:15:00,
2013-11-11 08:16:00,36.2,34.4,30.26,North,354,0.0,0.0,93,0.00,,,0.00,246.00,VWS V14.01,2013-11-11 13:16:00,
2013-11-11 08:17:00,35.3,33.5,30.26,North,354,0.0,0.0,93,0.00,,,0.00,234.00,VWS V14.01,2013-11-11 13:17:00,
2013-11-11 08:18:00,36.5,34.7,30.26,North,354,0.0,0.0,93,0.00,,,0.00,250.00,VWS V14.01,2013-11-11 13:18:00,
2013-11-11 08:19:00,36.8,35.0,30.26,North,354,0.0,0.0,93,0.00,,,0.00,255.00,VWS V14.01,2013-11-11 13:19:00,
2013-11-11 08:20:00,36.9,35.1,30.26,North,354,0.0,0.0,93,0.00,,,0.00,257.00,VWS V14.01,2013-11-11 13:20:00,
2013-11-11 08:21:00,37.2,35.4,30.26,North,354,0.0,0.0,93,0.00,,,0.00,260.00,VWS V14.01,2013-11-11 13:21:00,
2013-11-11 08:22:00,36.2,34.4,30.26,North,354,0.0,0.0,93,0.00,,,0.00,246.00,VWS V14.01,2013-11-11 13:22:00,
2013-11-11 08:23:00,37.6,36.0,30.26,North,354,0.0,0.0,94,0.00,,,0.00,265.00,VWS V14.01,2013-11-11 13:23:00,
2013-11-11 08:24:00,37.8,36.2,30.26,North,354,0.0,0.0,94,0.00,,,0.00,271.00,VWS V14.01,2013-11-11 13:24:00,
2013-11-11 08:25:00,38.0,36.4,30.26,North,354,0.0,0.0,94,0.00,,,0.00,274.00,VWS V14.01,2013-11-11 13:25:00,
2013-11-11 08:26:00,38.2,36.6,30.26,North,354,0.0,0.0,94,0.00,,,0.00,276.00,VWS V14.01,2013-11-11 13:26:00,
2013-11-11 08:27:00,37.2,35.4,30.26,North,354,0.0,0.0,93,0.00,,,0.00,260.00,VWS V14.01,2013-11-11 13:27:00,
2013-11-11 08:28:00,38.6,37.0,30.26,North,354,0.0,0.0,94,0.00,,,0.00,281.00,VWS V14.01,2013-11-11 13:28:00,
2013-11-11 08:29:00,38.8,37.2,30.26,North,354,0.0,0.0,94,0.00,,,0.00,283.00,VWS V14.01,2013-11-11 13:29:00,
2013-11-11 08:30:00,39.1,37.5,30.27,North,354,0.0,0.0,94,0.00,,,0.00,287.00,VWS V14.01,2013-11-11 13:30:00,
2013-11-11 08:31:00,39.3,37.7,30.27,North,354,0.0,0.0,94,0.00,,,0.00,292.00,VWS V14.01,2013-11-11 13:31:00,
2013-11-11 08:32:00,38.2,36.6,30.26,North,354,0.0,0.0,94,0.00,,,0.00,276.00,VWS V14.01,2013-11-11 13:32:00,
2013-11-11 08:33:00,39.9,38.3,30.27,North,354,0.0,0.0,94,0.00,,,0.00,299.00,VWS V14.01,2013-11-11 13:33:00,
2013-11-11 08:34:00,40.2,38.6,30.27,North,354,0.0,0.0,94,0.00,,,0.00,302.00,VWS V14.01,2013-11-11 13:34:00,
2013-11-11 08:35:00,40.5,38.9,30.27,North,354,0.0,0.0,94,0.00,,,0.00,309.00,VWS V14.01,2013-11-11 13:35:00,
2013-11-11 08:36:00,40.8,39.2,30.27,North,354,0.0,0.0,94,0.00,,,0.00,316.00,VWS V14.01,2013-11-11 13:36:00,
2013-11-11 08:37:00,39.3,37.7,30.27,North,354,0.0,0.0,94,0.00,,,0.00,292.00,VWS V14.01,2013-11-11 13:37:00,
2013-11-11 08:38:00,41.2,39.3,30.27,North,354,0.0,0.0,93,0.00,,,0.00,323.00,VWS V14.01,2013-11-11 13:38:00,
2013-11-11 08:39:00,41.5,39.6,30.27,North,354,0.0,0.0,93,0.00,,,0.00,329.00,VWS V14.01,2013-11-11 13:39:00,
2013-11-11 08:40:00,41.8,39.7,30.27,North,354,0.0,0.0,92,0.00,,,0.00,334.00,VWS V14.01,2013-11-11 13:40:00,
2013-11-11 08:41:00,42.1,40.0,30.27,North,354,0.0,0.0,92,0.00,,,0.00,338.00,VWS V14.01,2013-11-11 13:41:00,
2013-11-11 08:42:00,40.8,39.2,30.27,North,354,0.0,0.0,94,0.00,,,0.00,316.00,VWS V14.01,2013-11-11 13:42:00,
2013-11-11 08:43:00,42.6,39.9,30.27,North,354,0.0,0.0,90,0.00,,,0.00,350.00,VWS V14.01,2013-11-11 13:43:00,
2013-11-11 08:44:00,42.8,39.8,30.27,North,354,0.0,0.0,89,0.00,,,0.00,353.00,VWS V14.01,2013-11-11 13:44:00,
2013-11-11 08:45:00,43.1,40.1,30.27,North,354,0.0,0.0,89,0.00,,,0.00,355.00,VWS V14.01,2013-11-11 13:45:00,
2013-11-11 08:46:00,43.5,40.2,30.27,North,354,0.0,0.0,88,0.00,,,0.00,359.00,VWS V14.01,2013-11-11 13:46:00,
2013-11-11 08:47:00,42.2,40.0,30.27,North,354,0.0,0.0,92,0.00,,,0.00,341.00,VWS V14.01,2013-11-11 13:47:00,
2013-11-11 08:48:00,43.9,39.4,30.27,North,354,0.0,0.0,84,0.00,,,0.00,367.00,VWS V14.01,2013-11-11 13:48:00,
2013-11-11 08:49:00,44.2,39.4,30.27,North,354,0.0,0.0,83,0.00,,,0.00,371.00,VWS V14.01,2013-11-11 13:49:00,
2013-11-11 08:50:00,44.5,39.0,30.27,North,354,0.0,0.0,81,0.00,,,0.00,373.00,VWS V14.01,2013-11-11 13:50:00,
2013-11-11 08:51:00,44.6,38.8,30.27,North,354,0.0,0.0,80,0.00,,,0.00,376.00,VWS V14.01,2013-11-11 13:51:00,
2013-11-11 08:52:00,43.5,39.9,30.27,North,354,0.0,0.0,87,0.00,,,0.00,362.00,VWS V14.01,2013-11-11 13:52:00,
2013-11-11 08:53:00,45.1,38.0,30.27,North,354,0.0,0.0,76,0.00,,,0.00,383.00,VWS V14.01,2013-11-11 13:53:00,
2013-11-11 08:54:00,45.2,37.8,30.27,North,354,0.0,0.0,75,0.00,,,0.00,385.00,VWS V14.01,2013-11-11 13:54:00,
2013-11-11 08:55:00,45.5,37.7,30.27,North,354,0.0,0.0,74,0.00,,,0.00,388.00,VWS V14.01,2013-11-11 13:55:00,
2013-11-11 08:56:00,45.7,37.5,30.27,North,354,0.0,0.0,73,0.00,,,0.00,392.00,VWS V14.01,2013-11-11 13:56:00,
2013-11-11 08:57:00,44.8,38.7,30.27,North,354,0.0,0.0,79,0.00,,,0.00,376.00,VWS V14.01,2013-11-11 13:57:00,
2013-11-11 08:58:00,46.1,37.2,30.27,North,354,0.0,0.0,71,0.00,,,0.00,396.00,VWS V14.01,2013-11-11 13:58:00,
2013-11-11 08:59:00,46.2,36.2,30.27,North,354,0.0,0.0,68,0.00,,,0.00,401.00,VWS V14.01,2013-11-11 13:59:00,
2013-11-11 09:00:00,46.4,36.4,30.27,North,354,0.0,0.0,68,0.00,,,0.00,404.00,VWS V14.01,2013-11-11 14:00:00,
2013-11-11 09:01:00,46.7,36.3,30.27,North,354,0.0,0.0,67,0.00,,,0.00,404.00,VWS V14.01,2013-11-11 14:01:00,
2013-11-11 09:02:00,45.7,37.2,30.27,North,354,0.0,0.0,72,0.00,,,0.00,392.00,VWS V14.01,2013-11-11 14:02:00,
2013-11-11 09:03:00,47.1,35.6,30.27,North,354,0.0,0.0,64,0.00,,,0.00,411.00,VWS V14.01,2013-11-11 14:03:00,
2013-11-11 09:04:00,47.3,35.4,30.27,North,354,0.0,0.0,63,0.00,,,0.00,413.00,VWS V14.01,2013-11-11 14:04:00,
2013-11-11 09:05:00,47.6,35.2,30.27,North,354,0.0,0.0,62,0.00,,,0.00,418.00,VWS V14.01,2013-11-11 14:05:00,
2013-11-11 09:06:00,47.9,35.5,30.27,North,354,0.0,0.0,62,0.00,,,0.00,420.00,VWS V14.01,2013-11-11 14:06:00,
2013-11-11 09:07:00,46.7,36.3,30.27,North,354,0.0,0.0,67,0.00,,,0.00,404.00,VWS V14.01,2013-11-11 14:07:00,
2013-11-11 09:08:00,48.2,34.6,30.27,North,354,0.0,0.0,59,0.00,,,0.00,425.00,VWS V14.01,2013-11-11 14:08:00,
2013-11-11 09:09:00,48.3,33.8,30.27,North,354,0.0,0.0,57,0.00,,,0.00,429.00,VWS V14.01,2013-11-11 14:09:00,
2013-11-11 09:10:00,48.6,34.1,30.27,North,354,0.0,0.0,57,0.00,,,0.00,431.00,VWS V14.01,2013-11-11 14:10:00,
2013-11-11 09:11:00,48.6,34.1,30.27,North,354,0.0,0.0,57,0.00,,,0.00,434.00,VWS V14.01,2013-11-11 14:11:00,
2013-11-11 09:12:00,47.9,35.5,30.27,North,354,0.0,0.0,62,0.00,,,0.00,420.00,VWS V14.01,2013-11-11 14:12:00,
2013-11-11 09:13:00,49.1,34.5,30.27,North,354,1.0,1.0,57,0.00,,,0.00,438.00,VWS V14.01,2013-11-11 14:13:00,
2013-11-11 09:14:00,49.4,34.8,30.27,North,354,0.0,1.0,57,0.00,,,0.00,441.00,VWS V14.01,2013-11-11 14:14:00,
2013-11-11 09:15:00,49.4,33.9,30.26,North,354,0.0,0.0,55,0.00,,,0.00,443.00,VWS V14.01,2013-11-11 14:15:00,
2013-11-11 09:17:00,48.8,34.3,30.27,North,354,0.0,0.0,57,0.00,,,0.00,434.00,VWS V14.01,2013-11-11 14:17:00,
2013-11-11 09:19:00,50.2,33.7,30.26,North,354,0.0,0.0,53,0.00,,,0.00,454.00,VWS V14.01,2013-11-11 14:19:00,
2013-11-11 09:20:00,50.4,33.9,30.26,North,354,0.0,0.0,53,0.00,,,0.00,455.00,VWS V14.01,2013-11-11 14:20:00,
2013-11-11 09:21:00,50.7,34.2,30.26,North,354,0.0,0.0,53,0.00,,,0.00,459.00,VWS V14.01,2013-11-11 14:21:00,
2013-11-11 09:22:00,49.5,34.5,30.26,North,354,0.0,0.0,56,0.00,,,0.00,448.00,VWS V14.01,2013-11-11 14:22:00,
2013-11-11 09:23:00,51.1,33.6,30.26,North,354,0.0,0.0,51,0.00,,,0.00,466.00,VWS V14.01,2013-11-11 14:23:00,
2013-11-11 09:24:00,51.4,34.4,30.26,North,354,0.0,0.0,52,0.00,,,0.00,468.00,VWS V14.01,2013-11-11 14:24:00,
2013-11-11 09:25:00,51.6,33.6,30.26,North,354,0.0,0.0,50,0.00,,,0.00,469.00,VWS V14.01,2013-11-11 14:25:00,
2013-11-11 09:26:00,51.9,33.9,30.26,North,354,0.0,0.0,50,0.00,,,0.00,473.00,VWS V14.01,2013-11-11 14:26:00,
2013-11-11 09:27:00,50.7,33.7,30.26,North,354,0.0,0.0,52,0.00,,,0.00,461.00,VWS V14.01,2013-11-11 14:27:00,
2013-11-11 09:28:00,52.2,33.1,30.26,North,354,0.0,0.0,48,0.00,,,0.00,475.00,VWS V14.01,2013-11-11 14:28:00,
2013-11-11 09:29:00,52.3,33.2,30.26,North,354,0.0,0.0,48,0.00,,,0.00,482.00,VWS V14.01,2013-11-11 14:29:00,
2013-11-11 09:30:00,52.5,32.3,30.26,North,354,0.0,0.0,46,0.00,,,0.00,482.00,VWS V14.01,2013-11-11 14:30:00,
2013-11-11 09:31:00,52.6,32.4,30.26,North,354,0.0,0.0,46,0.00,,,0.00,485.00,VWS V14.01,2013-11-11 14:31:00,
2013-11-11 09:32:00,51.9,32.8,30.26,North,354,0.0,0.0,48,0.00,,,0.00,473.00,VWS V14.01,2013-11-11 14:32:00,
2013-11-11 09:33:00,52.9,31.6,30.26,North,354,0.0,0.0,44,0.00,,,0.00,490.00,VWS V14.01,2013-11-11 14:33:00,
2013-11-11 09:34:00,53.1,30.6,30.26,North,354,0.0,0.0,42,0.00,,,0.00,489.00,VWS V14.01,2013-11-11 14:34:00,
2013-11-11 09:35:00,53.2,30.1,30.26,North,354,0.0,0.0,41,0.00,,,0.00,494.00,VWS V14.01,2013-11-11 14:35:00,
2013-11-11 09:36:00,53.3,30.2,30.26,North,354,0.0,0.0,41,0.00,,,0.00,494.00,VWS V14.01,2013-11-11 14:36:00,
2013-11-11 09:37:00,52.6,32.4,30.26,North,354,0.0,0.0,46,0.00,,,0.00,485.00,VWS V14.01,2013-11-11 14:37:00,
2013-11-11 09:38:00,53.5,31.0,30.26,East,96,0.0,3.0,42,0.00,,,0.00,501.00,VWS V14.01,2013-11-11 14:38:00,
2013-11-11 09:39:00,53.6,31.1,30.26,East,96,0.0,0.0,42,0.00,,,0.00,503.00,VWS V14.01,2013-11-11 14:39:00,
2013-11-11 09:40:00,53.8,30.1,30.26,East,96,0.0,0.0,40,0.00,,,0.00,506.00,VWS V14.01,2013-11-11 14:40:00,
2013-11-11 09:41:00,53.8,30.1,30.26,East,96,0.0,0.0,40,0.00,,,0.00,508.00,VWS V14.01,2013-11-11 14:41:00,
2013-11-11 09:42:00,53.3,30.2,30.26,North,354,0.0,0.0,41,0.00,,,0.00,494.00,VWS V14.01,2013-11-11 14:42:00,
2013-11-11 09:43:00,54.1,29.7,30.26,East,96,0.0,1.0,39,0.00,,,0.00,510.00,VWS V14.01,2013-11-11 14:43:00,
2013-11-11 09:44:00,54.1,30.9,30.26,East,101,3.0,3.0,41,0.00,,,0.00,513.00,VWS V14.01,2013-11-11 14:44:00,
2013-11-11 09:45:00,54.2,30.4,30.26,East,101,0.0,3.0,40,0.00,,,0.00,513.00,VWS V14.01,2013-11-11 14:45:00,
2013-11-11 09:46:00,54.4,31.8,30.26,East,101,2.0,2.0,42,0.00,,,0.00,519.00,VWS V14.01,2013-11-11 14:46:00,
2013-11-11 09:47:00,53.9,30.1,30.26,East,96,0.0,0.0,40,0.00,,,0.00,508.00,VWS V14.01,2013-11-11 14:47:00,
2013-11-11 09:48:00,54.4,30.0,30.26,East,101,0.0,0.0,39,0.00,,,0.00,522.00,VWS V14.01,2013-11-11 14:48:00,
2013-11-11 09:49:00,54.4,30.6,30.26,ESE,113,3.0,3.0,40,0.00,,,0.00,526.00,VWS V14.01,2013-11-11 14:49:00,
2013-11-11 09:50:00,54.4,31.2,30.26,ESE,113,0.0,3.0,41,0.00,,,0.00,526.00,VWS V14.01,2013-11-11 14:50:00,
2013-11-11 09:51:00,54.5,30.7,30.26,ESE,113,0.0,0.0,40,0.00,,,0.00,526.00,VWS V14.01,2013-11-11 14:51:00,
2013-11-11 09:52:00,54.4,31.8,30.26,East,101,3.0,3.0,42,0.00,,,0.00,519.00,VWS V14.01,2013-11-11 14:52:00,
2013-11-11 09:53:00,54.5,30.7,30.26,ESE,113,0.0,0.0,40,0.00,,,0.00,534.00,VWS V14.01,2013-11-11 14:53:00,
2013-11-11 09:54:00,54.5,30.7,30.26,ESE,113,0.0,0.0,40,0.00,,,0.00,534.00,VWS V14.01,2013-11-11 14:54:00,
2013-11-11 09:55:00,54.5,30.1,30.26,ESE,104,0.0,0.0,39,0.00,,,0.00,533.00,VWS V14.01,2013-11-11 14:55:00,
2013-11-11 09:56:00,54.5,31.3,30.26,ESE,104,0.0,0.0,41,0.00,,,0.00,540.00,VWS V14.01,2013-11-11 14:56:00,
2013-11-11 09:57:00,54.5,30.7,30.26,ESE,113,0.0,0.0,40,0.00,,,0.00,529.00,VWS V14.01,2013-11-11 14:57:00,
2013-11-11 09:58:00,54.7,30.9,30.26,ESE,115,0.0,4.0,40,0.00,,,0.00,543.00,VWS V14.01,2013-11-11 14:58:00,
2013-11-11 09:59:00,54.8,30.3,30.26,ESE,115,0.0,1.0,39,0.00,,,0.00,547.00,VWS V14.01,2013-11-11 14:59:00,
2013-11-11 10:00:00,54.8,31.0,30.26,ESE,118,0.0,2.0,40,0.00,,,0.00,547.00,VWS V14.01,2013-11-11 15:00:00,
2013-11-11 10:01:00,55.0,31.1,30.26,East,94,4.0,4.0,40,0.00,,,0.00,550.00,VWS V14.01,2013-11-11 15:01:00,
2013-11-11 10:02:00,54.5,31.9,30.26,ESE,104,0.0,0.0,42,0.00,,,0.00,540.00,VWS V14.01,2013-11-11 15:02:00,
2013-11-11 10:03:00,55.1,30.6,30.26,SE,131,0.0,2.0,39,0.00,,,0.00,554.00,VWS V14.01,2013-11-11 15:03:00,
2013-11-11 10:04:00,55.3,31.4,30.26,SE,124,0.0,0.0,40,0.00,,,0.00,555.00,VWS V14.01,2013-11-11 15:04:00,
2013-11-11 10:05:00,55.3,31.4,30.26,SE,124,0.0,0.0,40,0.00,,,0.00,559.00,VWS V14.01,2013-11-11 15:05:00,
2013-11-11 10:06:00,55.3,30.8,30.26,SE,124,0.0,0.0,39,0.00,,,0.00,561.00,VWS V14.01,2013-11-11 15:06:00,
2013-11-11 10:07:00,55.0,31.1,30.26,East,94,3.0,4.0,40,0.00,,,0.00,550.00,VWS V14.01,2013-11-11 15:07:00,
2013-11-11 10:08:00,55.4,30.2,30.26,SE,124,0.0,1.0,38,0.00,,,0.00,563.00,VWS V14.01,2013-11-11 15:08:00,
2013-11-11 10:09:00,55.4,30.2,30.26,SE,124,0.0,0.0,38,0.00,,,0.00,564.00,VWS V14.01,2013-11-11 15:09:00,
2013-11-11 10:10:00,55.4,29.6,30.26,SE,124,0.0,0.0,37,0.00,,,0.00,570.00,VWS V14.01,2013-11-11 15:10:00,
2013-11-11 10:11:00,55.4,31.5,30.26,East,87,3.0,3.0,40,0.00,,,0.00,570.00,VWS V14.01,2013-11-11 15:11:00,
2013-11-11 10:12:00,55.3,30.8,30.26,SE,124,0.0,0.0,39,0.00,,,0.00,561.00,VWS V14.01,2013-11-11 15:12:00,
2013-11-11 10:13:00,55.4,30.9,30.26,ESE,115,0.0,3.0,39,0.00,,,0.00,575.00,VWS V14.01,2013-11-11 15:13:00,
2013-11-11 10:14:00,55.4,30.2,30.26,ESE,115,0.0,0.0,38,0.00,,,0.00,577.00,VWS V14.01,2013-11-11 15:14:00,
2013-11-11 10:15:00,55.6,31.1,30.26,ESE,115,0.0,2.0,39,0.00,,,0.00,578.00,VWS V14.01,2013-11-11 15:15:00,
2013-11-11 10:16:00,55.6,31.1,30.26,ESE,105,3.0,3.0,39,0.00,,,0.00,580.00,VWS V14.01,2013-11-11 15:16:00,
2013-11-11 10:17:00,55.4,31.5,30.26,East,88,3.0,3.0,40,0.00,,,0.00,570.00,VWS V14.01,2013-11-11 15:17:00,
2013-11-11 10:18:00,55.6,31.1,30.26,ESE,106,0.0,0.0,39,0.00,,,0.00,584.00,VWS V14.01,2013-11-11 15:18:00,
2013-11-11 10:19:00,55.7,31.1,30.26,ESE,108,0.0,0.0,39,0.00,,,0.00,587.00,VWS V14.01,2013-11-11 15:19:00,
2013-11-11 10:20:00,55.7,29.9,30.26,South,179,3.0,6.0,37,0.00,,,0.00,587.00,VWS V14.01,2013-11-11 15:20:00,
2013-11-11 10:21:00,55.7,30.5,30.26,South,179,0.0,4.0,38,0.00,,,0.00,589.00,VWS V14.01,2013-11-11 15:21:00,
2013-11-11 10:22:00,55.6,31.1,30.26,East,101,3.0,3.0,39,0.00,,,0.00,580.00,VWS V14.01,2013-11-11 15:22:00,
2013-11-11 10:23:00,55.7,29.9,30.26,SE,142,0.0,3.0,37,0.00,,,0.00,592.00,VWS V14.01,2013-11-11 15:23:00,
2013-11-11 10:24:00,55.7,29.9,30.26,SE,143,0.0,1.0,37,0.00,,,0.00,596.00,VWS V14.01,2013-11-11 15:24:00,
2013-11-11 10:25:00,55.7,29.9,30.26,SE,143,0.0,0.0,37,0.00,,,0.00,594.00,VWS V14.01,2013-11-11 15:25:00,
2013-11-11 10:26:00,55.7,29.9,30.26,SE,143,0.0,0.0,37,0.00,,,0.00,596.00,VWS V14.01,2013-11-11 15:26:00,
2013-11-11 10:27:00,55.7,30.5,30.26,South,179,0.0,0.0,38,0.00,,,0.00,589.00,VWS V14.01,2013-11-11 15:27:00,
2013-11-11 10:28:00,55.7,28.5,30.26,SE,143,0.0,0.0,35,0.00,,,0.00,596.00,VWS V14.01,2013-11-11 15:28:00,
2013-11-11 10:29:00,55.7,28.5,30.26,East,91,3.0,3.0,35,0.00,,,0.00,601.00,VWS V14.01,2013-11-11 15:29:00,
2013-11-11 10:30:00,55.7,29.2,30.25,East,84,0.0,3.0,36,0.00,,,0.00,603.00,VWS V14.01,2013-11-11 15:30:00,
2013-11-11 10:31:00,55.7,29.9,30.25,East,84,0.0,0.0,37,0.00,,,0.00,605.00,VWS V14.01,2013-11-11 15:31:00,
2013-11-11 10:32:00,55.7,29.9,30.26,SE,143,0.0,0.0,37,0.00,,,0.00,598.00,VWS V14.01,2013-11-11 15:32:00,
2013-11-11 10:33:00,55.9,30.0,30.25,East,84,0.0,0.0,37,0.00,,,0.00,608.00,VWS V14.01,2013-11-11 15:33:00,
2013-11-11 10:34:00,55.9,30.0,30.25,East,84,0.0,0.0,37,0.00,,,0.00,610.00,VWS V14.01,2013-11-11 15:34:00,
2013-11-11 10:35:00,55.9,30.0,30.25,East,84,0.0,0.0,37,0.00,,,0.00,613.00,VWS V14.01,2013-11-11 15:35:00,
2013-11-11 10:36:00,55.9,29.4,30.25,East,83,0.0,0.0,36,0.00,,,0.00,613.00,VWS V14.01,2013-11-11 15:36:00,
2013-11-11 10:37:00,55.7,29.9,30.25,East,84,0.0,0.0,37,0.00,,,0.00,605.00,VWS V14.01,2013-11-11 15:37:00,
2013-11-11 10:38:00,56.0,29.4,30.25,North,0,0.0,0.0,36,0.00,,,0.00,617.00,VWS V14.01,2013-11-11 15:38:00,
2013-11-11 10:39:00,56.0,30.1,30.25,North,11,0.0,0.0,37,0.00,,,0.00,621.00,VWS V14.01,2013-11-11 15:39:00,
2013-11-11 10:40:00,56.2,29.6,30.25,NNE,15,0.0,2.0,36,0.00,,,0.00,622.00,VWS V14.01,2013-11-11 15:40:00,
2013-11-11 10:41:00,56.2,29.6,30.25,ESE,118,5.0,5.0,36,0.00,,,0.00,621.00,VWS V14.01,2013-11-11 15:41:00,
2013-11-11 10:42:00,55.9,29.4,30.25,East,83,0.0,0.0,36,0.00,,,0.00,613.00,VWS V14.01,2013-11-11 15:42:00,
2013-11-11 10:43:00,56.3,29.7,30.25,SE,135,5.0,9.0,36,0.00,,,0.00,628.00,VWS V14.01,2013-11-11 15:43:00,
2013-11-11 10:44:00,56.3,29.0,30.25,SE,133,4.0,6.0,35,0.00,,,0.00,628.00,VWS V14.01,2013-11-11 15:44:00,
2013-11-11 10:45:00,56.3,29.0,30.24,ESE,114,6.0,7.0,35,0.00,,,0.00,629.00,VWS V14.01,2013-11-11 15:45:00,
2013-11-11 10:46:00,56.5,29.2,30.24,SE,127,4.0,6.0,35,0.00,,,0.00,629.00,VWS V14.01,2013-11-11 15:46:00,
2013-11-11 10:47:00,56.2,29.6,30.25,SE,127,4.0,5.0,36,0.00,,,0.00,621.00,VWS V14.01,2013-11-11 15:47:00,
2013-11-11 10:48:00,56.5,29.2,30.24,ESE,118,5.0,5.0,35,0.00,,,0.00,633.00,VWS V14.01,2013-11-11 15:48:00,
2013-11-11 10:49:00,56.5,29.2,30.24,ESE,118,0.0,5.0,35,0.00,,,0.00,635.00,VWS V14.01,2013-11-11 15:49:00,
2013-11-11 10:50:00,56.6,29.3,30.24,SSE,166,4.0,5.0,35,0.00,,,0.00,636.00,VWS V14.01,2013-11-11 15:50:00,
2013-11-11 10:51:00,56.6,28.6,30.24,SSE,166,0.0,5.0,34,0.00,,,0.00,638.00,VWS V14.01,2013-11-11 15:51:00,
2013-11-11 10:52:00,56.5,29.2,30.24,SSE,147,5.0,5.0,35,0.00,,,0.00,629.00,VWS V14.01,2013-11-11 15:52:00,
2013-11-11 10:53:00,56.6,27.9,30.24,ESE,111,0.0,3.0,33,0.00,,,0.00,638.00,VWS V14.01,2013-11-11 15:53:00,
2013-11-11 10:54:00,56.7,29.4,30.24,East,86,0.0,5.0,35,0.00,,,0.00,640.00,VWS V14.01,2013-11-11 15:54:00,
2013-11-11 10:55:00,56.9,29.5,30.24,SE,134,0.0,5.0,35,0.00,,,0.00,642.00,VWS V14.01,2013-11-11 15:55:00,
2013-11-11 10:56:00,56.9,29.5,30.24,SE,134,0.0,0.0,35,0.00,,,0.00,642.00,VWS V14.01,2013-11-11 15:56:00,
2013-11-11 10:57:00,56.6,28.6,30.24,SSE,166,0.0,0.0,34,0.00,,,0.00,638.00,VWS V14.01,2013-11-11 15:57:00,
2013-11-11 10:58:00,56.9,28.1,30.24,SE,135,0.0,4.0,33,0.00,,,0.00,643.00,VWS V14.01,2013-11-11 15:58:00,
2013-11-11 10:59:00,56.9,28.8,30.24,SE,135,0.0,0.0,34,0.00,,,0.00,642.00,VWS V14.01,2013-11-11 15:59:00,
2013-11-11 11:00:00,57.0,27.5,30.24,SE,135,0.0,0.0,32,0.00,,,0.00,647.00,VWS V14.01,2013-11-11 16:00:00,
2013-11-11 11:01:00,57.0,28.2,30.24,SE,135,0.0,0.0,33,0.00,,,0.00,647.00,VWS V14.01,2013-11-11 16:01:00,
2013-11-11 11:02:00,56.9,29.5,30.24,SE,134,0.0,0.0,35,0.00,,,0.00,642.00,VWS V14.01,2013-11-11 16:02:00,
2013-11-11 11:03:00,57.0,29.6,30.24,SE,135,0.0,0.0,35,0.00,,,0.00,649.00,VWS V14.01,2013-11-11 16:03:00,
2013-11-11 11:04:00,57.0,29.6,30.24,SE,135,0.0,0.0,35,0.00,,,0.00,649.00,VWS V14.01,2013-11-11 16:04:00,
2013-11-11 11:05:00,57.2,29.8,30.24,SE,135,0.0,0.0,35,0.00,,,0.00,650.00,VWS V14.01,2013-11-11 16:05:00,
2013-11-11 11:06:00,57.2,29.1,30.24,SE,135,0.0,0.0,34,0.00,,,0.00,652.00,VWS V14.01,2013-11-11 16:06:00,
2013-11-11 11:07:00,57.0,28.2,30.24,SE,135,0.0,0.0,33,0.00,,,0.00,647.00,VWS V14.01,2013-11-11 16:07:00,
2013-11-11 11:08:00,57.5,30.8,30.24,SE,124,10.0,10.0,36,0.00,,,0.00,656.00,VWS V14.01,2013-11-11 16:08:00,
2013-11-11 11:09:00,57.6,29.5,30.24,ESE,115,6.0,10.0,34,0.00,,,0.00,656.00,VWS V14.01,2013-11-11 16:09:00,
2013-11-11 11:10:00,57.6,29.5,30.24,SE,136,3.0,6.0,34,0.00,,,0.00,657.00,VWS V14.01,2013-11-11 16:10:00,
2013-11-11 11:11:00,57.6,30.2,30.24,SE,125,0.0,4.0,35,0.00,,,0.00,657.00,VWS V14.01,2013-11-11 16:11:00,
2013-11-11 11:12:00,57.3,29.2,30.24,SE,135,0.0,0.0,34,0.00,,,0.00,652.00,VWS V14.01,2013-11-11 16:12:00,
2013-11-11 11:13:00,57.6,28.7,30.24,ESE,113,5.0,6.0,33,0.00,,,0.00,659.00,VWS V14.01,2013-11-11 16:13:00,
2013-11-11 11:14:00,57.6,29.5,30.24,SE,130,5.0,5.0,34,0.00,,,0.00,659.00,VWS V14.01,2013-11-11 16:14:00,
2013-11-11 11:15:00,57.6,30.9,30.24,ESE,122,3.0,5.0,36,0.00,,,0.00,659.00,VWS V14.01,2013-11-11 16:15:00,
2013-11-11 11:16:00,57.6,29.5,30.24,SSE,147,5.0,5.0,34,0.00,,,0.00,657.00,VWS V14.01,2013-11-11 16:16:00,
2013-11-11 11:17:00,57.6,30.2,30.24,SE,125,0.0,0.0,35,0.00,,,0.00,657.00,VWS V14.01,2013-11-11 16:17:00,
2013-11-11 11:18:00,57.5,27.9,30.24,SE,141,7.0,9.0,32,0.00,,,0.00,661.00,VWS V14.01,2013-11-11 16:18:00,
2013-11-11 11:19:00,57.5,29.4,30.24,SE,131,0.0,7.0,34,0.00,,,0.00,664.00,VWS V14.01,2013-11-11 16:19:00,
2013-11-11 11:20:00,57.5,29.4,30.24,South,179,5.0,7.0,34,0.00,,,0.00,663.00,VWS V14.01,2013-11-11 16:20:00,
2013-11-11 11:21:00,57.5,27.9,30.24,South,183,3.0,5.0,32,0.00,,,0.00,664.00,VWS V14.01,2013-11-11 16:21:00,
2013-11-11 11:22:00,57.6,29.5,30.24,SSE,148,2.0,5.0,34,0.00,,,0.00,657.00,VWS V14.01,2013-11-11 16:22:00,
2013-11-11 11:23:00,57.5,28.6,30.24,South,176,3.0,3.0,33,0.00,,,0.00,666.00,VWS V14.01,2013-11-11 16:23:00,
2013-11-11 11:24:00,57.5,27.9,30.24,SSE,150,6.0,6.0,32,0.00,,,0.00,664.00,VWS V14.01,2013-11-11 16:24:00,
2013-11-11 11:25:00,57.5,28.6,30.24,South,177,1.0,6.0,33,0.00,,,0.00,664.00,VWS V14.01,2013-11-11 16:25:00,
2013-11-11 11:26:00,57.5,29.4,30.24,South,176,2.0,4.0,34,0.00,,,0.00,666.00,VWS V14.01,2013-11-11 16:26:00,
2013-11-11 11:27:00,57.5,27.9,30.24,South,183,4.0,4.0,32,0.00,,,0.00,664.00,VWS V14.01,2013-11-11 16:27:00,
2013-11-11 11:28:00,57.5,28.6,30.24,South,176,2.0,2.0,33,0.00,,,0.00,664.00,VWS V14.01,2013-11-11 16:28:00,
2013-11-11 11:29:00,57.5,28.6,30.24,South,176,0.0,2.0,33,0.00,,,0.00,664.00,VWS V14.01,2013-11-11 16:29:00,
2013-11-11 11:30:00,57.6,30.2,30.23,South,172,0.0,1.0,35,0.00,,,0.00,666.00,VWS V14.01,2013-11-11 16:30:00,
2013-11-11 11:31:00,57.6,28.7,30.23,ENE,77,1.0,4.0,33,0.00,,,0.00,668.00,VWS V14.01,2013-11-11 16:31:00,
2013-11-11 11:32:00,57.5,29.4,30.24,South,176,3.0,3.0,34,0.00,,,0.00,666.00,VWS V14.01,2013-11-11 16:32:00,
2013-11-11 11:33:00,57.6,26.4,30.23,ENE,72,0.0,0.0,30,0.00,,,0.00,666.00,VWS V14.01,2013-11-11 16:33:00,
2013-11-11 11:34:00,57.8,27.4,30.23,ENE,72,0.0,0.0,31,0.00,,,0.00,670.00,VWS V14.01,2013-11-11 16:34:00,
2013-11-11 11:35:00,57.8,28.9,30.23,ENE,73,0.0,0.0,33,0.00,,,0.00,670.00,VWS V14.01,2013-11-11 16:35:00,
2013-11-11 11:36:00,57.8,28.9,30.23,ENE,73,3.0,3.0,33,0.00,,,0.00,671.00,VWS V14.01,2013-11-11 16:36:00,
2013-11-11 11:37:00,57.6,28.7,30.23,ENE,77,2.0,2.0,33,0.00,,,0.00,668.00,VWS V14.01,2013-11-11 16:37:00,
2013-11-11 11:38:00,57.6,28.7,30.23,NNW,348,1.0,2.0,33,0.00,,,0.00,673.00,VWS V14.01,2013-11-11 16:38:00,
2013-11-11 11:39:00,57.8,30.4,30.23,NE,34,2.0,3.0,35,0.00,,,0.00,675.00,VWS V14.01,2013-11-11 16:39:00,
2013-11-11 11:40:00,58.0,30.5,30.23,NE,55,5.0,5.0,35,0.00,,,0.00,673.00,VWS V14.01,2013-11-11 16:40:00,
2013-11-11 11:41:00,57.8,28.9,30.23,East,101,0.0,5.0,33,0.00,,,0.00,671.00,VWS V14.01,2013-11-11 16:41:00,
2013-11-11 11:42:00,57.8,28.9,30.23,ENE,73,2.0,3.0,33,0.00,,,0.00,671.00,VWS V14.01,2013-11-11 16:42:00,
2013-11-11 11:43:00,58.0,27.6,30.23,ESE,105,0.0,0.0,31,0.00,,,0.00,675.00,VWS V14.01,2013-11-11 16:43:00,
2013-11-11 11:44:00,58.0,26.8,30.23,ESE,105,0.0,0.0,30,0.00,,,0.00,673.00,VWS V14.01,2013-11-11 16:44:00,
2013-11-11 11:45:00,58.0,29.1,30.21,ESE,105,0.0,0.0,33,0.00,,,0.00,675.00,VWS V14.01,2013-11-11 16:45:00,
2013-11-11 11:46:00,58.0,26.8,30.21,ESE,105,0.0,0.0,30,0.00,,,0.00,675.00,VWS V14.01,2013-11-11 16:46:00,
2013-11-11 11:47:00,57.8,28.9,30.23,East,101,0.0,5.0,33,0.00,,,0.00,671.00,VWS V14.01,2013-11-11 16:47:00,
2013-11-11 11:48:00,58.1,27.6,30.21,SW,220,1.0,3.0,31,0.00,,,0.00,675.00,VWS V14.01,2013-11-11 16:48:00,
2013-11-11 11:49:00,58.1,28.4,30.21,SW,224,0.0,1.0,32,0.00,,,0.00,677.00,VWS V14.01,2013-11-11 16:49:00,
2013-11-11 11:50:00,58.1,28.4,30.21,SW,224,0.0,0.0,32,0.00,,,0.00,677.00,VWS V14.01,2013-11-11 16:50:00,
2013-11-11 11:51:00,58.3,30.1,30.21,SW,224,0.0,0.0,34,0.00,,,0.00,679.00,VWS V14.01,2013-11-11 16:51:00,
2013-11-11 11:52:00,58.0,26.8,30.21,ESE,105,0.0,0.0,30,0.00,,,0.00,675.00,VWS V14.01,2013-11-11 16:52:00,
2013-11-11 11:53:00,58.3,28.6,30.21,West,273,3.0,3.0,32,0.00,,,0.00,677.00,VWS V14.01,2013-11-11 16:53:00,
2013-11-11 11:54:00,58.4,30.2,30.21,NNE,27,2.0,3.0,34,0.00,,,0.00,677.00,VWS V14.01,2013-11-11 16:54:00,
2013-11-11 11:55:00,58.4,29.4,30.21,North,2,0.0,2.0,33,0.00,,,0.00,677.00,VWS V14.01,2013-11-11 16:55:00,
2013-11-11 11:56:00,58.6,28.9,30.21,East,92,3.0,5.0,32,0.00,,,0.00,677.00,VWS V14.01,2013-11-11 16:56:00,
2013-11-11 11:57:00,58.3,30.1,30.21,SW,224,0.0,0.0,34,0.00,,,0.00,679.00,VWS V14.01,2013-11-11 16:57:00,
2013-11-11 11:58:00,58.7,29.7,30.21,East,101,1.0,3.0,33,0.00,,,0.00,679.00,VWS V14.01,2013-11-11 16:58:00,
2013-11-11 11:59:00,58.9,31.3,30.21,East,86,3.0,6.0,35,0.00,,,0.00,680.00,VWS V14.01,2013-11-11 16:59:00,
2013-11-11 12:00:00,58.9,28.3,30.21,ENE,72,6.0,9.0,31,0.00,,,0.00,679.00,VWS V14.01,2013-11-11 17:00:00,
2013-11-11 12:01:00,58.9,27.5,30.21,ESE,115,4.0,6.0,30,0.00,,,0.00,677.00,VWS V14.01,2013-11-11 17:01:00,
2013-11-11 12:02:00,58.6,28.9,30.21,East,92,3.0,5.0,32,0.00,,,0.00,677.00,VWS V14.01,2013-11-11 17:02:00,
2013-11-11 12:03:00,58.9,28.3,30.21,ESE,120,3.0,5.0,31,0.00,,,0.00,677.00,VWS V14.01,2013-11-11 17:03:00,
2013-11-11 12:04:00,58.9,29.1,30.21,ESE,103,3.0,5.0,32,0.00,,,0.00,679.00,VWS V14.01,2013-11-11 17:04:00,
2013-11-11 12:05:00,58.9,29.1,30.21,ESE,111,2.0,4.0,32,0.00,,,0.00,677.00,VWS V14.01,2013-11-11 17:05:00,
2013-11-11 12:06:00,58.9,29.1,30.21,ESE,111,0.0,2.0,32,0.00,,,0.00,677.00,VWS V14.01,2013-11-11 17:06:00,
2013-11-11 12:07:00,58.9,28.3,30.21,SE,135,3.0,5.0,31,0.00,,,0.00,675.00,VWS V14.01,2013-11-11 17:07:00,
2013-11-11 12:08:00,58.9,28.3,30.21,ENE,72,6.0,9.0,31,0.00,,,0.00,679.00,VWS V14.01,2013-11-11 17:08:00,
2013-11-11 12:09:00,58.9,28.3,30.21,SE,144,0.0,0.0,31,0.00,,,0.00,675.00,VWS V14.01,2013-11-11 17:09:00,
2013-11-11 12:10:00,58.9,26.7,30.21,SE,145,0.0,0.0,29,0.00,,,0.00,677.00,VWS V14.01,2013-11-11 17:10:00,
2013-11-11 12:11:00,58.9,27.5,30.21,SE,139,0.0,0.0,30,0.00,,,0.00,677.00,VWS V14.01,2013-11-11 17:11:00,
2013-11-11 12:12:00,58.9,27.5,30.21,SE,143,0.0,4.0,30,0.00,,,0.00,675.00,VWS V14.01,2013-11-11 17:12:00,
2013-11-11 12:13:00,58.9,28.3,30.21,SE,135,3.0,5.0,31,0.00,,,0.00,677.00,VWS V14.01,2013-11-11 17:13:00,
2013-11-11 12:14:00,59.0,28.4,30.21,SSE,165,0.0,4.0,31,0.00,,,0.00,677.00,VWS V14.01,2013-11-11 17:14:00,
2013-11-11 12:15:00,59.0,27.6,30.20,SSE,165,0.0,0.0,30,0.00,,,0.00,673.00,VWS V14.01,2013-11-11 17:15:00,
2013-11-11 12:16:00,59.0,26.0,30.20,NNE,27,0.0,1.0,28,0.00,,,0.00,677.00,VWS V14.01,2013-11-11 17:16:00,
2013-11-11 12:17:00,59.0,26.8,30.20,NNE,30,2.0,2.0,29,0.00,,,0.00,673.00,VWS V14.01,2013-11-11 17:17:00,
2013-11-11 12:18:00,58.9,25.9,30.21,SE,139,0.0,4.0,28,0.00,,,0.00,675.00,VWS V14.01,2013-11-11 17:18:00,
2013-11-11 12:19:00,59.0,26.0,30.20,North,0,4.0,5.0,28,0.00,,,0.00,675.00,VWS V14.01,2013-11-11 17:19:00,
2013-11-11 12:20:00,59.0,26.0,30.20,North,0,0.0,4.0,28,0.00,,,0.00,671.00,VWS V14.01,2013-11-11 17:20:00,
2013-11-11 12:21:00,59.0,26.8,30.20,North,0,0.0,0.0,29,0.00,,,0.00,671.00,VWS V14.01,2013-11-11 17:21:00,
2013-11-11 12:22:00,59.0,26.8,30.20,North,0,0.0,0.0,29,0.00,,,0.00,673.00,VWS V14.01,2013-11-11 17:22:00,
2013-11-11 12:23:00,59.0,26.0,30.20,NNE,27,0.0,0.0,28,0.00,,,0.00,673.00,VWS V14.01,2013-11-11 17:23:00,
2013-11-11 12:24:00,59.0,26.8,30.20,NNE,14,0.0,1.0,29,0.00,,,0.00,670.00,VWS V14.01,2013-11-11 17:24:00,
2013-11-11 12:25:00,59.2,27.0,30.20,North,2,3.0,3.0,29,0.00,,,0.00,668.00,VWS V14.01,2013-11-11 17:25:00,
2013-11-11 12:26:00,59.2,27.8,30.20,NE,44,1.0,3.0,30,0.00,,,0.00,670.00,VWS V14.01,2013-11-11 17:26:00,
2013-11-11 12:27:00,59.2,27.8,30.20,NE,51,0.0,1.0,30,0.00,,,0.00,670.00,VWS V14.01,2013-11-11 17:27:00,
2013-11-11 12:28:00,59.0,26.8,30.20,North,0,0.0,0.0,29,0.00,,,0.00,673.00,VWS V14.01,2013-11-11 17:28:00,
2013-11-11 12:29:00,59.0,26.0,30.20,NE,51,0.0,0.0,28,0.00,,,0.00,668.00,VWS V14.01,2013-11-11 17:29:00,
2013-11-11 12:30:00,59.0,26.0,30.19,NE,51,0.0,0.0,28,0.00,,,0.00,668.00,VWS V14.01,2013-11-11 17:30:00,
2013-11-11 12:31:00,59.2,27.8,30.19,South,174,3.0,3.0,30,0.00,,,0.00,668.00,VWS V14.01,2013-11-11 17:31:00,
2013-11-11 12:32:00,59.2,27.0,30.19,South,174,0.0,4.0,29,0.00,,,0.00,666.00,VWS V14.01,2013-11-11 17:32:00,
2013-11-11 12:33:00,59.2,27.8,30.20,NE,51,0.0,1.0,30,0.00,,,0.00,670.00,VWS V14.01,2013-11-11 17:33:00,
2013-11-11 12:34:00,59.3,28.7,30.19,WSW,256,2.0,3.0,31,0.00,,,0.00,666.00,VWS V14.01,2013-11-11 17:34:00,
2013-11-11 12:35:00,59.3,27.9,30.19,SW,234,2.0,3.0,30,0.00,,,0.00,664.00,VWS V14.01,2013-11-11 17:35:00,
2013-11-11 12:36:00,59.5,27.2,30.19,SW,233,0.0,3.0,29,0.00,,,0.00,663.00,VWS V14.01,2013-11-11 17:36:00,
2013-11-11 12:37:00,59.5,27.2,30.19,SW,233,0.0,0.0,29,0.00,,,0.00,663.00,VWS V14.01,2013-11-11 17:37:00,
2013-11-11 12:38:00,59.2,27.0,30.19,South,174,0.0,4.0,29,0.00,,,0.00,666.00,VWS V14.01,2013-11-11 17:38:00,
2013-11-11 12:39:00,59.6,27.3,30.19,SW,233,0.0,0.0,29,0.00,,,0.00,659.00,VWS V14.01,2013-11-11 17:39:00,
2013-11-11 12:40:00,59.6,27.3,30.19,SW,233,0.0,0.0,29,0.00,,,0.00,661.00,VWS V14.01,2013-11-11 17:40:00,
2013-11-11 12:41:00,59.8,26.6,30.19,South,169,0.0,1.0,28,0.00,,,0.00,659.00,VWS V14.01,2013-11-11 17:41:00,
2013-11-11 12:42:00,59.8,26.6,30.19,SSE,155,0.0,0.0,28,0.00,,,0.00,657.00,VWS V14.01,2013-11-11 17:42:00,
2013-11-11 12:43:00,59.5,27.2,30.19,SW,233,0.0,0.0,29,0.00,,,0.00,663.00,VWS V14.01,2013-11-11 17:43:00,
2013-11-11 12:44:00,59.8,26.6,30.19,ESE,121,0.0,0.0,28,0.00,,,0.00,656.00,VWS V14.01,2013-11-11 17:44:00,
2013-11-11 12:45:00,59.9,26.7,30.18,ESE,121,0.0,0.0,28,0.00,,,0.00,657.00,VWS V14.01,2013-11-11 17:45:00,
2013-11-11 12:46:00,59.9,27.6,30.18,ESE,121,0.0,0.0,29,0.00,,,0.00,654.00,VWS V14.01,2013-11-11 17:46:00,
2013-11-11 12:47:00,60.1,27.8,30.18,ESE,121,0.0,0.0,29,0.00,,,0.00,652.00,VWS V14.01,2013-11-11 17:47:00,
2013-11-11 12:48:00,59.8,26.6,30.19,SSE,158,0.0,0.0,28,0.00,,,0.00,659.00,VWS V14.01,2013-11-11 17:48:00,
2013-11-11 12:49:00,60.4,28.0,30.18,ESE,122,0.0,0.0,29,0.00,,,0.00,654.00,VWS V14.01,2013-11-11 17:49:00,
2013-11-11 12:50:00,60.5,27.3,30.18,ESE,122,0.0,0.0,28,0.00,,,0.00,650.00,VWS V14.01,2013-11-11 17:50:00,
2013-11-11 12:51:00,60.5,26.4,30.18,ESE,122,0.0,0.0,27,0.00,,,0.00,650.00,VWS V14.01,2013-11-11 17:51:00,
2013-11-11 12:52:00,60.7,27.4,30.18,ESE,122,0.0,1.0,28,0.00,,,0.00,649.00,VWS V14.01,2013-11-11 17:52:00,
2013-11-11 12:53:00,60.1,27.8,30.18,ESE,121,0.0,0.0,29,0.00,,,0.00,652.00,VWS V14.01,2013-11-11 17:53:00,
2013-11-11 12:54:00,60.9,27.6,30.18,ESE,122,0.0,0.0,28,0.00,,,0.00,647.00,VWS V14.01,2013-11-11 17:54:00,
2013-11-11 12:55:00,60.9,26.7,30.18,ESE,110,0.0,1.0,27,0.00,,,0.00,647.00,VWS V14.01,2013-11-11 17:55:00,
2013-11-11 12:56:00,60.9,26.7,30.18,ESE,104,4.0,4.0,27,0.00,,,0.00,645.00,VWS V14.01,2013-11-11 17:56:00,
2013-11-11 12:57:00,60.9,26.7,30.18,East,93,0.0,4.0,27,0.00,,,0.00,645.00,VWS V14.01,2013-11-11 17:57:00,
2013-11-11 12:58:00,60.7,26.5,30.18,ESE,122,0.0,1.0,27,0.00,,,0.00,649.00,VWS V14.01,2013-11-11 17:58:00,
2013-11-11 12:59:00,61.0,28.5,30.18,WNW,290,2.0,4.0,29,0.00,,,0.00,643.00,VWS V14.01,2013-11-11 17:59:00,
2013-11-11 13:00:00,61.0,27.7,30.18,WNW,290,0.0,3.0,28,0.00,,,0.00,643.00,VWS V14.01,2013-11-11 18:00:00,
2013-11-11 13:01:00,60.9,27.6,30.18,West,261,0.0,2.0,28,0.00,,,0.00,640.00,VWS V14.01,2013-11-11 18:01:00,
2013-11-11 13:02:00,60.9,27.6,30.18,West,261,0.0,0.0,28,0.00,,,0.00,640.00,VWS V14.01,2013-11-11 18:02:00,
2013-11-11 13:03:00,60.9,26.7,30.18,East,93,1.0,4.0,27,0.00,,,0.00,645.00,VWS V14.01,2013-11-11 18:03:00,
2013-11-11 13:04:00,60.9,26.7,30.18,West,261,0.0,0.0,27,0.00,,,0.00,635.00,VWS V14.01,2013-11-11 18:04:00,
2013-11-11 13:05:00,60.9,27.6,30.18,North,358,0.0,1.0,28,0.00,,,0.00,635.00,VWS V14.01,2013-11-11 18:05:00,
2013-11-11 13:06:00,60.9,26.7,30.18,North,358,0.0,0.0,27,0.00,,,0.00,635.00,VWS V14.01,2013-11-11 18:06:00,
2013-11-11 13:07:00,60.9,26.7,30.18,North,358,0.0,0.0,27,0.00,,,0.00,633.00,VWS V14.01,2013-11-11 18:07:00,
2013-11-11 13:08:00,60.9,27.6,30.18,West,261,0.0,0.0,28,0.00,,,0.00,640.00,VWS V14.01,2013-11-11 18:08:00,
2013-11-11 13:09:00,61.0,27.7,30.18,North,354,2.0,2.0,28,0.00,,,0.00,631.00,VWS V14.01,2013-11-11 18:09:00,
2013-11-11 13:10:00,61.0,27.7,30.18,North,358,0.0,3.0,28,0.00,,,0.00,631.00,VWS V14.01,2013-11-11 18:10:00,
2013-11-11 13:11:00,61.0,27.7,30.18,NNE,23,0.0,3.0,28,0.00,,,0.00,628.00,VWS V14.01,2013-11-11 18:11:00,
2013-11-11 13:12:00,61.0,27.7,30.18,NNE,23,0.0,0.0,28,0.00,,,0.00,628.00,VWS V14.01,2013-11-11 18:12:00,
2013-11-11 13:13:00,60.9,26.7,30.18,North,358,0.0,0.0,27,0.00,,,0.00,633.00,VWS V14.01,2013-11-11 18:13:00,
2013-11-11 13:14:00,61.0,27.7,30.18,NNE,23,0.0,0.0,28,0.00,,,0.00,626.00,VWS V14.01,2013-11-11 18:14:00,
2013-11-11 13:15:00,61.0,26.8,30.17,North,0,5.0,5.0,27,0.00,,,0.00,626.00,VWS V14.01,2013-11-11 18:15:00,
2013-11-11 13:16:00,61.0,27.7,30.17,North,6,4.0,6.0,28,0.00,,,0.00,622.00,VWS V14.01,2013-11-11 18:16:00,
2013-11-11 13:17:00,61.0,27.7,30.17,North,6,1.0,5.0,28,0.00,,,0.00,622.00,VWS V14.01,2013-11-11 18:17:00,
2013-11-11 13:18:00,61.0,27.7,30.18,NNE,23,0.0,0.0,28,0.00,,,0.00,628.00,VWS V14.01,2013-11-11 18:18:00,
2013-11-11 13:19:00,60.9,27.6,30.17,North,6,0.0,0.0,28,0.00,,,0.00,621.00,VWS V14.01,2013-11-11 18:19:00,
2013-11-11 13:20:00,60.9,27.6,30.17,North,6,0.0,0.0,28,0.00,,,0.00,619.00,VWS V14.01,2013-11-11 18:20:00,
2013-11-11 13:21:00,60.9,26.7,30.17,North,10,0.0,0.0,27,0.00,,,0.00,617.00,VWS V14.01,2013-11-11 18:21:00,
2013-11-11 13:22:00,60.9,27.6,30.17,ESE,119,1.0,3.0,28,0.00,,,0.00,612.00,VWS V14.01,2013-11-11 18:22:00,
2013-11-11 13:23:00,61.0,27.7,30.17,North,6,4.0,5.0,28,0.00,,,0.00,622.00,VWS V14.01,2013-11-11 18:23:00,
2013-11-11 13:24:00,60.5,26.4,30.17,SSE,155,2.0,3.0,27,0.00,,,0.00,610.00,VWS V14.01,2013-11-11 18:24:00,
2013-11-11 13:25:00,60.4,27.2,30.17,SSE,153,1.0,5.0,28,0.00,,,0.00,612.00,VWS V14.01,2013-11-11 18:25:00,
2013-11-11 13:26:00,60.2,27.0,30.17,SSE,154,0.0,1.0,28,0.00,,,0.00,612.00,VWS V14.01,2013-11-11 18:26:00,
2013-11-11 13:27:00,60.2,26.1,30.17,SE,144,0.0,0.0,27,0.00,,,0.00,608.00,VWS V14.01,2013-11-11 18:27:00,
2013-11-11 13:28:00,60.9,27.6,30.17,ESE,108,0.0,3.0,28,0.00,,,0.00,615.00,VWS V14.01,2013-11-11 18:28:00,
2013-11-11 13:29:00,60.2,26.1,30.17,East,99,0.0,2.0,27,0.00,,,0.00,603.00,VWS V14.01,2013-11-11 18:29:00,
2013-11-11 13:30:00,60.4,27.2,30.17,East,99,0.0,0.0,28,0.00,,,0.00,599.00,VWS V14.01,2013-11-11 18:30:00,
2013-11-11 13:31:00,60.4,26.3,30.17,ESE,107,0.0,1.0,27,0.00,,,0.00,599.00,VWS V14.01,2013-11-11 18:31:00,
2013-11-11 13:32:00,60.5,26.4,30.17,East,97,0.0,0.0,27,0.00,,,0.00,598.00,VWS V14.01,2013-11-11 18:32:00,
2013-11-11 13:33:00,60.2,26.1,30.17,SE,144,0.0,0.0,27,0.00,,,0.00,608.00,VWS V14.01,2013-11-11 18:33:00,
2013-11-11 13:34:00,60.7,26.5,30.17,ENE,59,0.0,4.0,27,0.00,,,0.00,596.00,VWS V14.01,2013-11-11 18:34:00,
2013-11-11 13:35:00,60.9,27.6,30.17,ENE,59,0.0,0.0,28,0.00,,,0.00,592.00,VWS V14.01,2013-11-11 18:35:00,
2013-11-11 13:36:00,60.9,27.6,30.17,ENE,58,0.0,0.0,28,0.00,,,0.00,592.00,VWS V14.01,2013-11-11 18:36:00,
2013-11-11 13:37:00,60.9,26.7,30.17,ENE,59,0.0,1.0,27,0.00,,,0.00,587.00,VWS V14.01,2013-11-11 18:37:00,
2013-11-11 13:38:00,60.5,26.4,30.17,East,99,0.0,0.0,27,0.00,,,0.00,598.00,VWS V14.01,2013-11-11 18:38:00,
2013-11-11 13:39:00,61.0,27.7,30.17,ENE,68,0.0,1.0,28,0.00,,,0.00,585.00,VWS V14.01,2013-11-11 18:39:00,
2013-11-11 13:40:00,61.0,26.8,30.17,ENE,68,0.0,0.0,27,0.00,,,0.00,582.00,VWS V14.01,2013-11-11 18:40:00,
2013-11-11 13:41:00,61.0,27.7,30.17,ENE,68,0.0,0.0,28,0.00,,,0.00,582.00,VWS V14.01,2013-11-11 18:41:00,
2013-11-11 13:42:00,61.2,27.0,30.17,ENE,68,0.0,0.0,27,0.00,,,0.00,580.00,VWS V14.01,2013-11-11 18:42:00,
2013-11-11 13:43:00,60.9,26.7,30.17,ENE,59,0.0,1.0,27,0.00,,,0.00,587.00,VWS V14.01,2013-11-11 18:43:00,
2013-11-11 13:44:00,61.2,27.0,30.17,ENE,67,0.0,0.0,27,0.00,,,0.00,577.00,VWS V14.01,2013-11-11 18:44:00,
2013-11-11 13:45:00,61.3,27.1,30.16,ENE,68,1.0,1.0,27,0.00,,,0.00,575.00,VWS V14.01,2013-11-11 18:45:00,
2013-11-11 13:46:00,61.3,27.9,30.16,ENE,68,0.0,1.0,28,0.00,,,0.00,575.00,VWS V14.01,2013-11-11 18:46:00,
2013-11-11 13:47:00,61.3,27.1,30.16,ENE,68,0.0,0.0,27,0.00,,,0.00,573.00,VWS V14.01,2013-11-11 18:47:00,
2013-11-11 13:48:00,61.2,27.0,30.17,ENE,68,0.0,0.0,27,0.00,,,0.00,580.00,VWS V14.01,2013-11-11 18:48:00,
2013-11-11 13:49:00,61.2,27.0,30.16,ENE,68,0.0,0.0,27,0.00,,,0.00,570.00,VWS V14.01,2013-11-11 18:49:00,
2013-11-11 13:50:00,61.2,27.0,30.16,ENE,68,0.0,0.0,27,0.00,,,0.00,568.00,VWS V14.01,2013-11-11 18:50:00,
2013-11-11 13:51:00,61.2,27.9,30.16,ENE,68,1.0,2.0,28,0.00,,,0.00,568.00,VWS V14.01,2013-11-11 18:51:00,
2013-11-11 13:52:00,61.2,27.9,30.16,East,79,3.0,3.0,28,0.00,,,0.00,566.00,VWS V14.01,2013-11-11 18:52:00,
2013-11-11 13:53:00,61.3,27.1,30.16,ENE,68,0.0,0.0,27,0.00,,,0.00,573.00,VWS V14.01,2013-11-11 18:53:00,
2013-11-11 13:54:00,61.3,27.9,30.16,East,82,0.0,0.0,28,0.00,,,0.00,554.00,VWS V14.01,2013-11-11 18:54:00,
2013-11-11 13:55:00,61.3,27.1,30.16,East,82,0.0,0.0,27,0.00,,,0.00,482.00,VWS V14.01,2013-11-11 18:55:00,
2013-11-11 13:56:00,61.3,27.1,30.16,East,82,0.0,0.0,27,0.00,,,0.00,555.00,VWS V14.01,2013-11-11 18:56:00,
2013-11-11 13:57:00,61.5,27.2,30.16,East,83,0.0,2.0,27,0.00,,,0.00,557.00,VWS V14.01,2013-11-11 18:57:00,
2013-11-11 13:58:00,61.2,27.9,30.16,ENE,68,2.0,2.0,28,0.00,,,0.00,566.00,VWS V14.01,2013-11-11 18:58:00,
2013-11-11 13:59:00,61.3,27.1,30.16,East,84,3.0,3.0,27,0.00,,,0.00,548.00,VWS V14.01,2013-11-11 18:59:00,
2013-11-11 14:00:00,61.3,27.9,30.15,East,86,0.0,3.0,28,0.00,,,0.00,547.00,VWS V14.01,2013-11-11 19:00:00,
2013-11-11 14:01:00,61.3,27.9,30.15,East,86,0.0,0.0,28,0.00,,,0.00,547.00,VWS V14.01,2013-11-11 19:01:00,
2013-11-11 14:02:00,61.3,27.1,30.15,East,86,0.0,0.0,27,0.00,,,0.00,545.00,VWS V14.01,2013-11-11 19:02:00,
2013-11-11 14:03:00,61.5,27.2,30.16,East,83,0.0,2.0,27,0.00,,,0.00,557.00,VWS V14.01,2013-11-11 19:03:00,
2013-11-11 14:04:00,61.2,27.0,30.15,East,89,0.0,1.0,27,0.00,,,0.00,541.00,VWS V14.01,2013-11-11 19:04:00,
2013-11-11 14:05:00,61.2,26.1,30.15,East,89,0.0,0.0,26,0.00,,,0.00,541.00,VWS V14.01,2013-11-11 19:05:00,
2013-11-11 14:06:00,61.2,26.1,30.15,East,89,0.0,0.0,26,0.00,,,0.00,540.00,VWS V14.01,2013-11-11 19:06:00,
2013-11-11 14:07:00,61.2,27.0,30.15,East,89,0.0,0.0,27,0.00,,,0.00,540.00,VWS V14.01,2013-11-11 19:07:00,
2013-11-11 14:08:00,61.3,27.1,30.15,East,86,0.0,0.0,27,0.00,,,0.00,545.00,VWS V14.01,2013-11-11 19:08:00,
2013-11-11 14:09:00,61.3,27.9,30.15,ESE,120,0.0,3.0,28,0.00,,,0.00,534.00,VWS V14.01,2013-11-11 19:09:00,
2013-11-11 14:10:00,61.5,28.1,30.15,SE,124,0.0,1.0,28,0.00,,,0.00,531.00,VWS V14.01,2013-11-11 19:10:00,
2013-11-11 14:11:00,61.5,27.2,30.15,SE,124,1.0,1.0,27,0.00,,,0.00,531.00,VWS V14.01,2013-11-11 19:11:00,
2013-11-11 14:12:00,61.6,28.2,30.15,SE,136,0.0,3.0,28,0.00,,,0.00,520.00,VWS V14.01,2013-11-11 19:12:00,
2013-11-11 14:13:00,61.2,27.0,30.15,East,89,0.0,0.0,27,0.00,,,0.00,540.00,VWS V14.01,2013-11-11 19:13:00,
2013-11-11 14:14:00,61.8,26.6,30.15,SE,135,0.0,1.0,26,0.00,,,0.00,497.00,VWS V14.01,2013-11-11 19:14:00,
2013-11-11 14:15:00,62.0,27.7,30.14,ESE,115,0.0,0.0,27,0.00,,,0.00,519.00,VWS V14.01,2013-11-11 19:15:00,
2013-11-11 14:16:00,62.0,27.7,30.14,ESE,115,0.0,0.0,27,0.00,,,0.00,517.00,VWS V14.01,2013-11-11 19:16:00,
2013-11-11 14:17:00,62.0,26.8,30.14,ESE,115,0.0,0.0,26,0.00,,,0.00,513.00,VWS V14.01,2013-11-11 19:17:00,
2013-11-11 14:18:00,61.6,28.2,30.15,SE,136,1.0,3.0,28,0.00,,,0.00,520.00,VWS V14.01,2013-11-11 19:18:00,
2013-11-11 14:19:00,62.1,27.8,30.14,ESE,115,0.0,0.0,27,0.00,,,0.00,508.00,VWS V14.01,2013-11-11 19:19:00,
2013-11-11 14:20:00,62.1,26.8,30.14,ESE,115,0.0,0.0,26,0.00,,,0.00,504.00,VWS V14.01,2013-11-11 19:20:00,
2013-11-11 14:21:00,62.3,26.1,30.14,ESE,115,0.0,0.0,25,0.00,,,0.00,503.00,VWS V14.01,2013-11-11 19:21:00,
2013-11-11 14:22:00,62.3,27.0,30.14,ESE,115,0.0,0.0,26,0.00,,,0.00,499.00,VWS V14.01,2013-11-11 19:22:00,
2013-11-11 14:23:00,62.0,26.8,30.14,ESE,115,0.0,0.0,26,0.00,,,0.00,517.00,VWS V14.01,2013-11-11 19:23:00,
2013-11-11 14:24:00,62.3,26.1,30.14,ESE,115,0.0,0.0,25,0.00,,,0.00,499.00,VWS V14.01,2013-11-11 19:24:00,
2013-11-11 14:25:00,62.3,26.1,30.14,ESE,115,0.0,0.0,25,0.00,,,0.00,503.00,VWS V14.01,2013-11-11 19:25:00,
2013-11-11 14:26:00,62.4,27.1,30.14,ESE,115,0.0,0.0,26,0.00,,,0.00,457.00,VWS V14.01,2013-11-11 19:26:00,
2013-11-11 14:27:00,62.4,27.1,30.14,ESE,115,0.0,0.0,26,0.00,,,0.00,492.00,VWS V14.01,2013-11-11 19:27:00,
2013-11-11 14:28:00,62.3,27.0,30.14,ESE,115,0.0,0.0,26,0.00,,,0.00,501.00,VWS V14.01,2013-11-11 19:28:00,
2013-11-11 14:29:00,62.4,27.1,30.14,ESE,105,0.0,0.0,26,0.00,,,0.00,492.00,VWS V14.01,2013-11-11 19:29:00,
2013-11-11 14:30:00,62.4,28.0,30.14,North,354,0.0,1.0,27,0.00,,,0.00,192.00,VWS V14.01,2013-11-11 19:30:00,
2013-11-11 14:31:00,62.4,28.0,30.14,North,354,0.0,0.0,27,0.00,,,0.00,192.00,VWS V14.01,2013-11-11 19:31:00,
2013-11-11 14:32:00,62.3,26.1,30.14,North,354,0.0,0.0,25,0.00,,,0.00,192.00,VWS V14.01,2013-11-11 19:32:00,
2013-11-11 14:33:00,62.4,27.1,30.14,ESE,115,0.0,0.0,26,0.00,,,0.00,454.00,VWS V14.01,2013-11-11 19:33:00,
2013-11-11 14:34:00,62.1,26.8,30.14,North,354,0.0,0.0,26,0.00,,,0.00,197.00,VWS V14.01,2013-11-11 19:34:00,
2013-11-11 14:35:00,62.0,26.8,30.14,North,354,0.0,1.0,26,0.00,,,0.00,311.00,VWS V14.01,2013-11-11 19:35:00,
2013-11-11 14:36:00,62.0,26.8,30.14,North,354,0.0,0.0,26,0.00,,,0.00,234.00,VWS V14.01,2013-11-11 19:36:00,
2013-11-11 14:37:00,61.8,27.5,30.14,North,354,0.0,0.0,27,0.00,,,0.00,267.00,VWS V14.01,2013-11-11 19:37:00,
2013-11-11 14:38:00,62.4,27.1,30.14,North,354,0.0,0.0,26,0.00,,,0.00,192.00,VWS V14.01,2013-11-11 19:38:00,
2013-11-11 14:39:00,61.5,27.2,30.14,SSW,205,0.0,3.0,27,0.00,,,0.00,429.00,VWS V14.01,2013-11-11 19:39:00,
2013-11-11 14:40:00,61.2,27.0,30.14,SSW,205,0.0,2.0,27,0.00,,,0.00,469.00,VWS V14.01,2013-11-11 19:40:00,
2013-11-11 14:41:00,61.2,27.0,30.14,SSW,205,0.0,1.0,27,0.00,,,0.00,464.00,VWS V14.01,2013-11-11 19:41:00,
2013-11-11 14:42:00,61.0,26.8,30.14,SSW,205,0.0,0.0,27,0.00,,,0.00,457.00,VWS V14.01,2013-11-11 19:42:00,
2013-11-11 14:43:00,61.8,27.5,30.14,North,354,0.0,0.0,27,0.00,,,0.00,267.00,VWS V14.01,2013-11-11 19:43:00,
2013-11-11 14:44:00,60.9,27.6,30.14,SSW,205,0.0,0.0,28,0.00,,,0.00,452.00,VWS V14.01,2013-11-11 19:44:00,
2013-11-11 14:45:00,60.9,27.6,30.14,SSW,205,0.0,0.0,28,0.00,,,0.00,445.00,VWS V14.01,2013-11-11 19:45:00,
2013-11-11 14:46:00,60.9,26.7,30.14,SW,214,2.0,5.0,27,0.00,,,0.00,439.00,VWS V14.01,2013-11-11 19:46:00,
2013-11-11 14:47:00,60.9,27.6,30.14,SW,214,0.0,2.0,28,0.00,,,0.00,436.00,VWS V14.01,2013-11-11 19:47:00,
2013-11-11 14:48:00,61.0,26.8,30.14,SSW,204,0.0,0.0,27,0.00,,,0.00,457.00,VWS V14.01,2013-11-11 19:48:00,
2013-11-11 14:49:00,60.9,26.7,30.14,SSW,203,0.0,0.0,27,0.00,,,0.00,431.00,VWS V14.01,2013-11-11 19:49:00,
2013-11-11 14:50:00,60.7,26.5,30.14,SSW,203,0.0,0.0,27,0.00,,,0.00,429.00,VWS V14.01,2013-11-11 19:50:00,
2013-11-11 14:51:00,60.7,27.4,30.14,SSW,203,0.0,0.0,28,0.00,,,0.00,422.00,VWS V14.01,2013-11-11 19:51:00,
2013-11-11 14:52:00,60.7,26.5,30.14,SSW,203,0.0,0.0,27,0.00,,,0.00,388.00,VWS V14.01,2013-11-11 19:52:00,
2013-11-11 14:53:00,60.9,27.6,30.14,SW,214,0.0,2.0,28,0.00,,,0.00,436.00,VWS V14.01,2013-11-11 19:53:00,
2013-11-11 14:54:00,60.5,27.3,30.14,SSW,203,0.0,0.0,28,0.00,,,0.00,174.00,VWS V14.01,2013-11-11 19:54:00,
2013-11-11 14:55:00,60.4,27.2,30.14,SSW,203,0.0,0.0,28,0.00,,,0.00,218.00,VWS V14.01,2013-11-11 19:55:00,
2013-11-11 14:56:00,60.2,27.0,30.14,SSW,203,0.0,0.0,28,0.00,,,0.00,114.00,VWS V14.01,2013-11-11 19:56:00,
2013-11-11 14:57:00,60.1,26.0,30.14,SSW,203,0.0,0.0,27,0.00,,,0.00,65.00,VWS V14.01,2013-11-11 19:57:00,
2013-11-11 14:58:00,60.7,26.5,30.14,SSW,203,0.0,0.0,27,0.00,,,0.00,422.00,VWS V14.01,2013-11-11 19:58:00,
2013-11-11 14:59:00,60.1,26.0,30.14,SSW,203,0.0,0.0,27,0.00,,,0.00,60.00,VWS V14.01,2013-11-11 19:59:00,
2013-11-11 15:00:00,59.9,26.7,30.12,SSW,203,0.0,0.0,28,0.00,,,0.00,60.00,VWS V14.01,2013-11-11 20:00:00,
2013-11-11 15:01:00,59.9,25.9,30.12,SSW,203,0.0,0.0,27,0.00,,,0.00,65.00,VWS V14.01,2013-11-11 20:01:00,
2013-11-11 15:02:00,59.9,26.7,30.12,SSW,203,0.0,0.0,28,0.00,,,0.00,65.00,VWS V14.01,2013-11-11 20:02:00,
2013-11-11 15:03:00,60.1,26.9,30.14,SSW,203,0.0,0.0,28,0.00,,,0.00,114.00,VWS V14.01,2013-11-11 20:03:00,
2013-11-11 15:04:00,59.9,26.7,30.12,SSW,207,0.0,2.0,28,0.00,,,0.00,74.00,VWS V14.01,2013-11-11 20:04:00,
2013-11-11 15:05:00,59.9,25.9,30.12,SSW,207,0.0,0.0,27,0.00,,,0.00,109.00,VWS V14.01,2013-11-11 20:05:00,
2013-11-11 15:06:00,59.8,26.6,30.12,SSW,207,3.0,3.0,28,0.00,,,0.00,127.00,VWS V14.01,2013-11-11 20:06:00,
2013-11-11 15:07:00,59.8,26.6,30.12,SSW,200,3.0,4.0,28,0.00,,,0.00,98.00,VWS V14.01,2013-11-11 20:07:00,
2013-11-11 15:08:00,59.9,25.9,30.13,SSW,203,0.0,0.0,27,0.00,,,0.00,65.00,VWS V14.01,2013-11-11 20:08:00,
2013-11-11 15:09:00,59.6,26.5,30.12,South,189,4.0,4.0,28,0.00,,,0.00,63.00,VWS V14.01,2013-11-11 20:09:00,
2013-11-11 15:10:00,59.6,25.6,30.12,South,189,2.0,4.0,27,0.00,,,0.00,62.00,VWS V14.01,2013-11-11 20:10:00,
2013-11-11 15:11:00,59.6,26.5,30.12,South,189,0.0,2.0,28,0.00,,,0.00,58.00,VWS V14.01,2013-11-11 20:11:00,
2013-11-11 15:12:00,59.6,25.6,30.12,South,189,0.0,2.0,27,0.00,,,0.00,56.00,VWS V14.01,2013-11-11 20:12:00,
2013-11-11 15:13:00,59.8,25.8,30.13,SSW,207,2.0,3.0,27,0.00,,,0.00,98.00,VWS V14.01,2013-11-11 20:13:00,
2013-11-11 15:14:00,59.5,26.4,30.12,SSW,203,2.0,5.0,28,0.00,,,0.00,54.00,VWS V14.01,2013-11-11 20:14:00,
2013-11-11 15:15:00,59.5,26.4,30.12,SSW,205,0.0,3.0,28,0.00,,,0.00,53.00,VWS V14.01,2013-11-11 20:15:00,
2013-11-11 15:16:00,59.5,25.5,30.12,SSW,205,0.0,1.0,27,0.00,,,0.00,51.00,VWS V14.01,2013-11-11 20:16:00,
2013-11-11 15:17:00,59.5,25.5,30.12,SSW,205,0.0,0.0,27,0.00,,,0.00,51.00,VWS V14.01,2013-11-11 20:17:00,
2013-11-11 15:18:00,59.6,25.6,30.13,South,189,0.0,2.0,27,0.00,,,0.00,56.00,VWS V14.01,2013-11-11 20:18:00,
2013-11-11 15:19:00,59.3,25.4,30.12,SSW,205,0.0,0.0,27,0.00,,,0.00,81.00,VWS V14.01,2013-11-11 20:19:00,
2013-11-11 15:20:00,59.3,25.4,30.12,SSW,205,0.0,0.0,27,0.00,,,0.00,53.00,VWS V14.01,2013-11-11 20:20:00,
2013-11-11 15:21:00,59.2,26.1,30.12,SSW,201,4.0,5.0,28,0.00,,,0.00,51.00,VWS V14.01,2013-11-11 20:21:00,
2013-11-11 15:22:00,59.2,25.3,30.12,SSW,201,2.0,4.0,27,0.00,,,0.00,51.00,VWS V14.01,2013-11-11 20:22:00,
2013-11-11 15:23:00,59.5,25.5,30.13,SSW,205,0.0,0.0,27,0.00,,,0.00,51.00,VWS V14.01,2013-11-11 20:23:00,
2013-11-11 15:24:00,59.0,25.1,30.12,SSW,201,0.0,0.0,27,0.00,,,0.00,76.00,VWS V14.01,2013-11-11 20:24:00,
2013-11-11 15:25:00,59.0,25.1,30.12,SSW,201,0.0,0.0,27,0.00,,,0.00,81.00,VWS V14.01,2013-11-11 20:25:00,
2013-11-11 15:26:00,59.0,26.0,30.12,SSW,201,0.0,0.0,28,0.00,,,0.00,51.00,VWS V14.01,2013-11-11 20:26:00,
2013-11-11 15:27:00,58.9,25.0,30.12,SSW,201,0.0,1.0,27,0.00,,,0.00,47.00,VWS V14.01,2013-11-11 20:27:00,
2013-11-11 15:28:00,59.2,25.3,30.13,SSW,201,4.0,4.0,27,0.00,,,0.00,51.00,VWS V14.01,2013-11-11 20:28:00,
2013-11-11 15:29:00,58.7,25.7,30.12,SSW,201,5.0,5.0,28,0.00,,,0.00,47.00,VWS V14.01,2013-11-11 20:29:00,
2013-11-11 15:30:00,58.7,24.8,30.12,SSW,201,1.0,5.0,27,0.00,,,0.00,65.00,VWS V14.01,2013-11-11 20:30:00,
2013-11-11 15:31:00,58.7,24.8,30.12,SSW,201,0.0,1.0,27,0.00,,,0.00,76.00,VWS V14.01,2013-11-11 20:31:00,
2013-11-11 15:32:00,58.6,25.6,30.12,SSW,201,0.0,0.0,28,0.00,,,0.00,51.00,VWS V14.01,2013-11-11 20:32:00,
2013-11-11 15:33:00,58.9,25.9,30.13,SSW,201,0.0,1.0,28,0.00,,,0.00,51.00,VWS V14.01,2013-11-11 20:33:00,
2013-11-11 15:34:00,58.6,25.6,30.12,SSW,206,0.0,0.0,28,0.00,,,0.00,46.00,VWS V14.01,2013-11-11 20:34:00,
2013-11-11 15:35:00,58.6,24.8,30.12,SW,231,2.0,3.0,27,0.00,,,0.00,46.00,VWS V14.01,2013-11-11 20:35:00,
2013-11-11 15:36:00,58.4,25.5,30.12,SW,231,0.0,2.0,28,0.00,,,0.00,46.00,VWS V14.01,2013-11-11 20:36:00,
2013-11-11 15:37:00,58.4,26.3,30.12,SW,231,0.0,0.0,29,0.00,,,0.00,46.00,VWS V14.01,2013-11-11 20:37:00,
2013-11-11 15:38:00,58.6,24.8,30.12,SSW,201,0.0,0.0,27,0.00,,,0.00,72.00,VWS V14.01,2013-11-11 20:38:00,
2013-11-11 15:39:00,58.3,27.0,30.12,SSW,192,5.0,6.0,30,0.00,,,0.00,44.00,VWS V14.01,2013-11-11 20:39:00,
2013-11-11 15:40:00,58.3,27.0,30.12,South,172,0.0,5.0,30,0.00,,,0.00,44.00,VWS V14.01,2013-11-11 20:40:00,
2013-11-11 15:41:00,58.3,27.8,30.12,South,172,0.0,1.0,31,0.00,,,0.00,44.00,VWS V14.01,2013-11-11 20:41:00,
2013-11-11 15:42:00,58.4,26.3,30.12,SW,231,0.0,0.0,29,0.00,,,0.00,46.00,VWS V14.01,2013-11-11 20:42:00,
2013-11-11 15:43:00,58.1,26.9,30.12,South,172,0.0,0.0,30,0.00,,,0.00,44.00,VWS V14.01,2013-11-11 20:43:00,
2013-11-11 15:44:00,58.1,28.4,30.12,SE,146,6.0,6.0,32,0.00,,,0.00,44.00,VWS V14.01,2013-11-11 20:44:00,
2013-11-11 15:45:00,58.0,28.3,30.12,SSE,148,2.0,6.0,32,0.00,,,0.00,42.00,VWS V14.01,2013-11-11 20:45:00,
2013-11-11 15:46:00,58.0,28.3,30.12,SSE,153,2.0,5.0,32,0.00,,,0.00,42.00,VWS V14.01,2013-11-11 20:46:00,
2013-11-11 15:47:00,58.3,27.8,30.12,South,172,1.0,1.0,31,0.00,,,0.00,44.00,VWS V14.01,2013-11-11 20:47:00,
2013-11-11 15:48:00,57.8,27.4,30.12,SSE,155,1.0,1.0,31,0.00,,,0.00,42.00,VWS V14.01,2013-11-11 20:48:00,
2013-11-11 15:49:00,57.6,27.2,30.12,SSE,155,1.0,4.0,31,0.00,,,0.00,42.00,VWS V14.01,2013-11-11 20:49:00,
2013-11-11 15:50:00,57.6,27.2,30.12,SSE,149,0.0,1.0,31,0.00,,,0.00,42.00,VWS V14.01,2013-11-11 20:50:00,
2013-11-11 15:51:00,57.6,27.2,30.12,SSE,148,0.0,2.0,31,0.00,,,0.00,40.00,VWS V14.01,2013-11-11 20:51:00,
2013-11-11 15:52:00,58.0,27.6,30.12,SSE,153,3.0,4.0,31,0.00,,,0.00,42.00,VWS V14.01,2013-11-11 20:52:00,
2013-11-11 15:53:00,57.5,27.9,30.12,SE,140,2.0,7.0,32,0.00,,,0.00,40.00,VWS V14.01,2013-11-11 20:53:00,
2013-11-11 15:54:00,57.3,27.7,30.12,SE,143,4.0,5.0,32,0.00,,,0.00,40.00,VWS V14.01,2013-11-11 20:54:00,
2013-11-11 15:55:00,57.3,27.7,30.12,SSE,147,3.0,6.0,32,0.00,,,0.00,39.00,VWS V14.01,2013-11-11 20:55:00,
2013-11-11 15:56:00,57.2,26.9,30.12,SSE,148,1.0,4.0,31,0.00,,,0.00,39.00,VWS V14.01,2013-11-11 20:56:00,
2013-11-11 15:57:00,57.5,27.9,30.12,SE,145,3.0,3.0,32,0.00,,,0.00,40.00,VWS V14.01,2013-11-11 20:57:00,
2013-11-11 15:58:00,57.0,26.7,30.12,SSE,148,0.0,1.0,31,0.00,,,0.00,37.00,VWS V14.01,2013-11-11 20:58:00,
2013-11-11 15:59:00,57.0,26.7,30.12,SSE,148,0.0,0.0,31,0.00,,,0.00,37.00,VWS V14.01,2013-11-11 20:59:00,
2013-11-11 16:00:00,57.0,27.5,30.11,ESE,122,0.0,0.0,32,0.00,,,0.00,37.00,VWS V14.01,2013-11-11 21:00:00,
2013-11-11 16:01:00,56.9,27.4,30.11,ESE,122,0.0,0.0,32,0.00,,,0.00,35.00,VWS V14.01,2013-11-11 21:01:00,
2013-11-11 16:02:00,57.2,26.9,30.12,SSE,148,0.0,1.0,31,0.00,,,0.00,39.00,VWS V14.01,2013-11-11 21:02:00,
2013-11-11 16:03:00,56.9,27.4,30.11,SSE,150,0.0,0.0,32,0.00,,,0.00,33.00,VWS V14.01,2013-11-11 21:03:00,
2013-11-11 16:04:00,56.7,27.2,30.11,South,178,5.0,5.0,32,0.00,,,0.00,33.00,VWS V14.01,2013-11-11 21:04:00,
2013-11-11 16:05:00,56.7,26.4,30.11,South,170,5.0,6.0,31,0.00,,,0.00,32.00,VWS V14.01,2013-11-11 21:05:00,
2013-11-11 16:06:00,56.7,26.4,30.11,South,173,3.0,6.0,31,0.00,,,0.00,32.00,VWS V14.01,2013-11-11 21:06:00,
2013-11-11 16:07:00,56.9,27.4,30.11,ESE,122,0.0,0.0,32,0.00,,,0.00,35.00,VWS V14.01,2013-11-11 21:07:00,
2013-11-11 16:08:00,56.6,26.3,30.11,South,181,0.0,5.0,31,0.00,,,0.00,30.00,VWS V14.01,2013-11-11 21:08:00,
2013-11-11 16:09:00,56.6,26.3,30.11,South,181,0.0,1.0,31,0.00,,,0.00,28.00,VWS V14.01,2013-11-11 21:09:00,
2013-11-11 16:10:00,56.6,26.3,30.11,South,174,0.0,0.0,31,0.00,,,0.00,28.00,VWS V14.01,2013-11-11 21:10:00,
2013-11-11 16:11:00,56.5,27.0,30.11,South,172,0.0,2.0,32,0.00,,,0.00,28.00,VWS V14.01,2013-11-11 21:11:00,
2013-11-11 16:12:00,56.7,26.4,30.11,South,179,5.0,5.0,31,0.00,,,0.00,32.00,VWS V14.01,2013-11-11 21:12:00,
2013-11-11 16:13:00,56.5,27.0,30.11,South,177,0.0,5.0,32,0.00,,,0.00,26.00,VWS V14.01,2013-11-11 21:13:00,
2013-11-11 16:14:00,56.3,26.8,30.11,SE,143,3.0,4.0,32,0.00,,,0.00,25.00,VWS V14.01,2013-11-11 21:14:00,
2013-11-11 16:15:00,56.3,27.6,30.11,SSE,156,0.0,4.0,33,0.00,,,0.00,25.00,VWS V14.01,2013-11-11 21:15:00,
2013-11-11 16:16:00,56.3,26.8,30.11,SSE,156,0.0,0.0,32,0.00,,,0.00,23.00,VWS V14.01,2013-11-11 21:16:00,
2013-11-11 16:17:00,56.5,27.0,30.11,South,172,0.0,0.0,32,0.00,,,0.00,26.00,VWS V14.01,2013-11-11 21:17:00,
2013-11-11 16:18:00,56.2,27.5,30.11,SSE,149,0.0,0.0,33,0.00,,,0.00,21.00,VWS V14.01,2013-11-11 21:18:00,
2013-11-11 16:19:00,56.2,27.5,30.11,South,187,1.0,4.0,33,0.00,,,0.00,21.00,VWS V14.01,2013-11-11 21:19:00,
2013-11-11 16:20:00,56.0,27.3,30.11,South,176,3.0,5.0,33,0.00,,,0.00,21.00,VWS V14.01,2013-11-11 21:20:00,
2013-11-11 16:21:00,56.0,27.3,30.11,South,177,0.0,5.0,33,0.00,,,0.00,21.00,VWS V14.01,2013-11-11 21:21:00,
2013-11-11 16:22:00,56.3,27.6,30.11,SSE,148,3.0,3.0,33,0.00,,,0.00,23.00,VWS V14.01,2013-11-11 21:22:00,
2013-11-11 16:23:00,56.0,27.3,30.11,South,176,3.0,3.0,33,0.00,,,0.00,19.00,VWS V14.01,2013-11-11 21:23:00,
2013-11-11 16:24:00,55.9,27.2,30.11,SSE,166,0.0,4.0,33,0.00,,,0.00,19.00,VWS V14.01,2013-11-11 21:24:00,
2013-11-11 16:25:00,55.9,27.2,30.11,South,185,4.0,4.0,33,0.00,,,0.00,19.00,VWS V14.01,2013-11-11 21:25:00,
2013-11-11 16:26:00,55.9,27.2,30.11,South,188,0.0,4.0,33,0.00,,,0.00,18.00,VWS V14.01,2013-11-11 21:26:00,
2013-11-11 16:27:00,56.0,27.3,30.11,South,177,1.0,1.0,33,0.00,,,0.00,19.00,VWS V14.01,2013-11-11 21:27:00,
2013-11-11 16:28:00,55.7,27.1,30.11,South,188,0.0,3.0,33,0.00,,,0.00,18.00,VWS V14.01,2013-11-11 21:28:00,
2013-11-11 16:29:00,55.7,27.1,30.11,South,188,0.0,0.0,33,0.00,,,0.00,18.00,VWS V14.01,2013-11-11 21:29:00,
2013-11-11 16:30:00,55.7,27.1,30.11,South,188,0.0,0.0,33,0.00,,,0.00,16.00,VWS V14.01,2013-11-11 21:30:00,
2013-11-11 16:31:00,55.7,27.1,30.11,South,188,0.0,0.0,33,0.00,,,0.00,16.00,VWS V14.01,2013-11-11 21:31:00,
2013-11-11 16:32:00,55.9,27.2,30.11,South,188,0.0,0.0,33,0.00,,,0.00,18.00,VWS V14.01,2013-11-11 21:32:00,
2013-11-11 16:33:00,55.6,27.7,30.11,South,188,3.0,4.0,34,0.00,,,0.00,16.00,VWS V14.01,2013-11-11 21:33:00,
2013-11-11 16:34:00,55.6,27.7,30.11,South,188,0.0,4.0,34,0.00,,,0.00,14.00,VWS V14.01,2013-11-11 21:34:00,
2013-11-11 16:35:00,55.6,28.4,30.11,South,188,0.0,3.0,35,0.00,,,0.00,14.00,VWS V14.01,2013-11-11 21:35:00,
2013-11-11 16:36:00,55.4,28.2,30.11,South,188,3.0,5.0,35,0.00,,,0.00,14.00,VWS V14.01,2013-11-11 21:36:00,
2013-11-11 16:37:00,55.7,27.1,30.11,South,188,0.0,0.0,33,0.00,,,0.00,16.00,VWS V14.01,2013-11-11 21:37:00,
2013-11-11 16:38:00,55.4,28.2,30.11,South,183,0.0,3.0,35,0.00,,,0.00,14.00,VWS V14.01,2013-11-11 21:38:00,
2013-11-11 16:39:00,55.3,28.1,30.11,South,183,0.0,0.0,35,0.00,,,0.00,12.00,VWS V14.01,2013-11-11 21:39:00,
2013-11-11 16:40:00,55.3,28.8,30.11,South,183,0.0,0.0,36,0.00,,,0.00,12.00,VWS V14.01,2013-11-11 21:40:00,
2013-11-11 16:41:00,55.3,30.1,30.11,South,183,0.0,0.0,38,0.00,,,0.00,12.00,VWS V14.01,2013-11-11 21:41:00,
2013-11-11 16:42:00,55.4,28.2,30.11,South,183,3.0,4.0,35,0.00,,,0.00,14.00,VWS V14.01,2013-11-11 21:42:00,
2013-11-11 16:43:00,55.1,30.6,30.11,South,183,0.0,0.0,39,0.00,,,0.00,12.00,VWS V14.01,2013-11-11 21:43:00,
2013-11-11 16:44:00,55.0,30.5,30.11,South,183,0.0,0.0,39,0.00,,,0.00,11.00,VWS V14.01,2013-11-11 21:44:00,
2013-11-11 16:45:00,54.8,30.3,30.11,South,183,0.0,0.0,39,0.00,,,0.00,11.00,VWS V14.01,2013-11-11 21:45:00,
2013-11-11 16:46:00,54.8,30.3,30.11,South,183,0.0,0.0,39,0.00,,,0.00,11.00,VWS V14.01,2013-11-11 21:46:00,
2013-11-11 16:47:00,55.3,30.1,30.11,South,183,0.0,0.0,38,0.00,,,0.00,12.00,VWS V14.01,2013-11-11 21:47:00,
2013-11-11 16:48:00,54.7,30.2,30.11,South,183,0.0,0.0,39,0.00,,,0.00,11.00,VWS V14.01,2013-11-11 21:48:00,
2013-11-11 16:49:00,54.5,30.1,30.11,South,183,0.0,0.0,39,0.00,,,0.00,11.00,VWS V14.01,2013-11-11 21:49:00,
2013-11-11 16:50:00,54.4,30.0,30.11,South,183,0.0,0.0,39,0.00,,,0.00,9.00,VWS V14.01,2013-11-11 21:50:00,
2013-11-11 16:51:00,54.2,30.4,30.11,South,183,0.0,0.0,40,0.00,,,0.00,9.00,VWS V14.01,2013-11-11 21:51:00,
2013-11-11 16:52:00,54.7,30.2,30.11,South,183,0.0,0.0,39,0.00,,,0.00,11.00,VWS V14.01,2013-11-11 21:52:00,
2013-11-11 16:53:00,54.1,30.3,30.11,South,183,0.0,0.0,40,0.00,,,0.00,9.00,VWS V14.01,2013-11-11 21:53:00,
2013-11-11 16:54:00,53.9,30.1,30.11,South,183,0.0,0.0,40,0.00,,,0.00,7.00,VWS V14.01,2013-11-11 21:54:00,
2013-11-11 16:55:00,53.8,30.7,30.11,South,183,0.0,0.0,41,0.00,,,0.00,7.00,VWS V14.01,2013-11-11 21:55:00,
2013-11-11 16:56:00,53.8,31.3,30.11,South,183,0.0,0.0,42,0.00,,,0.00,7.00,VWS V14.01,2013-11-11 21:56:00,
2013-11-11 16:57:00,54.2,30.4,30.11,South,183,0.0,0.0,40,0.00,,,0.00,9.00,VWS V14.01,2013-11-11 21:57:00,
2013-11-11 16:58:00,53.5,32.1,30.11,South,183,0.0,0.0,44,0.00,,,0.00,7.00,VWS V14.01,2013-11-11 21:58:00,
2013-11-11 16:59:00,53.3,32.0,30.11,South,183,0.0,0.0,44,0.00,,,0.00,5.00,VWS V14.01,2013-11-11 21:59:00,
2013-11-11 17:00:00,53.2,31.3,30.11,South,183,0.0,0.0,43,0.00,,,0.00,5.00,VWS V14.01,2013-11-11 22:00:00,
2013-11-11 17:01:00,53.1,31.2,30.11,South,183,0.0,0.0,43,0.00,,,0.00,5.00,VWS V14.01,2013-11-11 22:01:00,
2013-11-11 17:02:00,53.6,31.7,30.11,South,183,0.0,0.0,43,0.00,,,0.00,7.00,VWS V14.01,2013-11-11 22:02:00,
2013-11-11 17:03:00,52.8,31.5,30.11,South,183,0.0,0.0,44,0.00,,,0.00,5.00,VWS V14.01,2013-11-11 22:03:00,
2013-11-11 17:04:00,52.5,31.8,30.11,South,183,0.0,0.0,45,0.00,,,0.00,5.00,VWS V14.01,2013-11-11 22:04:00,
2013-11-11 17:05:00,52.3,31.6,30.11,South,183,0.0,0.0,45,0.00,,,0.00,0.00,VWS V14.01,2013-11-11 22:05:00,
2013-11-11 17:06:00,52.2,31.5,30.11,South,183,0.0,0.0,45,0.00,,,0.00,0.00,VWS V14.01,2013-11-11 22:06:00,
2013-11-11 17:07:00,53.1,31.8,30.11,South,183,0.0,0.0,44,0.00,,,0.00,5.00,VWS V14.01,2013-11-11 22:07:00,
2013-11-11 17:08:00,51.9,31.8,30.11,South,183,0.0,0.0,46,0.00,,,0.00,0.00,VWS V14.01,2013-11-11 22:08:00,
2013-11-11 17:09:00,51.7,31.6,30.11,South,183,0.0,0.0,46,0.00,,,0.00,0.00,VWS V14.01,2013-11-11 22:09:00,
2013-11-11 17:10:00,51.7,32.1,30.11,South,183,0.0,0.0,47,0.00,,,0.00,0.00,VWS V14.01,2013-11-11 22:10:00,
2013-11-11 17:11:00,51.6,32.0,30.11,South,183,0.0,0.0,47,0.00,,,0.00,0.00,VWS V14.01,2013-11-11 22:11:00,
2013-11-11 17:12:00,52.2,31.5,30.11,South,183,0.0,0.0,45,0.00,,,0.00,0.00,VWS V14.01,2013-11-11 22:12:00,
2013-11-11 17:13:00,51.3,32.8,30.11,South,183,0.0,0.0,49,0.00,,,0.00,0.00,VWS V14.01,2013-11-11 22:13:00,
2013-11-11 17:14:00,51.1,33.1,30.11,South,183,0.0,0.0,50,0.00,,,0.00,0.00,VWS V14.01,2013-11-11 22:14:00,
2013-11-11 17:15:00,51.0,33.0,30.11,South,183,0.0,0.0,50,0.00,,,0.00,0.00,VWS V14.01,2013-11-11 22:15:00,
2013-11-11 17:16:00,50.8,32.8,30.11,South,183,0.0,0.0,50,0.00,,,0.00,0.00,VWS V14.01,2013-11-11 22:16:00,
2013-11-11 17:17:00,51.4,31.9,30.11,South,183,0.0,0.0,47,0.00,,,0.00,0.00,VWS V14.01,2013-11-11 22:17:00,
2013-11-11 17:18:00,50.5,32.6,30.11,South,183,0.0,0.0,50,0.00,,,0.00,0.00,VWS V14.01,2013-11-11 22:18:00,
2013-11-11 17:19:00,50.5,32.6,30.11,South,183,0.0,0.0,50,0.00,,,0.00,0.00,VWS V14.01,2013-11-11 22:19:00,
2013-11-11 17:20:00,50.4,32.5,30.11,South,183,0.0,0.0,50,0.00,,,0.00,0.00,VWS V14.01,2013-11-11 22:20:00,
2013-11-11 17:21:00,50.2,32.8,30.11,South,183,0.0,0.0,51,0.00,,,0.00,0.00,VWS V14.01,2013-11-11 22:21:00,
2013-11-11 17:22:00,50.8,32.8,30.11,South,183,0.0,0.0,50,0.00,,,0.00,0.00,VWS V14.01,2013-11-11 22:22:00,
2013-11-11 17:23:00,49.8,32.9,30.11,South,183,0.0,0.0,52,0.00,,,0.00,0.00,VWS V14.01,2013-11-11 22:23:00,
2013-11-11 17:24:00,49.8,32.9,30.11,South,183,0.0,0.0,52,0.00,,,0.00,0.00,VWS V14.01,2013-11-11 22:24:00,
2013-11-11 17:25:00,49.6,32.7,30.11,South,183,0.0,0.0,52,0.00,,,0.00,0.00,VWS V14.01,2013-11-11 22:25:00,
2013-11-11 17:26:00,49.5,32.6,30.11,South,183,0.0,0.0,52,0.00,,,0.00,0.00,VWS V14.01,2013-11-11 22:26:00,
2013-11-11 17:27:00,50.1,33.2,30.11,South,183,0.0,0.0,52,0.00,,,0.00,0.00,VWS V14.01,2013-11-11 22:27:00,
2013-11-11 17:28:00,49.2,32.3,30.11,South,183,0.0,0.0,52,0.00,,,0.00,0.00,VWS V14.01,2013-11-11 22:28:00,
2013-11-11 17:29:00,49.1,32.2,30.11,South,183,0.0,0.0,52,0.00,,,0.00,0.00,VWS V14.01,2013-11-11 22:29:00,
2013-11-11 17:30:00,48.9,32.1,30.11,South,183,0.0,0.0,52,0.00,,,0.00,0.00,VWS V14.01,2013-11-11 22:30:00,
2013-11-11 17:31:00,48.8,32.0,30.11,South,183,0.0,0.0,52,0.00,,,0.00,0.00,VWS V14.01,2013-11-11 22:31:00,
2013-11-11 17:32:00,49.4,32.5,30.11,South,183,0.0,0.0,52,0.00,,,0.00,0.00,VWS V14.01,2013-11-11 22:32:00,
2013-11-11 17:33:00,48.5,32.2,30.11,South,183,0.0,0.0,53,0.00,,,0.00,0.00,VWS V14.01,2013-11-11 22:33:00,
2013-11-11 17:34:00,48.3,32.4,30.11,South,183,0.0,0.0,54,0.00,,,0.00,0.00,VWS V14.01,2013-11-11 22:34:00,
2013-11-11 17:35:00,48.2,32.3,30.11,South,183,0.0,0.0,54,0.00,,,0.00,0.00,VWS V14.01,2013-11-11 22:35:00,
2013-11-11 17:36:00,48.0,32.2,30.11,South,183,0.0,0.0,54,0.00,,,0.00,0.00,VWS V14.01,2013-11-11 22:36:00,
2013-11-11 17:37:00,48.8,32.0,30.11,South,183,0.0,0.0,52,0.00,,,0.00,0.00,VWS V14.01,2013-11-11 22:37:00,
2013-11-11 17:38:00,47.9,32.1,30.11,South,183,0.0,0.0,54,0.00,,,0.00,0.00,VWS V14.01,2013-11-11 22:38:00,
2013-11-11 17:39:00,47.7,32.3,30.11,South,183,0.0,0.0,55,0.00,,,0.00,0.00,VWS V14.01,2013-11-11 22:39:00,
2013-11-11 17:40:00,47.6,32.7,30.11,South,183,0.0,0.0,56,0.00,,,0.00,0.00,VWS V14.01,2013-11-11 22:40:00,
2013-11-11 17:41:00,47.4,32.5,30.11,South,183,0.0,0.0,56,0.00,,,0.00,0.00,VWS V14.01,2013-11-11 22:41:00,
2013-11-11 17:42:00,48.0,32.2,30.11,South,183,0.0,0.0,54,0.00,,,0.00,0.00,VWS V14.01,2013-11-11 22:42:00,
2013-11-11 17:43:00,47.3,32.4,30.11,South,183,0.0,0.0,56,0.00,,,0.00,0.00,VWS V14.01,2013-11-11 22:43:00,
2013-11-11 17:44:00,47.1,31.8,30.11,South,183,0.0,0.0,55,0.00,,,0.00,0.00,VWS V14.01,2013-11-11 22:44:00,
2013-11-11 17:45:00,47.0,32.1,30.11,South,183,0.0,0.0,56,0.00,,,0.00,0.00,VWS V14.01,2013-11-11 22:45:00,
2013-11-11 17:46:00,46.8,32.0,30.11,South,183,0.0,0.0,56,0.00,,,0.00,0.00,VWS V14.01,2013-11-11 22:46:00,
2013-11-11 17:47:00,47.4,32.5,30.11,South,183,0.0,0.0,56,0.00,,,0.00,0.00,VWS V14.01,2013-11-11 22:47:00,
2013-11-11 17:48:00,46.5,32.1,30.11,South,183,0.0,0.0,57,0.00,,,0.00,0.00,VWS V14.01,2013-11-11 22:48:00,
2013-11-11 17:49:00,46.5,32.1,30.11,South,183,0.0,0.0,57,0.00,,,0.00,0.00,VWS V14.01,2013-11-11 22:49:00,
2013-11-11 17:50:00,46.4,31.6,30.11,South,183,0.0,0.0,56,0.00,,,0.00,0.00,VWS V14.01,2013-11-11 22:50:00,
2013-11-11 17:51:00,46.2,31.8,30.11,South,183,0.0,0.0,57,0.00,,,0.00,0.00,VWS V14.01,2013-11-11 22:51:00,
2013-11-11 17:52:00,46.8,32.0,30.11,South,183,0.0,0.0,56,0.00,,,0.00,0.00,VWS V14.01,2013-11-11 22:52:00,
2013-11-11 17:53:00,46.1,31.7,30.11,South,183,0.0,0.0,57,0.00,,,0.00,0.00,VWS V14.01,2013-11-11 22:53:00,
2013-11-11 17:54:00,46.0,31.6,30.11,South,183,0.0,0.0,57,0.00,,,0.00,0.00,VWS V14.01,2013-11-11 22:54:00,
2013-11-11 17:55:00,46.0,31.6,30.11,South,183,0.0,0.0,57,0.00,,,0.00,0.00,VWS V14.01,2013-11-11 22:55:00,
2013-11-11 17:56:00,45.8,31.5,30.11,South,183,0.0,0.0,57,0.00,,,0.00,0.00,VWS V14.01,2013-11-11 22:56:00,
2013-11-11 17:57:00,46.2,31.8,30.11,South,183,0.0,0.0,57,0.00,,,0.00,0.00,VWS V14.01,2013-11-11 22:57:00,
2013-11-11 17:58:00,45.7,31.4,30.11,South,183,0.0,0.0,57,0.00,,,0.00,0.00,VWS V14.01,2013-11-11 22:58:00,
2013-11-11 17:59:00,45.5,31.2,30.11,South,183,0.0,0.0,57,0.00,,,0.00,0.00,VWS V14.01,2013-11-11 22:59:00,
2013-11-11 18:00:00,45.4,31.1,30.12,South,183,0.0,0.0,57,0.00,,,0.00,0.00,VWS V14.01,2013-11-11 23:00:00,
2013-11-11 18:01:00,45.4,31.5,30.12,South,183,0.0,0.0,58,0.00,,,0.00,0.00,VWS V14.01,2013-11-11 23:01:00,
2013-11-11 18:02:00,45.8,31.5,30.11,South,183,0.0,0.0,57,0.00,,,0.00,0.00,VWS V14.01,2013-11-11 23:02:00,
2013-11-11 18:03:00,45.1,31.2,30.12,South,183,0.0,0.0,58,0.00,,,0.00,0.00,VWS V14.01,2013-11-11 23:03:00,
2013-11-11 18:04:00,45.1,31.2,30.12,South,183,0.0,0.0,58,0.00,,,0.00,0.00,VWS V14.01,2013-11-11 23:04:00,
2013-11-11 18:05:00,44.9,31.0,30.12,South,183,0.0,0.0,58,0.00,,,0.00,0.00,VWS V14.01,2013-11-11 23:05:00,
2013-11-11 18:06:00,44.8,30.9,30.12,South,183,0.0,0.0,58,0.00,,,0.00,0.00,VWS V14.01,2013-11-11 23:06:00,
2013-11-11 18:07:00,45.4,31.5,30.12,South,183,0.0,0.0,58,0.00,,,0.00,0.00,VWS V14.01,2013-11-11 23:07:00,
2013-11-11 18:08:00,44.6,31.2,30.12,South,183,0.0,0.0,59,0.00,,,0.00,0.00,VWS V14.01,2013-11-11 23:08:00,
2013-11-11 18:09:00,44.6,31.6,30.12,South,183,0.0,0.0,60,0.00,,,0.00,0.00,VWS V14.01,2013-11-11 23:09:00,
2013-11-11 18:10:00,44.5,31.9,30.12,South,183,0.0,0.0,61,0.00,,,0.00,0.00,VWS V14.01,2013-11-11 23:10:00,
2013-11-11 18:11:00,44.3,32.1,30.12,South,183,0.0,0.0,62,0.00,,,0.00,0.00,VWS V14.01,2013-11-11 23:11:00,
2013-11-11 18:12:00,44.8,30.9,30.12,South,183,0.0,0.0,58,0.00,,,0.00,0.00,VWS V14.01,2013-11-11 23:12:00,
2013-11-11 18:13:00,44.2,32.4,30.12,South,183,0.0,0.0,63,0.00,,,0.00,0.00,VWS V14.01,2013-11-11 23:13:00,
2013-11-11 18:14:00,44.2,32.8,30.12,South,183,0.0,0.0,64,0.00,,,0.00,0.00,VWS V14.01,2013-11-11 23:14:00,
2013-11-11 18:15:00,44.1,32.7,30.12,South,183,0.0,0.0,64,0.00,,,0.00,0.00,VWS V14.01,2013-11-11 23:15:00,
2013-11-11 18:16:00,43.9,32.5,30.12,South,183,0.0,0.0,64,0.00,,,0.00,0.00,VWS V14.01,2013-11-11 23:16:00,
2013-11-11 18:17:00,44.3,32.1,30.12,South,183,0.0,0.0,62,0.00,,,0.00,0.00,VWS V14.01,2013-11-11 23:17:00,
2013-11-11 18:18:00,43.8,32.4,30.12,South,183,0.0,0.0,64,0.00,,,0.00,0.00,VWS V14.01,2013-11-11 23:18:00,
2013-11-11 18:19:00,43.6,32.2,30.12,South,183,0.0,0.0,64,0.00,,,0.00,0.00,VWS V14.01,2013-11-11 23:19:00,
2013-11-11 18:20:00,43.6,32.2,30.12,South,183,0.0,0.0,64,0.00,,,0.00,0.00,VWS V14.01,2013-11-11 23:20:00,
2013-11-11 18:21:00,43.5,32.2,30.12,South,183,0.0,0.0,64,0.00,,,0.00,0.00,VWS V14.01,2013-11-11 23:21:00,
2013-11-11 18:22:00,43.9,32.5,30.13,South,183,0.0,0.0,64,0.00,,,0.00,0.00,VWS V14.01,2013-11-11 23:22:00,
2013-11-11 18:23:00,43.3,32.0,30.12,South,183,0.0,0.0,64,0.00,,,0.00,0.00,VWS V14.01,2013-11-11 23:23:00,
2013-11-11 18:24:00,43.3,32.3,30.12,South,183,0.0,0.0,65,0.00,,,0.00,0.00,VWS V14.01,2013-11-11 23:24:00,
2013-11-11 18:25:00,43.2,32.2,30.12,South,183,0.0,0.0,65,0.00,,,0.00,0.00,VWS V14.01,2013-11-11 23:25:00,
2013-11-11 18:26:00,43.2,32.6,30.12,South,183,0.0,0.0,66,0.00,,,0.00,0.00,VWS V14.01,2013-11-11 23:26:00,
2013-11-11 18:27:00,43.5,32.2,30.13,South,183,0.0,0.0,64,0.00,,,0.00,0.00,VWS V14.01,2013-11-11 23:27:00,
2013-11-11 18:28:00,43.1,32.9,30.12,South,183,0.0,0.0,67,0.00,,,0.00,0.00,VWS V14.01,2013-11-11 23:28:00,
2013-11-11 18:29:00,42.9,33.1,30.12,South,183,0.0,0.0,68,0.00,,,0.00,0.00,VWS V14.01,2013-11-11 23:29:00,
2013-11-11 18:30:00,42.9,33.1,30.12,South,183,0.0,0.0,68,0.00,,,0.00,0.00,VWS V14.01,2013-11-11 23:30:00,
2013-11-11 18:31:00,42.8,33.0,30.12,South,183,0.0,0.0,68,0.00,,,0.00,0.00,VWS V14.01,2013-11-11 23:31:00,
2013-11-11 18:32:00,43.1,32.5,30.13,South,183,0.0,0.0,66,0.00,,,0.00,0.00,VWS V14.01,2013-11-11 23:32:00,
2013-11-11 18:33:00,42.6,32.8,30.12,South,183,0.0,0.0,68,0.00,,,0.00,0.00,VWS V14.01,2013-11-11 23:33:00,
2013-11-11 18:34:00,42.6,32.8,30.12,South,183,0.0,0.0,68,0.00,,,0.00,0.00,VWS V14.01,2013-11-11 23:34:00,
2013-11-11 18:35:00,42.6,33.2,30.12,South,183,0.0,0.0,69,0.00,,,0.00,0.00,VWS V14.01,2013-11-11 23:35:00,
2013-11-11 18:36:00,42.5,33.1,30.12,South,183,0.0,0.0,69,0.00,,,0.00,0.00,VWS V14.01,2013-11-11 23:36:00,
2013-11-11 18:37:00,42.8,33.0,30.12,South,183,0.0,0.0,68,0.00,,,0.00,0.00,VWS V14.01,2013-11-11 23:37:00,
2013-11-11 18:38:00,42.3,32.9,30.12,South,183,0.0,0.0,69,0.00,,,0.00,0.00,VWS V14.01,2013-11-11 23:38:00,
2013-11-11 18:39:00,42.3,33.2,30.12,South,183,0.0,0.0,70,0.00,,,0.00,0.00,VWS V14.01,2013-11-11 23:39:00,
2013-11-11 18:40:00,42.2,33.1,30.12,South,183,0.0,0.0,70,0.00,,,0.00,0.00,VWS V14.01,2013-11-11 23:40:00,
2013-11-11 18:41:00,42.2,33.1,30.12,South,183,0.0,0.0,70,0.00,,,0.00,0.00,VWS V14.01,2013-11-11 23:41:00,
2013-11-11 18:42:00,42.5,33.1,30.12,South,183,0.0,0.0,69,0.00,,,0.00,0.00,VWS V14.01,2013-11-11 23:42:00,
2013-11-11 18:43:00,42.1,33.4,30.12,South,183,0.0,0.0,71,0.00,,,0.00,0.00,VWS V14.01,2013-11-11 23:43:00,
2013-11-11 18:44:00,42.1,33.7,30.12,South,183,0.0,0.0,72,0.00,,,0.00,0.00,VWS V14.01,2013-11-11 23:44:00,
2013-11-11 18:45:00,41.9,33.5,30.12,South,183,0.0,0.0,72,0.00,,,0.00,0.00,VWS V14.01,2013-11-11 23:45:00,
2013-11-11 18:46:00,41.9,33.5,30.12,South,183,0.0,0.0,72,0.00,,,0.00,0.00,VWS V14.01,2013-11-11 23:46:00,
2013-11-11 18:47:00,42.2,33.1,30.12,South,183,0.0,0.0,70,0.00,,,0.00,0.00,VWS V14.01,2013-11-11 23:47:00,
2013-11-11 18:48:00,41.9,33.5,30.12,South,183,0.0,0.0,72,0.00,,,0.00,0.00,VWS V14.01,2013-11-11 23:48:00,
2013-11-11 18:49:00,41.8,33.8,30.12,South,183,0.0,0.0,73,0.00,,,0.00,0.00,VWS V14.01,2013-11-11 23:49:00,
2013-11-11 18:50:00,41.8,33.8,30.12,South,183,0.0,0.0,73,0.00,,,0.00,0.00,VWS V14.01,2013-11-11 23:50:00,
2013-11-11 18:51:00,41.8,33.8,30.12,South,183,0.0,0.0,73,0.00,,,0.00,0.00,VWS V14.01,2013-11-11 23:51:00,
2013-11-11 18:52:00,41.9,33.5,30.12,South,183,0.0,0.0,72,0.00,,,0.00,0.00,VWS V14.01,2013-11-11 23:52:00,
2013-11-11 18:53:00,41.6,33.9,30.12,South,183,0.0,0.0,74,0.00,,,0.00,0.00,VWS V14.01,2013-11-11 23:53:00,
2013-11-11 18:54:00,41.6,33.9,30.12,South,183,0.0,0.0,74,0.00,,,0.00,0.00,VWS V14.01,2013-11-11 23:54:00,
2013-11-11 18:55:00,41.6,33.9,30.12,South,183,0.0,0.0,74,0.00,,,0.00,0.00,VWS V14.01,2013-11-11 23:55:00,
2013-11-11 18:56:00,41.6,34.3,30.12,South,183,0.0,0.0,75,0.00,,,0.00,0.00,VWS V14.01,2013-11-11 23:56:00,
2013-11-11 18:57:00,41.8,33.8,30.12,South,183,0.0,0.0,73,0.00,,,0.00,0.00,VWS V14.01,2013-11-11 23:57:00,
2013-11-11 18:58:00,41.5,34.2,30.12,South,183,0.0,0.0,75,0.00,,,0.00,0.00,VWS V14.01,2013-11-11 23:58:00,
2013-11-11 18:59:00,41.5,34.2,30.12,South,183,0.0,0.0,75,0.00,,,0.00,0.00,VWS V14.01,2013-11-11 23:59:00,
2013-11-11 19:00:00,41.5,34.2,30.11,South,183,0.0,0.0,75,0.00,,,0.00,0.00,VWS V14.01,2013-11-12 00:00:00,
2013-11-11 19:01:00,41.3,34.0,30.11,South,183,0.0,0.0,75,0.00,,,0.00,0.00,VWS V14.01,2013-11-12 00:01:00,
2013-11-11 19:02:00,41.6,34.3,30.12,South,183,0.0,0.0,75,0.00,,,0.00,0.00,VWS V14.01,2013-11-12 00:02:00,
2013-11-11 19:03:00,41.3,34.0,30.11,South,183,0.0,0.0,75,0.00,,,0.00,0.00,VWS V14.01,2013-11-12 00:03:00,
2013-11-11 19:04:00,41.3,34.0,30.11,South,183,0.0,0.0,75,0.00,,,0.00,0.00,VWS V14.01,2013-11-12 00:04:00,
2013-11-11 19:05:00,41.2,33.9,30.11,South,183,0.0,0.0,75,0.00,,,0.00,0.00,VWS V14.01,2013-11-12 00:05:00,
2013-11-11 19:06:00,41.2,34.2,30.11,South,183,0.0,0.0,76,0.00,,,0.00,0.00,VWS V14.01,2013-11-12 00:06:00,
2013-11-11 19:07:00,41.3,34.0,30.11,South,183,0.0,0.0,75,0.00,,,0.00,0.00,VWS V14.01,2013-11-12 00:07:00,
2013-11-11 19:08:00,41.1,33.8,30.11,South,183,0.0,0.0,75,0.00,,,0.00,0.00,VWS V14.01,2013-11-12 00:08:00,
2013-11-11 19:09:00,41.1,34.1,30.11,South,183,0.0,0.0,76,0.00,,,0.00,0.00,VWS V14.01,2013-11-12 00:09:00,
2013-11-11 19:10:00,41.1,34.1,30.11,South,183,0.0,0.0,76,0.00,,,0.00,0.00,VWS V14.01,2013-11-12 00:10:00,
2013-11-11 19:11:00,40.9,33.9,30.11,South,183,0.0,0.0,76,0.00,,,0.00,0.00,VWS V14.01,2013-11-12 00:11:00,
2013-11-11 19:12:00,41.2,34.2,30.11,South,183,0.0,0.0,76,0.00,,,0.00,0.00,VWS V14.01,2013-11-12 00:12:00,
2013-11-11 19:13:00,40.9,33.9,30.11,South,183,0.0,0.0,76,0.00,,,0.00,0.00,VWS V14.01,2013-11-12 00:13:00,
2013-11-11 19:14:00,40.9,34.3,30.11,South,183,0.0,0.0,77,0.00,,,0.00,0.00,VWS V14.01,2013-11-12 00:14:00,
2013-11-11 19:15:00,40.8,34.2,30.11,South,183,0.0,0.0,77,0.00,,,0.00,0.00,VWS V14.01,2013-11-12 00:15:00,
2013-11-11 19:16:00,40.8,34.2,30.11,South,183,0.0,0.0,77,0.00,,,0.00,0.00,VWS V14.01,2013-11-12 00:16:00,
2013-11-11 19:17:00,40.9,33.9,30.11,South,183,0.0,0.0,76,0.00,,,0.00,0.00,VWS V14.01,2013-11-12 00:17:00,
2013-11-11 19:18:00,40.6,34.0,30.11,South,183,0.0,0.0,77,0.00,,,0.00,0.00,VWS V14.01,2013-11-12 00:18:00,
2013-11-11 19:19:00,40.6,34.0,30.11,South,183,0.0,0.0,77,0.00,,,0.00,0.00,VWS V14.01,2013-11-12 00:19:00,
2013-11-11 19:20:00,40.5,33.9,30.11,South,183,0.0,0.0,77,0.00,,,0.00,0.00,VWS V14.01,2013-11-12 00:20:00,
2013-11-11 19:21:00,40.5,33.9,30.11,South,183,0.0,0.0,77,0.00,,,0.00,0.00,VWS V14.01,2013-11-12 00:21:00,
2013-11-11 19:22:00,40.8,34.2,30.11,South,183,0.0,0.0,77,0.00,,,0.00,0.00,VWS V14.01,2013-11-12 00:22:00,
2013-11-11 19:23:00,40.3,33.7,30.11,South,183,0.0,0.0,77,0.00,,,0.00,0.00,VWS V14.01,2013-11-12 00:23:00,
2013-11-11 19:24:00,40.3,33.7,30.11,South,183,0.0,0.0,77,0.00,,,0.00,0.00,VWS V14.01,2013-11-12 00:24:00,
2013-11-11 19:25:00,40.3,33.7,30.11,South,183,0.0,0.0,77,0.00,,,0.00,0.00,VWS V14.01,2013-11-12 00:25:00,
2013-11-11 19:26:00,40.3,33.7,30.11,South,183,0.0,0.0,77,0.00,,,0.00,0.00,VWS V14.01,2013-11-12 00:26:00,
2013-11-11 19:27:00,40.5,33.9,30.11,South,183,0.0,0.0,77,0.00,,,0.00,0.00,VWS V14.01,2013-11-12 00:27:00,
2013-11-11 19:28:00,40.2,33.6,30.11,South,183,0.0,0.0,77,0.00,,,0.00,0.00,VWS V14.01,2013-11-12 00:28:00,
2013-11-11 19:30:00,40.1,33.8,30.11,South,183,0.0,0.0,78,0.00,,,0.00,0.00,VWS V14.01,2013-11-12 00:30:00,
2013-11-11 19:31:00,40.1,33.8,30.11,South,183,0.0,0.0,78,0.00,,,0.00,0.00,VWS V14.01,2013-11-12 00:31:00,
2013-11-11 19:32:00,40.2,33.6,30.11,South,183,0.0,0.0,77,0.00,,,0.00,0.00,VWS V14.01,2013-11-12 00:32:00,
2013-11-11 19:33:00,39.9,33.6,30.11,South,183,0.0,0.0,78,0.00,,,0.00,0.00,VWS V14.01,2013-11-12 00:33:00,
2013-11-11 19:34:00,39.9,33.6,30.11,South,183,0.0,0.0,78,0.00,,,0.00,0.00,VWS V14.01,2013-11-12 00:34:00,
2013-11-11 19:35:00,39.9,33.9,30.11,South,183,0.0,0.0,79,0.00,,,0.00,0.00,VWS V14.01,2013-11-12 00:35:00,
2013-11-11 19:36:00,39.8,33.8,30.11,South,183,0.0,0.0,79,0.00,,,0.00,0.00,VWS V14.01,2013-11-12 00:36:00,
2013-11-11 19:37:00,40.1,33.8,30.11,South,183,0.0,0.0,78,0.00,,,0.00,0.00,VWS V14.01,2013-11-12 00:37:00,
2013-11-11 19:38:00,39.8,33.8,30.11,South,183,0.0,0.0,79,0.00,,,0.00,0.00,VWS V14.01,2013-11-12 00:38:00,
2013-11-11 19:39:00,39.8,33.8,30.11,South,183,0.0,0.0,79,0.00,,,0.00,0.00,VWS V14.01,2013-11-12 00:39:00,
2013-11-11 19:40:00,39.6,34.0,30.11,South,183,0.0,0.0,80,0.00,,,0.00,0.00,VWS V14.01,2013-11-12 00:40:00,
2013-11-11 19:41:00,39.6,34.0,30.11,South,183,0.0,0.0,80,0.00,,,0.00,0.00,VWS V14.01,2013-11-12 00:41:00,
2013-11-11 19:42:00,39.8,33.8,30.11,South,183,0.0,0.0,79,0.00,,,0.00,0.00,VWS V14.01,2013-11-12 00:42:00,
2013-11-11 19:43:00,39.5,33.8,30.11,South,183,0.0,0.0,80,0.00,,,0.00,0.00,VWS V14.01,2013-11-12 00:43:00,
2013-11-11 19:44:00,39.5,33.8,30.11,South,183,0.0,0.0,80,0.00,,,0.00,0.00,VWS V14.01,2013-11-12 00:44:00,
2013-11-11 19:45:00,39.5,33.8,30.10,South,183,0.0,0.0,80,0.00,,,0.00,0.00,VWS V14.01,2013-11-12 00:45:00,
2013-11-11 19:46:00,39.5,33.8,30.10,South,183,0.0,0.0,80,0.00,,,0.00,0.00,VWS V14.01,2013-11-12 00:46:00,
2013-11-11 19:47:00,39.6,34.0,30.11,South,183,0.0,0.0,80,0.00,,,0.00,0.00,VWS V14.01,2013-11-12 00:47:00,
2013-11-11 19:48:00,39.3,33.7,30.10,South,183,0.0,0.0,80,0.00,,,0.00,0.00,VWS V14.01,2013-11-12 00:48:00,
2013-11-11 19:49:00,39.3,33.7,30.10,South,183,0.0,0.0,80,0.00,,,0.00,0.00,VWS V14.01,2013-11-12 00:49:00,
2013-11-11 19:50:00,39.3,34.0,30.10,South,183,0.0,0.0,81,0.00,,,0.00,0.00,VWS V14.01,2013-11-12 00:50:00,
2013-11-11 19:51:00,39.2,33.9,30.10,South,183,0.0,0.0,81,0.00,,,0.00,0.00,VWS V14.01,2013-11-12 00:51:00,
2013-11-11 19:52:00,39.5,33.8,30.10,South,183,0.0,0.0,80,0.00,,,0.00,0.00,VWS V14.01,2013-11-12 00:52:00,
2013-11-11 19:53:00,39.2,33.6,30.10,South,183,0.0,0.0,80,0.00,,,0.00,0.00,VWS V14.01,2013-11-12 00:53:00,
2013-11-11 19:54:00,39.1,33.5,30.10,South,183,0.0,0.0,80,0.00,,,0.00,0.00,VWS V14.01,2013-11-12 00:54:00,
2013-11-11 19:55:00,39.1,33.5,30.10,South,183,0.0,0.0,80,0.00,,,0.00,0.00,VWS V14.01,2013-11-12 00:55:00,
2013-11-11 19:56:00,39.1,33.8,30.10,South,183,0.0,0.0,81,0.00,,,0.00,0.00,VWS V14.01,2013-11-12 00:56:00,
2013-11-11 19:57:00,39.2,33.9,30.10,South,183,0.0,0.0,81,0.00,,,0.00,0.00,VWS V14.01,2013-11-12 00:57:00,
2013-11-11 19:58:00,39.1,33.8,30.10,South,183,0.0,0.0,81,0.00,,,0.00,0.00,VWS V14.01,2013-11-12 00:58:00,
2013-11-11 19:59:00,39.1,33.8,30.10,South,183,0.0,0.0,81,0.00,,,0.00,0.00,VWS V14.01,2013-11-12 00:59:00,
2013-11-11 20:00:00,38.9,33.6,30.10,South,183,0.0,0.0,81,0.00,,,0.00,0.00,VWS V14.01,2013-11-12 01:00:00,
2013-11-11 20:01:00,38.9,33.9,30.10,South,183,0.0,0.0,82,0.00,,,0.00,0.00,VWS V14.01,2013-11-12 01:01:00,
2013-11-11 20:02:00,39.1,33.8,30.10,South,183,0.0,0.0,81,0.00,,,0.00,0.00,VWS V14.01,2013-11-12 01:02:00,
2013-11-11 20:03:00,38.9,33.9,30.10,South,183,0.0,0.0,82,0.00,,,0.00,0.00,VWS V14.01,2013-11-12 01:03:00,
2013-11-11 20:04:00,38.9,33.9,30.10,South,183,0.0,0.0,82,0.00,,,0.00,0.00,VWS V14.01,2013-11-12 01:04:00,
2013-11-11 20:05:00,38.9,33.9,30.10,South,183,0.0,0.0,82,0.00,,,0.00,0.00,VWS V14.01,2013-11-12 01:05:00,
2013-11-11 20:06:00,38.9,33.9,30.10,South,183,0.0,0.0,82,0.00,,,0.00,0.00,VWS V14.01,2013-11-12 01:06:00,
2013-11-11 20:07:00,38.9,33.9,30.10,South,183,0.0,0.0,82,0.00,,,0.00,0.00,VWS V14.01,2013-11-12 01:07:00,
2013-11-11 20:09:00,38.9,33.9,30.10,South,183,0.0,0.0,82,0.00,,,0.00,0.00,VWS V14.01,2013-11-12 01:09:00,
2013-11-11 20:10:00,38.9,33.9,30.10,South,183,0.0,0.0,82,0.00,,,0.00,0.00,VWS V14.01,2013-11-12 01:10:00,
2013-11-11 20:11:00,38.8,33.8,30.10,South,183,0.0,0.0,82,0.00,,,0.00,0.00,VWS V14.01,2013-11-12 01:11:00,
2013-11-11 20:12:00,38.9,33.9,30.10,South,183,0.0,0.0,82,0.00,,,0.00,0.00,VWS V14.01,2013-11-12 01:12:00,
2013-11-11 20:13:00,38.8,34.1,30.10,South,183,0.0,0.0,83,0.00,,,0.00,0.00,VWS V14.01,2013-11-12 01:13:00,
2013-11-11 20:14:00,38.6,33.9,30.10,South,183,0.0,0.0,83,0.00,,,0.00,0.00,VWS V14.01,2013-11-12 01:14:00,
2013-11-11 20:15:00,38.6,33.9,30.10,South,183,0.0,0.0,83,0.00,,,0.00,0.00,VWS V14.01,2013-11-12 01:15:00,
2013-11-11 20:16:00,38.6,33.9,30.10,South,183,0.0,0.0,83,0.00,,,0.00,0.00,VWS V14.01,2013-11-12 01:16:00,
2013-11-11 20:17:00,38.8,33.8,30.10,South,183,0.0,0.0,82,0.00,,,0.00,0.00,VWS V14.01,2013-11-12 01:17:00,
2013-11-11 20:18:00,38.5,33.8,30.10,South,183,0.0,0.0,83,0.00,,,0.00,0.00,VWS V14.01,2013-11-12 01:18:00,
2013-11-11 20:19:00,38.5,33.8,30.10,South,183,0.0,0.0,83,0.00,,,0.00,0.00,VWS V14.01,2013-11-12 01:19:00,
2013-11-11 20:20:00,38.5,33.8,30.10,South,183,0.0,0.0,83,0.00,,,0.00,0.00,VWS V14.01,2013-11-12 01:20:00,
2013-11-11 20:21:00,38.5,33.8,30.10,South,183,0.0,0.0,83,0.00,,,0.00,0.00,VWS V14.01,2013-11-12 01:21:00,
2013-11-11 20:22:00,38.6,33.9,30.10,South,183,0.0,0.0,83,0.00,,,0.00,0.00,VWS V14.01,2013-11-12 01:22:00,
2013-11-11 20:23:00,38.3,33.9,30.10,South,183,0.0,0.0,84,0.00,,,0.00,0.00,VWS V14.01,2013-11-12 01:23:00,
2013-11-11 20:24:00,38.3,33.9,30.10,South,183,0.0,0.0,84,0.00,,,0.00,0.00,VWS V14.01,2013-11-12 01:24:00,
2013-11-11 20:25:00,38.3,33.6,30.10,South,183,0.0,0.0,83,0.00,,,0.00,0.00,VWS V14.01,2013-11-12 01:25:00,
2013-11-11 20:26:00,38.3,33.9,30.10,South,183,0.0,0.0,84,0.00,,,0.00,0.00,VWS V14.01,2013-11-12 01:26:00,
2013-11-11 20:27:00,38.5,33.8,30.10,South,183,0.0,0.0,83,0.00,,,0.00,0.00,VWS V14.01,2013-11-12 01:27:00,
2013-11-11 20:28:00,38.3,33.9,30.10,South,183,0.0,0.0,84,0.00,,,0.00,0.00,VWS V14.01,2013-11-12 01:28:00,
2013-11-11 20:29:00,38.3,33.9,30.10,South,183,0.0,0.0,84,0.00,,,0.00,0.00,VWS V14.01,2013-11-12 01:29:00,
2013-11-11 20:30:00,38.3,33.9,30.10,South,183,0.0,0.0,84,0.00,,,0.00,0.00,VWS V14.01,2013-11-12 01:30:00,
2013-11-11 20:31:00,38.3,33.9,30.10,South,183,0.0,0.0,84,0.00,,,0.00,0.00,VWS V14.01,2013-11-12 01:31:00,
2013-11-11 20:32:00,38.3,33.9,30.10,South,183,0.0,0.0,84,0.00,,,0.00,0.00,VWS V14.01,2013-11-12 01:32:00,
2013-11-11 20:33:00,38.3,34.2,30.10,South,183,0.0,0.0,85,0.00,,,0.00,0.00,VWS V14.01,2013-11-12 01:33:00,
2013-11-11 20:34:00,38.3,34.2,30.10,South,183,0.0,0.0,85,0.00,,,0.00,0.00,VWS V14.01,2013-11-12 01:34:00,
2013-11-11 20:35:00,38.2,34.1,30.10,South,183,0.0,0.0,85,0.00,,,0.00,0.00,VWS V14.01,2013-11-12 01:35:00,
2013-11-11 20:36:00,38.2,34.1,30.10,South,183,0.0,0.0,85,0.00,,,0.00,0.00,VWS V14.01,2013-11-12 01:36:00,
2013-11-11 20:37:00,38.3,33.9,30.10,South,183,0.0,0.0,84,0.00,,,0.00,0.00,VWS V14.01,2013-11-12 01:37:00,
2013-11-11 20:38:00,38.2,34.1,30.10,South,183,0.0,0.0,85,0.00,,,0.00,0.00,VWS V14.01,2013-11-12 01:38:00,
2013-11-11 20:39:00,38.2,34.1,30.10,South,183,0.0,0.0,85,0.00,,,0.00,0.00,VWS V14.01,2013-11-12 01:39:00,
2013-11-11 20:40:00,38.2,34.1,30.10,South,183,0.0,0.0,85,0.00,,,0.00,0.00,VWS V14.01,2013-11-12 01:40:00,
2013-11-11 20:41:00,38.2,34.1,30.10,South,183,0.0,0.0,85,0.00,,,0.00,0.00,VWS V14.01,2013-11-12 01:41:00,
2013-11-11 20:42:00,38.2,34.1,30.10,South,183,0.0,0.0,85,0.00,,,0.00,0.00,VWS V14.01,2013-11-12 01:42:00,
2013-11-11 20:43:00,38.2,34.1,30.10,South,183,0.0,0.0,85,0.00,,,0.00,0.00,VWS V14.01,2013-11-12 01:43:00,
2013-11-11 20:44:00,38.2,34.1,30.10,South,183,0.0,0.0,85,0.00,,,0.00,0.00,VWS V14.01,2013-11-12 01:44:00,
2013-11-11 20:45:00,38.2,34.1,30.10,South,183,0.0,0.0,85,0.00,,,0.00,0.00,VWS V14.01,2013-11-12 01:45:00,
2013-11-11 20:46:00,38.2,34.1,30.10,South,183,0.0,0.0,85,0.00,,,0.00,0.00,VWS V14.01,2013-11-12 01:46:00,
2013-11-11 20:47:00,38.2,34.1,30.10,South,183,0.0,0.0,85,0.00,,,0.00,0.00,VWS V14.01,2013-11-12 01:47:00,
2013-11-11 20:48:00,38.0,33.9,30.10,South,183,0.0,0.0,85,0.00,,,0.00,0.00,VWS V14.01,2013-11-12 01:48:00,
2013-11-11 20:49:00,38.0,33.9,30.10,South,183,0.0,0.0,85,0.00,,,0.00,0.00,VWS V14.01,2013-11-12 01:49:00,
2013-11-11 20:50:00,38.0,34.2,30.10,South,183,0.0,0.0,86,0.00,,,0.00,0.00,VWS V14.01,2013-11-12 01:50:00,
2013-11-11 20:51:00,38.0,34.2,30.10,South,183,0.0,0.0,86,0.00,,,0.00,0.00,VWS V14.01,2013-11-12 01:51:00,
2013-11-11 20:52:00,38.2,34.1,30.10,South,183,0.0,0.0,85,0.00,,,0.00,0.00,VWS V14.01,2013-11-12 01:52:00,
2013-11-11 20:53:00,37.9,34.1,30.10,South,183,0.0,0.0,86,0.00,,,0.00,0.00,VWS V14.01,2013-11-12 01:53:00,
2013-11-11 20:54:00,37.9,34.1,30.10,South,183,0.0,0.0,86,0.00,,,0.00,0.00,VWS V14.01,2013-11-12 01:54:00,
2013-11-11 20:55:00,37.9,34.1,30.10,South,183,0.0,0.0,86,0.00,,,0.00,0.00,VWS V14.01,2013-11-12 01:55:00,
2013-11-11 20:56:00,37.9,34.1,30.10,South,183,0.0,0.0,86,0.00,,,0.00,0.00,VWS V14.01,2013-11-12 01:56:00,
2013-11-11 20:57:00,38.0,34.2,30.10,South,183,0.0,0.0,86,0.00,,,0.00,0.00,VWS V14.01,2013-11-12 01:57:00,
2013-11-11 20:58:00,37.9,34.1,30.10,South,183,0.0,0.0,86,0.00,,,0.00,0.00,VWS V14.01,2013-11-12 01:58:00,
2013-11-11 20:59:00,37.9,34.1,30.10,South,183,0.0,0.0,86,0.00,,,0.00,0.00,VWS V14.01,2013-11-12 01:59:00,
2013-11-11 21:00:00,37.9,34.1,30.09,South,183,0.0,0.0,86,0.00,,,0.00,0.00,VWS V14.01,2013-11-12 02:00:00,
2013-11-11 21:01:00,37.8,34.0,30.09,South,183,0.0,0.0,86,0.00,,,0.00,0.00,VWS V14.01,2013-11-12 02:01:00,
2013-11-11 21:02:00,37.9,34.1,30.10,South,183,0.0,0.0,86,0.00,,,0.00,0.00,VWS V14.01,2013-11-12 02:02:00,
2013-11-11 21:03:00,37.8,34.0,30.09,South,183,0.0,0.0,86,0.00,,,0.00,0.00,VWS V14.01,2013-11-12 02:03:00,
2013-11-11 21:04:00,37.8,34.0,30.09,South,183,0.0,0.0,86,0.00,,,0.00,0.00,VWS V14.01,2013-11-12 02:04:00,
2013-11-11 21:05:00,37.8,34.0,30.09,South,183,0.0,0.0,86,0.00,,,0.00,0.00,VWS V14.01,2013-11-12 02:05:00,
2013-11-11 21:06:00,37.6,33.8,30.09,South,183,0.0,0.0,86,0.00,,,0.00,0.00,VWS V14.01,2013-11-12 02:06:00,
2013-11-11 21:07:00,37.8,34.0,30.09,South,183,0.0,0.0,86,0.00,,,0.00,0.00,VWS V14.01,2013-11-12 02:07:00,
2013-11-11 21:08:00,37.6,33.8,30.09,South,183,0.0,0.0,86,0.00,,,0.00,0.00,VWS V14.01,2013-11-12 02:08:00,
2013-11-11 21:09:00,37.6,33.8,30.09,South,183,0.0,0.0,86,0.00,,,0.00,0.00,VWS V14.01,2013-11-12 02:09:00,
2013-11-11 21:10:00,37.5,33.7,30.09,South,183,0.0,0.0,86,0.00,,,0.00,0.00,VWS V14.01,2013-11-12 02:10:00,
2013-11-11 21:11:00,37.5,33.7,30.09,South,183,0.0,0.0,86,0.00,,,0.00,0.00,VWS V14.01,2013-11-12 02:11:00,
2013-11-11 21:12:00,37.6,33.8,30.09,South,183,0.0,0.0,86,0.00,,,0.00,0.00,VWS V14.01,2013-11-12 02:12:00,
2013-11-11 21:13:00,37.3,33.5,30.09,South,183,0.0,0.0,86,0.00,,,0.00,0.00,VWS V14.01,2013-11-12 02:13:00,
2013-11-11 21:14:00,37.3,33.5,30.09,South,183,0.0,0.0,86,0.00,,,0.00,0.00,VWS V14.01,2013-11-12 02:14:00,
2013-11-11 21:15:00,37.3,33.5,30.09,South,183,0.0,0.0,86,0.00,,,0.00,0.00,VWS V14.01,2013-11-12 02:15:00,
2013-11-11 21:16:00,37.2,33.4,30.09,South,183,0.0,0.0,86,0.00,,,0.00,0.00,VWS V14.01,2013-11-12 02:16:00,
2013-11-11 21:17:00,37.5,33.7,30.09,South,183,0.0,0.0,86,0.00,,,0.00,0.00,VWS V14.01,2013-11-12 02:17:00,
2013-11-11 21:18:00,37.2,33.4,30.09,South,183,0.0,0.0,86,0.00,,,0.00,0.00,VWS V14.01,2013-11-12 02:18:00,
2013-11-11 21:19:00,37.2,33.4,30.09,South,183,0.0,0.0,86,0.00,,,0.00,0.00,VWS V14.01,2013-11-12 02:19:00,
2013-11-11 21:20:00,37.0,33.2,30.09,South,183,0.0,0.0,86,0.00,,,0.00,0.00,VWS V14.01,2013-11-12 02:20:00,
2013-11-11 21:21:00,37.0,33.2,30.09,South,183,0.0,0.0,86,0.00,,,0.00,0.00,VWS V14.01,2013-11-12 02:21:00,
2013-11-11 21:22:00,37.2,33.4,30.09,South,183,0.0,0.0,86,0.00,,,0.00,0.00,VWS V14.01,2013-11-12 02:22:00,
2013-11-11 21:23:00,36.9,32.8,30.09,South,183,0.0,0.0,85,0.00,,,0.00,0.00,VWS V14.01,2013-11-12 02:23:00,
2013-11-11 21:24:00,36.9,32.8,30.09,South,183,0.0,0.0,85,0.00,,,0.00,0.00,VWS V14.01,2013-11-12 02:24:00,
2013-11-11 21:25:00,36.9,32.8,30.09,South,183,0.0,0.0,85,0.00,,,0.00,0.00,VWS V14.01,2013-11-12 02:25:00,
2013-11-11 21:26:00,36.8,32.7,30.09,South,183,0.0,0.0,85,0.00,,,0.00,0.00,VWS V14.01,2013-11-12 02:26:00,
2013-11-11 21:27:00,37.0,33.2,30.09,South,183,0.0,0.0,86,0.00,,,0.00,0.00,VWS V14.01,2013-11-12 02:27:00,
2013-11-11 21:28:00,36.8,32.7,30.09,South,183,0.0,0.0,85,0.00,,,0.00,0.00,VWS V14.01,2013-11-12 02:28:00,
2013-11-11 21:29:00,36.8,32.7,30.09,South,183,0.0,0.0,85,0.00,,,0.00,0.00,VWS V14.01,2013-11-12 02:29:00,
2013-11-11 21:30:00,36.6,32.8,30.09,South,183,0.0,0.0,86,0.00,,,0.00,0.00,VWS V14.01,2013-11-12 02:30:00,
2013-11-11 21:31:00,36.6,32.8,30.09,South,183,0.0,0.0,86,0.00,,,0.00,0.00,VWS V14.01,2013-11-12 02:31:00,
2013-11-11 21:32:00,36.8,32.7,30.09,South,183,0.0,0.0,85,0.00,,,0.00,0.00,VWS V14.01,2013-11-12 02:32:00,
2013-11-11 21:33:00,36.6,32.8,30.09,South,183,0.0,0.0,86,0.00,,,0.00,0.00,VWS V14.01,2013-11-12 02:33:00,
2013-11-11 21:34:00,36.5,32.7,30.09,South,183,0.0,0.0,86,0.00,,,0.00,0.00,VWS V14.01,2013-11-12 02:34:00,
2013-11-11 21:35:00,36.5,32.7,30.09,South,183,0.0,0.0,86,0.00,,,0.00,0.00,VWS V14.01,2013-11-12 02:35:00,
2013-11-11 21:36:00,36.5,32.7,30.09,South,183,0.0,0.0,86,0.00,,,0.00,0.00,VWS V14.01,2013-11-12 02:36:00,
2013-11-11 21:37:00,36.6,32.8,30.09,South,183,0.0,0.0,86,0.00,,,0.00,0.00,VWS V14.01,2013-11-12 02:37:00,
2013-11-11 21:38:00,36.5,32.7,30.09,South,183,0.0,0.0,86,0.00,,,0.00,0.00,VWS V14.01,2013-11-12 02:38:00,
2013-11-11 21:39:00,36.5,32.7,30.09,South,183,0.0,0.0,86,0.00,,,0.00,0.00,VWS V14.01,2013-11-12 02:39:00,
2013-11-11 21:40:00,36.5,32.7,30.09,South,183,0.0,0.0,86,0.00,,,0.00,0.00,VWS V14.01,2013-11-12 02:40:00,
2013-11-11 21:41:00,36.5,32.7,30.09,South,183,0.0,0.0,86,0.00,,,0.00,0.00,VWS V14.01,2013-11-12 02:41:00,
2013-11-11 21:42:00,36.5,32.7,30.09,South,183,0.0,0.0,86,0.00,,,0.00,0.00,VWS V14.01,2013-11-12 02:42:00,
2013-11-11 21:43:00,36.5,32.7,30.09,South,183,0.0,0.0,86,0.00,,,0.00,0.00,VWS V14.01,2013-11-12 02:43:00,
2013-11-11 21:44:00,36.3,32.5,30.09,South,183,0.0,0.0,86,0.00,,,0.00,0.00,VWS V14.01,2013-11-12 02:44:00,
2013-11-11 21:45:00,36.3,32.5,30.09,South,183,0.0,0.0,86,0.00,,,0.00,0.00,VWS V14.01,2013-11-12 02:45:00,
2013-11-11 21:46:00,36.3,32.5,30.09,South,183,0.0,0.0,86,0.00,,,0.00,0.00,VWS V14.01,2013-11-12 02:46:00,
2013-11-11 21:47:00,36.5,32.7,30.09,South,183,0.0,0.0,86,0.00,,,0.00,0.00,VWS V14.01,2013-11-12 02:47:00,
2013-11-11 21:48:00,36.3,32.8,30.09,South,183,0.0,0.0,87,0.00,,,0.00,0.00,VWS V14.01,2013-11-12 02:48:00,
2013-11-11 21:49:00,36.2,32.7,30.09,South,183,0.0,0.0,87,0.00,,,0.00,0.00,VWS V14.01,2013-11-12 02:49:00,
2013-11-11 21:50:00,36.2,32.7,30.09,South,183,0.0,0.0,87,0.00,,,0.00,0.00,VWS V14.01,2013-11-12 02:50:00,
2013-11-11 21:51:00,36.2,32.7,30.09,South,183,0.0,0.0,87,0.00,,,0.00,0.00,VWS V14.01,2013-11-12 02:51:00,
2013-11-11 21:52:00,36.3,32.5,30.09,South,183,0.0,0.0,86,0.00,,,0.00,0.00,VWS V14.01,2013-11-12 02:52:00,
2013-11-11 21:53:00,36.2,32.7,30.09,South,183,0.0,0.0,87,0.00,,,0.00,0.00,VWS V14.01,2013-11-12 02:53:00,
2013-11-11 21:54:00,36.2,32.7,30.09,South,183,0.0,0.0,87,0.00,,,0.00,0.00,VWS V14.01,2013-11-12 02:54:00,
2013-11-11 21:55:00,36.0,32.5,30.09,South,183,0.0,0.0,87,0.00,,,0.00,0.00,VWS V14.01,2013-11-12 02:55:00,
2013-11-11 21:56:00,36.0,32.5,30.09,South,183,0.0,0.0,87,0.00,,,0.00,0.00,VWS V14.01,2013-11-12 02:56:00,
2013-11-11 21:57:00,36.2,32.7,30.09,South,183,0.0,0.0,87,0.00,,,0.00,0.00,VWS V14.01,2013-11-12 02:57:00,
2013-11-11 21:58:00,36.0,32.5,30.09,South,183,0.0,0.0,87,0.00,,,0.00,0.00,VWS V14.01,2013-11-12 02:58:00,
2013-11-11 21:59:00,36.0,32.5,30.09,South,183,0.0,0.0,87,0.00,,,0.00,0.00,VWS V14.01,2013-11-12 02:59:00,
2013-11-11 22:00:00,36.0,32.5,30.09,South,183,0.0,0.0,87,0.00,,,0.00,0.00,VWS V14.01,2013-11-12 03:00:00,
2013-11-11 22:01:00,35.9,32.4,30.09,South,183,0.0,0.0,87,0.00,,,0.00,0.00,VWS V14.01,2013-11-12 03:01:00,
2013-11-11 22:02:00,36.0,32.5,30.09,South,183,0.0,0.0,87,0.00,,,0.00,0.00,VWS V14.01,2013-11-12 03:02:00,
2013-11-11 22:03:00,35.9,32.4,30.09,South,183,0.0,0.0,87,0.00,,,0.00,0.00,VWS V14.01,2013-11-12 03:03:00,
2013-11-11 22:04:00,35.9,32.4,30.09,South,183,0.0,0.0,87,0.00,,,0.00,0.00,VWS V14.01,2013-11-12 03:04:00,
2013-11-11 22:05:00,35.9,32.4,30.09,South,183,0.0,0.0,87,0.00,,,0.00,0.00,VWS V14.01,2013-11-12 03:05:00,
2013-11-11 22:06:00,35.9,32.4,30.09,South,183,0.0,0.0,87,0.00,,,0.00,0.00,VWS V14.01,2013-11-12 03:06:00,
2013-11-11 22:07:00,35.9,32.4,30.09,South,183,0.0,0.0,87,0.00,,,0.00,0.00,VWS V14.01,2013-11-12 03:07:00,
2013-11-11 22:08:00,35.8,32.3,30.09,South,183,0.0,0.0,87,0.00,,,0.00,0.00,VWS V14.01,2013-11-12 03:08:00,
2013-11-11 22:09:00,35.8,32.3,30.09,South,183,0.0,0.0,87,0.00,,,0.00,0.00,VWS V14.01,2013-11-12 03:09:00,
2013-11-11 22:10:00,35.8,32.3,30.09,South,183,0.0,0.0,87,0.00,,,0.00,0.00,VWS V14.01,2013-11-12 03:10:00,
2013-11-11 22:11:00,35.8,32.3,30.09,South,183,0.0,0.0,87,0.00,,,0.00,0.00,VWS V14.01,2013-11-12 03:11:00,
2013-11-11 22:12:00,35.9,32.4,30.09,South,183,0.0,0.0,87,0.00,,,0.00,0.00,VWS V14.01,2013-11-12 03:12:00,
2013-11-11 22:13:00,35.8,32.6,30.09,South,183,0.0,0.0,88,0.00,,,0.00,0.00,VWS V14.01,2013-11-12 03:13:00,
2013-11-11 22:14:00,35.8,32.6,30.09,South,183,0.0,0.0,88,0.00,,,0.00,0.00,VWS V14.01,2013-11-12 03:14:00,
2013-11-11 22:15:00,35.8,32.6,30.08,South,183,0.0,0.0,88,0.00,,,0.00,0.00,VWS V14.01,2013-11-12 03:15:00,
2013-11-11 22:16:00,35.8,32.6,30.08,South,183,0.0,0.0,88,0.00,,,0.00,0.00,VWS V14.01,2013-11-12 03:16:00,
2013-11-11 22:17:00,35.8,32.3,30.09,South,183,0.0,0.0,87,0.00,,,0.00,0.00,VWS V14.01,2013-11-12 03:17:00,
2013-11-11 22:18:00,35.8,32.6,30.08,South,183,0.0,0.0,88,0.00,,,0.00,0.00,VWS V14.01,2013-11-12 03:18:00,
2013-11-11 22:19:00,35.8,32.6,30.08,South,183,0.0,0.0,88,0.00,,,0.00,0.00,VWS V14.01,2013-11-12 03:19:00,
2013-11-11 22:20:00,35.8,32.6,30.08,South,183,0.0,0.0,88,0.00,,,0.00,0.00,VWS V14.01,2013-11-12 03:20:00,
2013-11-11 22:21:00,35.8,32.6,30.08,South,183,0.0,0.0,88,0.00,,,0.00,0.00,VWS V14.01,2013-11-12 03:21:00,
2013-11-11 22:22:00,35.8,32.6,30.08,South,183,0.0,0.0,88,0.00,,,0.00,0.00,VWS V14.01,2013-11-12 03:22:00,
2013-11-11 22:23:00,35.8,32.6,30.08,South,183,0.0,0.0,88,0.00,,,0.00,0.00,VWS V14.01,2013-11-12 03:23:00,
2013-11-11 22:24:00,35.8,32.6,30.08,South,183,0.0,0.0,88,0.00,,,0.00,0.00,VWS V14.01,2013-11-12 03:24:00,
2013-11-11 22:25:00,35.8,32.6,30.08,South,183,0.0,0.0,88,0.00,,,0.00,0.00,VWS V14.01,2013-11-12 03:25:00,
2013-11-11 22:26:00,35.8,32.6,30.08,South,183,0.0,0.0,88,0.00,,,0.00,0.00,VWS V14.01,2013-11-12 03:26:00,
2013-11-11 22:27:00,35.8,32.6,30.08,South,183,0.0,0.0,88,0.00,,,0.00,0.00,VWS V14.01,2013-11-12 03:27:00,
2013-11-11 22:28:00,35.8,32.6,30.08,South,183,0.0,0.0,88,0.00,,,0.00,0.00,VWS V14.01,2013-11-12 03:28:00,
2013-11-11 22:29:00,35.8,32.6,30.08,South,183,0.0,0.0,88,0.00,,,0.00,0.00,VWS V14.01,2013-11-12 03:29:00,
2013-11-11 22:30:00,35.8,32.6,30.08,South,183,0.0,0.0,88,0.00,,,0.00,0.00,VWS V14.01,2013-11-12 03:30:00,
2013-11-11 22:31:00,35.8,32.6,30.08,South,183,0.0,0.0,88,0.00,,,0.00,0.00,VWS V14.01,2013-11-12 03:31:00,
2013-11-11 22:32:00,35.8,32.6,30.08,South,183,0.0,0.0,88,0.00,,,0.00,0.00,VWS V14.01,2013-11-12 03:32:00,
2013-11-11 22:33:00,35.6,32.4,30.08,South,183,0.0,0.0,88,0.00,,,0.00,0.00,VWS V14.01,2013-11-12 03:33:00,
2013-11-11 22:34:00,35.6,32.4,30.08,South,183,0.0,0.0,88,0.00,,,0.00,0.00,VWS V14.01,2013-11-12 03:34:00,
2013-11-11 22:35:00,35.6,32.4,30.08,South,183,0.0,0.0,88,0.00,,,0.00,0.00,VWS V14.01,2013-11-12 03:35:00,
2013-11-11 22:36:00,35.5,32.3,30.08,South,183,0.0,0.0,88,0.00,,,0.00,0.00,VWS V14.01,2013-11-12 03:36:00,
2013-11-11 22:37:00,35.8,32.6,30.08,South,183,0.0,0.0,88,0.00,,,0.00,0.00,VWS V14.01,2013-11-12 03:37:00,
2013-11-11 22:38:00,35.5,32.3,30.08,South,183,0.0,0.0,88,0.00,,,0.00,0.00,VWS V14.01,2013-11-12 03:38:00,
2013-11-11 22:39:00,35.5,32.3,30.08,South,183,0.0,0.0,88,0.00,,,0.00,0.00,VWS V14.01,2013-11-12 03:39:00,
2013-11-11 22:40:00,35.3,32.1,30.08,South,183,0.0,0.0,88,0.00,,,0.00,0.00,VWS V14.01,2013-11-12 03:40:00,
2013-11-11 22:41:00,35.3,32.1,30.08,South,183,0.0,0.0,88,0.00,,,0.00,0.00,VWS V14.01,2013-11-12 03:41:00,
2013-11-11 22:42:00,35.5,32.3,30.08,South,183,0.0,0.0,88,0.00,,,0.00,0.00,VWS V14.01,2013-11-12 03:42:00,
2013-11-11 22:43:00,35.3,32.1,30.08,South,183,0.0,0.0,88,0.00,,,0.00,0.00,VWS V14.01,2013-11-12 03:43:00,
2013-11-11 22:44:00,35.2,32.0,30.08,South,183,0.0,0.0,88,0.00,,,0.00,0.00,VWS V14.01,2013-11-12 03:44:00,
2013-11-11 22:45:00,35.2,32.0,30.07,South,183,0.0,0.0,88,0.00,,,0.00,0.00,VWS V14.01,2013-11-12 03:45:00,
2013-11-11 22:46:00,35.2,32.0,30.07,South,183,0.0,0.0,88,0.00,,,0.00,0.00,VWS V14.01,2013-11-12 03:46:00,
2013-11-11 22:47:00,35.3,32.1,30.08,South,183,0.0,0.0,88,0.00,,,0.00,0.00,VWS V14.01,2013-11-12 03:47:00,
2013-11-11 22:48:00,35.2,32.0,30.07,South,183,0.0,0.0,88,0.00,,,0.00,0.00,VWS V14.01,2013-11-12 03:48:00,
2013-11-11 22:49:00,35.2,32.0,30.07,South,183,0.0,0.0,88,0.00,,,0.00,0.00,VWS V14.01,2013-11-12 03:49:00,
2013-11-11 22:50:00,35.2,32.0,30.07,South,183,0.0,0.0,88,0.00,,,0.00,0.00,VWS V14.01,2013-11-12 03:50:00,
2013-11-11 22:51:00,35.2,32.0,30.07,South,183,0.0,0.0,88,0.00,,,0.00,0.00,VWS V14.01,2013-11-12 03:51:00,
2013-11-11 22:52:00,35.2,32.0,30.07,South,183,0.0,0.0,88,0.00,,,0.00,0.00,VWS V14.01,2013-11-12 03:52:00,
2013-11-11 22:53:00,35.0,31.8,30.07,South,183,0.0,0.0,88,0.00,,,0.00,0.00,VWS V14.01,2013-11-12 03:53:00,
2013-11-11 22:54:00,35.0,31.8,30.07,South,183,0.0,0.0,88,0.00,,,0.00,0.00,VWS V14.01,2013-11-12 03:54:00,
2013-11-11 22:55:00,35.0,31.8,30.07,South,183,0.0,0.0,88,0.00,,,0.00,0.00,VWS V14.01,2013-11-12 03:55:00,
2013-11-11 22:56:00,35.0,31.8,30.07,South,183,0.0,0.0,88,0.00,,,0.00,0.00,VWS V14.01,2013-11-12 03:56:00,
2013-11-11 22:57:00,35.2,32.0,30.07,South,183,0.0,0.0,88,0.00,,,0.00,0.00,VWS V14.01,2013-11-12 03:57:00,
2013-11-11 22:58:00,35.0,32.1,30.07,South,183,0.0,0.0,89,0.00,,,0.00,0.00,VWS V14.01,2013-11-12 03:58:00,
2013-11-11 22:59:00,34.9,31.7,30.07,South,183,0.0,0.0,88,0.00,,,0.00,0.00,VWS V14.01,2013-11-12 03:59:00,
2013-11-11 23:00:00,34.9,32.0,30.07,South,183,0.0,0.0,89,0.00,,,0.00,0.00,VWS V14.01,2013-11-12 04:00:00,
2013-11-11 23:01:00,34.9,32.0,30.07,South,183,0.0,0.0,89,0.00,,,0.00,0.00,VWS V14.01,2013-11-12 04:01:00,
2013-11-11 23:02:00,35.0,31.8,30.07,South,183,0.0,0.0,88,0.00,,,0.00,0.00,VWS V14.01,2013-11-12 04:02:00,
2013-11-11 23:03:00,34.9,32.0,30.07,South,183,0.0,0.0,89,0.00,,,0.00,0.00,VWS V14.01,2013-11-12 04:03:00,
2013-11-11 23:04:00,34.9,32.0,30.07,South,183,0.0,0.0,89,0.00,,,0.00,0.00,VWS V14.01,2013-11-12 04:04:00,
2013-11-11 23:05:00,34.9,32.0,30.07,South,183,0.0,0.0,89,0.00,,,0.00,0.00,VWS V14.01,2013-11-12 04:05:00,
2013-11-11 23:06:00,34.9,32.0,30.07,South,183,0.0,0.0,89,0.00,,,0.00,0.00,VWS V14.01,2013-11-12 04:06:00,
2013-11-11 23:07:00,34.9,32.0,30.07,South,183,0.0,0.0,89,0.00,,,0.00,0.00,VWS V14.01,2013-11-12 04:07:00,
2013-11-11 23:08:00,34.9,32.0,30.07,South,183,0.0,0.0,89,0.00,,,0.00,0.00,VWS V14.01,2013-11-12 04:08:00,
2013-11-11 23:09:00,34.9,32.0,30.07,South,183,0.0,0.0,89,0.00,,,0.00,0.00,VWS V14.01,2013-11-12 04:09:00,
2013-11-11 23:10:00,34.9,32.0,30.07,South,183,0.0,0.0,89,0.00,,,0.00,0.00,VWS V14.01,2013-11-12 04:10:00,
2013-11-11 23:11:00,34.9,32.0,30.07,South,183,0.0,0.0,89,0.00,,,0.00,0.00,VWS V14.01,2013-11-12 04:11:00,
2013-11-11 23:12:00,34.9,32.0,30.07,South,183,0.0,0.0,89,0.00,,,0.00,0.00,VWS V14.01,2013-11-12 04:12:00,
2013-11-11 23:13:00,34.9,32.0,30.07,South,183,0.0,0.0,89,0.00,,,0.00,0.00,VWS V14.01,2013-11-12 04:13:00,
2013-11-11 23:14:00,34.7,31.8,30.07,South,183,0.0,0.0,89,0.00,,,0.00,0.00,VWS V14.01,2013-11-12 04:14:00,
2013-11-11 23:15:00,34.7,31.8,30.06,South,183,0.0,0.0,89,0.00,,,0.00,0.00,VWS V14.01,2013-11-12 04:15:00,
2013-11-11 23:16:00,34.7,31.8,30.06,South,183,0.0,0.0,89,0.00,,,0.00,0.00,VWS V14.01,2013-11-12 04:16:00,
2013-11-11 23:17:00,34.9,32.0,30.07,South,183,0.0,0.0,89,0.00,,,0.00,0.00,VWS V14.01,2013-11-12 04:17:00,
2013-11-11 23:18:00,34.7,31.8,30.06,South,183,0.0,0.0,89,0.00,,,0.00,0.00,VWS V14.01,2013-11-12 04:18:00,
2013-11-11 23:19:00,34.7,31.8,30.06,South,183,0.0,0.0,89,0.00,,,0.00,0.00,VWS V14.01,2013-11-12 04:19:00,
2013-11-11 23:20:00,34.7,31.8,30.06,South,183,0.0,0.0,89,0.00,,,0.00,0.00,VWS V14.01,2013-11-12 04:20:00,
2013-11-11 23:21:00,34.7,31.8,30.06,South,183,0.0,0.0,89,0.00,,,0.00,0.00,VWS V14.01,2013-11-12 04:21:00,
2013-11-11 23:22:00,34.7,31.8,30.06,South,183,0.0,0.0,89,0.00,,,0.00,0.00,VWS V14.01,2013-11-12 04:22:00,
2013-11-11 23:26:00,34.7,31.8,30.06,South,183,0.0,0.0,89,0.00,,,0.00,0.00,VWS V14.01,2013-11-12 04:26:00,
2013-11-11 23:27:00,34.7,31.8,30.06,South,183,0.0,0.0,89,0.00,,,0.00,0.00,VWS V14.01,2013-11-12 04:27:00,
2013-11-11 23:29:00,34.7,32.1,30.06,South,183,0.0,0.0,90,0.00,,,0.00,0.00,VWS V14.01,2013-11-12 04:29:00,
2013-11-11 23:30:00,34.7,32.1,30.06,South,183,0.0,0.0,90,0.00,,,0.00,0.00,VWS V14.01,2013-11-12 04:30:00,
2013-11-11 23:31:00,34.9,32.3,30.06,South,183,0.0,0.0,90,0.00,,,0.00,0.00,VWS V14.01,2013-11-12 04:31:00,
2013-11-11 23:32:00,34.7,31.8,30.06,South,183,0.0,0.0,89,0.00,,,0.00,0.00,VWS V14.01,2013-11-12 04:32:00,
2013-11-11 23:33:00,34.9,32.3,30.06,South,183,0.0,0.0,90,0.00,,,0.00,0.00,VWS V14.01,2013-11-12 04:33:00,
2013-11-11 23:34:00,34.9,32.3,30.06,South,183,0.0,0.0,90,0.00,,,0.00,0.00,VWS V14.01,2013-11-12 04:34:00,
2013-11-11 23:35:00,34.9,32.3,30.06,South,183,0.0,0.0,90,0.00,,,0.00,0.00,VWS V14.01,2013-11-12 04:35:00,
2013-11-11 23:36:00,34.9,32.3,30.06,South,183,0.0,0.0,90,0.00,,,0.00,0.00,VWS V14.01,2013-11-12 04:36:00,
2013-11-11 23:37:00,34.9,32.3,30.06,South,183,0.0,0.0,90,0.00,,,0.00,0.00,VWS V14.01,2013-11-12 04:37:00,
2013-11-11 23:38:00,34.7,32.1,30.06,South,183,0.0,0.0,90,0.00,,,0.00,0.00,VWS V14.01,2013-11-12 04:38:00,
2013-11-11 23:39:00,34.7,32.1,30.06,South,183,0.0,0.0,90,0.00,,,0.00,0.00,VWS V14.01,2013-11-12 04:39:00,
2013-11-11 23:40:00,34.7,32.1,30.06,South,183,0.0,0.0,90,0.00,,,0.00,0.00,VWS V14.01,2013-11-12 04:40:00,
2013-11-11 23:41:00,34.7,32.1,30.06,South,183,0.0,0.0,90,0.00,,,0.00,0.00,VWS V14.01,2013-11-12 04:41:00,
2013-11-11 23:42:00,34.9,32.3,30.06,South,183,0.0,0.0,90,0.00,,,0.00,0.00,VWS V14.01,2013-11-12 04:42:00,
2013-11-11 23:43:00,34.7,32.1,30.06,South,183,0.0,0.0,90,0.00,,,0.00,0.00,VWS V14.01,2013-11-12 04:43:00,
2013-11-11 23:44:00,34.7,32.1,30.06,South,183,0.0,0.0,90,0.00,,,0.00,0.00,VWS V14.01,2013-11-12 04:44:00,
2013-11-11 23:45:00,34.7,32.1,30.06,South,183,0.0,0.0,90,0.00,,,0.00,0.00,VWS V14.01,2013-11-12 04:45:00,
2013-11-11 23:46:00,34.7,32.1,30.06,South,183,0.0,0.0,90,0.00,,,0.00,0.00,VWS V14.01,2013-11-12 04:46:00,
2013-11-11 23:47:00,34.7,32.1,30.06,South,183,0.0,0.0,90,0.00,,,0.00,0.00,VWS V14.01,2013-11-12 04:47:00,
2013-11-11 23:48:00,34.7,32.1,30.06,South,183,0.0,0.0,90,0.00,,,0.00,0.00,VWS V14.01,2013-11-12 04:48:00,
2013-11-11 23:49:00,34.7,32.1,30.06,South,183,0.0,0.0,90,0.00,,,0.00,0.00,VWS V14.01,2013-11-12 04:49:00,
2013-11-11 23:50:00,34.7,32.1,30.06,South,183,0.0,0.0,90,0.00,,,0.00,0.00,VWS V14.01,2013-11-12 04:50:00,
2013-11-11 23:51:00,34.7,32.1,30.06,South,183,0.0,0.0,90,0.00,,,0.00,0.00,VWS V14.01,2013-11-12 04:51:00,
2013-11-11 23:52:00,34.7,32.1,30.05,South,183,0.0,0.0,90,0.00,,,0.00,0.00,VWS V14.01,2013-11-12 04:52:00,
2013-11-11 23:53:00,34.7,32.1,30.06,South,183,0.0,0.0,90,0.00,,,0.00,0.00,VWS V14.01,2013-11-12 04:53:00,
2013-11-11 23:54:00,34.7,32.1,30.06,South,183,0.0,0.0,90,0.00,,,0.00,0.00,VWS V14.01,2013-11-12 04:54:00,
2013-11-11 23:55:00,34.7,32.3,30.06,South,183,0.0,0.0,91,0.00,,,0.00,0.00,VWS V14.01,2013-11-12 04:55:00,
2013-11-11 23:56:00,34.7,32.1,30.06,South,183,0.0,0.0,90,0.00,,,0.00,0.00,VWS V14.01,2013-11-12 04:56:00,
2013-11-11 23:57:00,34.7,32.1,30.05,South,183,0.0,0.0,90,0.00,,,0.00,0.00,VWS V14.01,2013-11-12 04:57:00,
2013-11-11 23:58:00,34.7,32.1,30.06,South,183,0.0,0.0,90,0.00,,,0.00,0.00,VWS V14.01,2013-11-12 04:58:00,
2013-11-11 23:59:00,34.7,32.1,30.06,South,183,0.0,0.0,90,0.00,,,0.00,0.00,VWS V14.01,2013-11-12 04:59:00,